GEFSNGP_prec_meanprecacc_126.txt.gz
Total_Precipitation_Accumulation
0.32 0.33 0.31 0.30 0.24 0.23 0.24 0.29 0.56 0.88 1.21 1.60 1.76 1.66 1.61 1.52 1.29 1.04 0.91 0.87 0.88 0.88 0.85 0.77 0.70 0.65 0.60 0.56 0.53 0.53 0.55 0.57 0.53 0.46 0.43 0.43 0.44 0.46 0.46 0.42 0.39 0.38 0.33 0.30
0.28 0.23 0.28 0.33 0.34 0.35 0.39 0.45 0.61 0.96 1.44 1.84 1.92 1.75 1.66 1.58 1.43 1.26 1.17 1.11 1.08 1.03 0.98 0.95 0.88 0.78 0.70 0.66 0.64 0.63 0.65 0.69 0.67 0.63 0.60 0.56 0.51 0.46 0.41 0.37 0.31 0.24 0.20 0.18
0.44 0.27 0.40 0.68 0.55 0.48 0.53 0.60 0.77 1.20 1.50 1.59 1.67 1.71 1.74 1.77 1.69 1.52 1.42 1.35 1.29 1.25 1.18 1.12 1.05 0.98 0.91 0.83 0.78 0.75 0.76 0.78 0.75 0.68 0.62 0.53 0.42 0.36 0.32 0.29 0.27 0.25 0.19 0.15
0.46 0.51 0.95 0.92 0.52 0.50 0.61 0.70 0.80 0.97 1.13 1.24 1.25 1.31 1.39 1.49 1.55 1.51 1.39 1.34 1.31 1.27 1.26 1.24 1.15 1.07 1.00 0.92 0.86 0.82 0.82 0.77 0.70 0.59 0.51 0.42 0.36 0.32 0.30 0.28 0.28 0.28 0.24 0.21
0.50 0.73 0.94 0.87 0.50 0.47 0.80 1.20 0.99 0.92 0.85 0.80 0.78 0.87 1.14 1.29 1.33 1.38 1.42 1.41 1.36 1.28 1.21 1.18 1.13 1.07 1.02 0.98 0.90 0.82 0.76 0.66 0.54 0.44 0.38 0.34 0.31 0.31 0.29 0.28 0.27 0.24 0.22 0.22
0.55 0.84 1.14 1.08 0.47 0.32 0.67 1.46 1.17 0.97 0.86 0.79 0.87 1.02 1.08 1.06 1.05 1.12 1.18 1.18 1.11 1.03 0.95 0.95 0.97 0.95 0.91 0.86 0.78 0.68 0.55 0.44 0.38 0.35 0.34 0.33 0.30 0.28 0.27 0.28 0.27 0.22 0.19 0.18
0.65 0.96 1.19 0.59 0.24 0.40 1.04 1.37 1.12 0.94 0.83 0.81 0.99 0.99 0.77 0.73 0.79 0.82 0.87 0.85 0.80 0.79 0.85 0.87 0.81 0.73 0.70 0.65 0.58 0.45 0.37 0.32 0.30 0.28 0.25 0.27 0.29 0.29 0.28 0.27 0.29 0.27 0.25 0.22
0.75 1.05 1.17 0.46 0.29 0.57 0.74 0.66 0.73 0.75 0.72 0.67 0.64 0.52 0.49 0.51 0.54 0.56 0.59 0.61 0.60 0.64 0.71 0.70 0.60 0.53 0.55 0.51 0.40 0.30 0.31 0.33 0.31 0.26 0.19 0.23 0.32 0.32 0.30 0.34 0.37 0.35 0.33 0.30
0.74 0.94 0.77 0.40 0.32 0.35 0.39 0.53 0.52 0.50 0.46 0.37 0.33 0.31 0.35 0.37 0.37 0.41 0.41 0.46 0.51 0.52 0.55 0.56 0.52 0.51 0.53 0.48 0.36 0.32 0.38 0.41 0.34 0.25 0.23 0.26 0.31 0.32 0.31 0.33 0.31 0.29 0.28 0.28
0.49 0.61 0.48 0.38 0.32 0.28 0.29 0.35 0.32 0.32 0.32 0.24 0.23 0.28 0.32 0.35 0.33 0.33 0.36 0.39 0.43 0.43 0.43 0.44 0.42 0.45 0.48 0.41 0.38 0.45 0.52 0.44 0.32 0.29 0.27 0.28 0.27 0.24 0.23 0.25 0.24 0.22 0.21 0.20
0.48 0.54 0.49 0.47 0.30 0.23 0.21 0.20 0.19 0.23 0.23 0.20 0.19 0.26 0.28 0.31 0.33 0.34 0.35 0.36 0.38 0.41 0.39 0.33 0.32 0.36 0.35 0.38 0.44 0.59 0.57 0.43 0.34 0.29 0.26 0.26 0.21 0.15 0.11 0.10 0.08 0.13 0.15 0.14
0.43 0.38 0.44 0.49 0.32 0.20 0.22 0.21 0.20 0.18 0.19 0.23 0.22 0.24 0.24 0.26 0.29 0.31 0.30 0.30 0.35 0.37 0.33 0.30 0.30 0.29 0.30 0.35 0.39 0.50 0.51 0.38 0.29 0.24 0.21 0.17 0.16 0.16 0.08 0.04 0.03 0.03 0.05 0.05
0.22 0.20 0.24 0.22 0.16 0.15 0.18 0.20 0.21 0.21 0.20 0.23 0.24 0.23 0.22 0.23 0.23 0.27 0.29 0.30 0.34 0.34 0.31 0.27 0.26 0.26 0.24 0.26 0.30 0.36 0.38 0.28 0.21 0.19 0.19 0.17 0.15 0.22 0.22 0.11 0.03 0.02 0.03 0.03
0.09 0.12 0.18 0.17 0.17 0.16 0.17 0.20 0.20 0.19 0.21 0.25 0.25 0.22 0.18 0.17 0.19 0.23 0.24 0.22 0.19 0.20 0.23 0.24 0.21 0.19 0.15 0.16 0.22 0.23 0.18 0.11 0.11 0.15 0.13 0.12 0.11 0.13 0.16 0.20 0.20 0.13 0.06 0.03
0.09 0.12 0.17 0.18 0.21 0.19 0.19 0.22 0.21 0.20 0.20 0.22 0.20 0.15 0.13 0.13 0.15 0.16 0.14 0.12 0.14 0.18 0.18 0.16 0.16 0.15 0.10 0.10 0.14 0.13 0.11 0.10 0.10 0.09 0.07 0.06 0.07 0.07 0.07 0.10 0.18 0.21 0.16 0.08
0.13 0.13 0.14 0.18 0.24 0.24 0.24 0.25 0.22 0.19 0.14 0.14 0.13 0.11 0.10 0.10 0.10 0.09 0.09 0.10 0.16 0.19 0.17 0.15 0.15 0.11 0.07 0.07 0.09 0.09 0.07 0.05 0.07 0.06 0.06 0.04 0.04 0.04 0.04 0.06 0.11 0.15 0.15 0.10
0.15 0.14 0.13 0.14 0.17 0.20 0.18 0.14 0.12 0.11 0.09 0.08 0.07 0.06 0.06 0.06 0.07 0.08 0.09 0.10 0.15 0.17 0.15 0.14 0.11 0.05 0.03 0.03 0.06 0.05 0.03 0.02 0.01 0.02 0.04 0.03 0.03 0.03 0.03 0.04 0.07 0.10 0.07 0.05
0.15 0.13 0.11 0.10 0.11 0.10 0.08 0.06 0.05 0.06 0.06 0.03 0.03 0.04 0.05 0.06 0.07 0.07 0.07 0.07 0.09 0.13 0.12 0.07 0.05 0.03 0.02 0.02 0.03 0.03 0.02 0.02 0.01 0.02 0.02 0.02 0.03 0.04 0.03 0.04 0.05 0.06 0.06 0.06
0.08 0.06 0.05 0.05 0.05 0.04 0.03 0.04 0.04 0.03 0.02 0.01 0.02 0.04 0.04 0.04 0.03 0.04 0.04 0.06 0.09 0.11 0.09 0.04 0.02 0.02 0.02 0.01 0.01 0.01 0.01 0.01 0.01 0.01 0.01 0.01 0.01 0.02 0.02 0.02 0.03 0.03 0.05 0.06
0.03 0.02 0.02 0.03 0.02 0.02 0.02 0.02 0.02 0.01 0.01 0.01 0.03 0.03 0.03 0.02 0.02 0.02 0.04 0.07 0.08 0.06 0.03 0.02 0.01 0.02 0.02 0.01 0.00 0.00 0.00 0.00 0.00 0.00 0.00 0.00 0.00 0.01 0.01 0.02 0.01 0.02 0.03 0.04
0.02 0.02 0.02 0.02 0.02 0.02 0.02 0.01 0.02 0.02 0.02 0.02 0.02 0.03 0.02 0.02 0.01 0.02 0.03 0.06 0.06 0.04 0.02 0.01 0.02 0.01 0.01 0.00 0.00 0.00 0.00 0.00 0.00 0.00 0.00 0.00 0.00 0.00 0.01 0.01 0.01 0.01 0.02 0.03
0.03 0.02 0.02 0.02 0.01 0.01 0.02 0.02 0.02 0.02 0.01 0.01 0.01 0.02 0.01 0.01 0.01 0.02 0.03 0.05 0.04 0.02 0.01 0.00 0.01 0.01 0.00 0.00 0.00 0.00 0.00 0.00 0.00 0.00 0.00 0.00 0.00 0.00 0.01 0.01 0.01 0.01 0.02 0.03
0.06 0.03 0.02 0.02 0.01 0.02 0.03 0.03 0.02 0.01 0.01 0.01 0.01 0.01 0.01 0.01 0.01 0.01 0.02 0.02 0.01 0.00 0.01 0.01 0.00 0.00 0.00 0.00 0.00 0.00 0.00 0.00 0.00 0.00 0.00 0.00 0.00 0.00 0.00 0.00 0.00 0.01 0.01 0.01
0.10 0.06 0.03 0.03 0.03 0.03 0.03 0.02 0.01 0.01 0.00 0.00 0.01 0.01 0.01 0.01 0.01 0.00 0.00 0.00 0.00 0.00 0.00 0.00 0.00 0.00 0.00 0.00 0.00 0.00 0.00 0.00 0.00 0.00 0.00 0.00 0.00 0.00 0.00 0.00 0.00 0.00 0.00 0.00
0.08 0.07 0.04 0.04 0.05 0.04 0.04 0.02 0.02 0.01 0.01 0.01 0.01 0.00 0.00 0.00 0.00 0.00 0.00 0.00 0.00 0.00 0.00 0.00 0.00 0.00 0.00 0.00 0.00 0.00 0.00 0.00 0.00 0.00 0.00 0.00 0.00 0.00 0.00 0.00 0.00 0.00 0.00 0.00
0.13 0.13 0.09 0.06 0.05 0.04 0.03 0.02 0.02 0.03 0.02 0.02 0.01 0.01 0.01 0.00 0.00 0.00 0.00 0.00 0.00 0.00 0.00 0.00 0.00 0.00 0.00 0.00 0.00 0.00 0.00 0.00 0.00 0.00 0.00 0.00 0.00 0.00 0.00 0.00 0.00 0.00 0.00 0.00
0.21 0.18 0.13 0.11 0.08 0.04 0.02 0.02 0.02 0.03 0.02 0.02 0.02 0.01 0.01 0.01 0.00 0.00 0.00 0.00 0.00 0.00 0.00 0.00 0.00 0.00 0.00 0.00 0.00 0.00 0.00 0.00 0.00 0.00 0.00 0.00 0.00 0.00 0.00 0.00 0.00 0.00 0.00 0.00

GEFSNGP_prec_meanprecacc_132.txt.gz
Total_Precipitation_Accumulation
0.33 0.34 0.33 0.33 0.27 0.25 0.26 0.30 0.58 0.91 1.24 1.65 1.82 1.74 1.67 1.57 1.33 1.09 0.96 0.91 0.90 0.91 0.88 0.81 0.75 0.71 0.66 0.61 0.57 0.58 0.60 0.61 0.55 0.47 0.44 0.44 0.45 0.47 0.46 0.42 0.40 0.38 0.34 0.31
0.30 0.25 0.29 0.35 0.36 0.37 0.42 0.46 0.63 0.99 1.48 1.88 1.97 1.80 1.71 1.64 1.49 1.31 1.21 1.14 1.11 1.05 1.01 0.98 0.91 0.81 0.74 0.71 0.68 0.69 0.71 0.73 0.70 0.65 0.61 0.58 0.52 0.47 0.42 0.38 0.31 0.25 0.20 0.18
0.47 0.30 0.42 0.72 0.57 0.49 0.54 0.61 0.79 1.23 1.54 1.62 1.70 1.74 1.78 1.82 1.73 1.56 1.45 1.38 1.32 1.27 1.20 1.15 1.08 1.01 0.95 0.87 0.81 0.79 0.82 0.83 0.78 0.71 0.64 0.54 0.43 0.36 0.33 0.29 0.27 0.25 0.19 0.16
0.51 0.56 1.01 0.97 0.55 0.52 0.63 0.72 0.81 0.99 1.15 1.26 1.27 1.34 1.43 1.54 1.58 1.54 1.42 1.37 1.33 1.29 1.28 1.27 1.18 1.10 1.04 0.96 0.89 0.85 0.86 0.81 0.73 0.61 0.53 0.44 0.37 0.33 0.31 0.28 0.29 0.28 0.24 0.21
0.55 0.79 1.02 0.93 0.53 0.50 0.83 1.23 1.01 0.95 0.88 0.82 0.80 0.90 1.18 1.35 1.38 1.43 1.46 1.44 1.38 1.30 1.22 1.20 1.15 1.10 1.05 1.00 0.92 0.85 0.80 0.69 0.56 0.45 0.40 0.36 0.33 0.32 0.31 0.29 0.27 0.25 0.23 0.22
0.60 0.92 1.21 1.14 0.50 0.35 0.69 1.50 1.21 1.01 0.88 0.81 0.89 1.04 1.09 1.08 1.08 1.15 1.21 1.21 1.14 1.05 0.97 0.96 0.98 0.97 0.93 0.89 0.81 0.72 0.59 0.47 0.40 0.38 0.36 0.34 0.32 0.29 0.28 0.28 0.27 0.22 0.19 0.19
0.70 1.02 1.24 0.62 0.25 0.41 1.07 1.40 1.16 0.98 0.85 0.82 1.00 0.99 0.78 0.74 0.80 0.84 0.89 0.87 0.82 0.81 0.87 0.90 0.85 0.76 0.73 0.69 0.62 0.50 0.42 0.37 0.34 0.31 0.27 0.28 0.30 0.30 0.29 0.28 0.29 0.27 0.26 0.22
0.81 1.11 1.22 0.48 0.30 0.58 0.76 0.67 0.74 0.77 0.73 0.68 0.64 0.53 0.50 0.51 0.54 0.57 0.60 0.62 0.62 0.66 0.73 0.73 0.63 0.57 0.58 0.54 0.43 0.33 0.35 0.36 0.33 0.28 0.20 0.23 0.33 0.34 0.31 0.35 0.38 0.36 0.33 0.30
0.78 0.97 0.80 0.42 0.33 0.37 0.42 0.54 0.54 0.52 0.48 0.37 0.34 0.32 0.35 0.37 0.38 0.41 0.42 0.47 0.52 0.53 0.57 0.59 0.55 0.55 0.56 0.52 0.40 0.37 0.43 0.45 0.36 0.26 0.25 0.28 0.32 0.33 0.32 0.33 0.32 0.29 0.28 0.29
0.50 0.62 0.49 0.38 0.33 0.29 0.30 0.36 0.33 0.33 0.33 0.24 0.24 0.29 0.32 0.35 0.33 0.33 0.37 0.39 0.43 0.44 0.44 0.46 0.45 0.48 0.51 0.45 0.41 0.48 0.56 0.47 0.34 0.30 0.29 0.29 0.28 0.24 0.23 0.25 0.24 0.22 0.21 0.20
0.49 0.55 0.49 0.48 0.31 0.24 0.22 0.21 0.20 0.24 0.25 0.20 0.19 0.26 0.29 0.32 0.33 0.34 0.35 0.37 0.39 0.41 0.40 0.34 0.33 0.37 0.36 0.39 0.46 0.61 0.58 0.45 0.36 0.30 0.27 0.26 0.22 0.15 0.11 0.11 0.08 0.13 0.15 0.14
0.44 0.39 0.45 0.51 0.35 0.22 0.23 0.22 0.20 0.19 0.20 0.23 0.23 0.25 0.25 0.27 0.30 0.31 0.31 0.31 0.36 0.37 0.34 0.32 0.32 0.32 0.32 0.37 0.41 0.52 0.52 0.40 0.31 0.26 0.22 0.18 0.17 0.16 0.09 0.04 0.03 0.03 0.05 0.05
0.22 0.21 0.25 0.24 0.19 0.17 0.19 0.21 0.21 0.21 0.20 0.23 0.25 0.24 0.23 0.23 0.24 0.27 0.30 0.31 0.35 0.35 0.32 0.28 0.28 0.29 0.27 0.28 0.32 0.38 0.39 0.29 0.22 0.20 0.20 0.18 0.16 0.22 0.23 0.11 0.04 0.02 0.03 0.04
0.09 0.12 0.18 0.21 0.22 0.18 0.19 0.21 0.20 0.19 0.21 0.25 0.25 0.22 0.18 0.17 0.19 0.23 0.25 0.23 0.20 0.21 0.24 0.25 0.22 0.19 0.16 0.17 0.24 0.24 0.19 0.11 0.11 0.15 0.14 0.13 0.12 0.14 0.16 0.21 0.20 0.14 0.06 0.03
0.10 0.13 0.19 0.23 0.24 0.20 0.20 0.22 0.21 0.21 0.20 0.22 0.20 0.16 0.13 0.13 0.15 0.16 0.15 0.13 0.15 0.19 0.19 0.17 0.17 0.16 0.10 0.11 0.14 0.14 0.11 0.11 0.10 0.09 0.07 0.07 0.07 0.08 0.07 0.11 0.18 0.21 0.16 0.08
0.14 0.15 0.17 0.22 0.24 0.24 0.24 0.25 0.23 0.19 0.15 0.14 0.13 0.11 0.11 0.11 0.10 0.10 0.10 0.11 0.17 0.20 0.18 0.16 0.15 0.11 0.07 0.07 0.10 0.10 0.07 0.05 0.07 0.07 0.06 0.05 0.05 0.05 0.05 0.07 0.11 0.15 0.15 0.10
0.18 0.18 0.15 0.16 0.18 0.20 0.18 0.14 0.12 0.11 0.09 0.08 0.08 0.07 0.06 0.07 0.08 0.09 0.10 0.11 0.15 0.18 0.16 0.15 0.11 0.06 0.03 0.03 0.06 0.06 0.04 0.02 0.01 0.03 0.04 0.03 0.04 0.04 0.04 0.04 0.08 0.10 0.08 0.06
0.17 0.14 0.12 0.11 0.11 0.10 0.08 0.06 0.05 0.07 0.06 0.03 0.03 0.04 0.05 0.07 0.07 0.07 0.07 0.07 0.10 0.13 0.12 0.07 0.05 0.03 0.02 0.02 0.03 0.03 0.02 0.02 0.01 0.02 0.02 0.02 0.03 0.04 0.04 0.04 0.06 0.07 0.06 0.06
0.09 0.06 0.06 0.05 0.05 0.04 0.03 0.04 0.04 0.03 0.02 0.01 0.02 0.04 0.05 0.05 0.04 0.04 0.05 0.06 0.09 0.11 0.09 0.04 0.02 0.02 0.02 0.01 0.01 0.01 0.01 0.01 0.01 0.01 0.01 0.01 0.01 0.02 0.02 0.03 0.03 0.03 0.05 0.06
0.03 0.02 0.03 0.03 0.02 0.02 0.02 0.03 0.02 0.02 0.01 0.02 0.03 0.03 0.03 0.02 0.02 0.02 0.04 0.07 0.08 0.07 0.04 0.02 0.01 0.02 0.02 0.01 0.00 0.00 0.00 0.00 0.00 0.00 0.00 0.00 0.00 0.01 0.01 0.02 0.01 0.02 0.03 0.04
0.02 0.02 0.02 0.02 0.02 0.02 0.02 0.01 0.02 0.02 0.02 0.02 0.02 0.03 0.02 0.02 0.01 0.02 0.03 0.06 0.06 0.04 0.02 0.01 0.02 0.01 0.01 0.00 0.00 0.00 0.00 0.00 0.00 0.00 0.00 0.00 0.00 0.00 0.01 0.01 0.01 0.01 0.02 0.03
0.03 0.02 0.02 0.02 0.01 0.01 0.02 0.02 0.02 0.02 0.01 0.01 0.01 0.02 0.01 0.01 0.01 0.02 0.03 0.05 0.04 0.02 0.01 0.00 0.01 0.01 0.00 0.00 0.00 0.00 0.00 0.00 0.00 0.00 0.00 0.00 0.00 0.00 0.01 0.01 0.01 0.01 0.02 0.03
0.06 0.03 0.02 0.02 0.01 0.02 0.03 0.03 0.02 0.01 0.01 0.01 0.01 0.01 0.01 0.01 0.01 0.01 0.02 0.02 0.01 0.00 0.01 0.01 0.00 0.00 0.00 0.00 0.00 0.00 0.00 0.00 0.00 0.00 0.00 0.00 0.00 0.00 0.00 0.00 0.00 0.01 0.01 0.01
0.10 0.06 0.03 0.03 0.03 0.03 0.03 0.02 0.01 0.01 0.01 0.01 0.01 0.01 0.01 0.01 0.01 0.00 0.00 0.00 0.00 0.00 0.00 0.00 0.00 0.00 0.00 0.00 0.00 0.00 0.00 0.00 0.00 0.00 0.00 0.00 0.00 0.00 0.00 0.00 0.00 0.00 0.00 0.00
0.08 0.07 0.04 0.04 0.05 0.04 0.04 0.02 0.02 0.01 0.01 0.01 0.01 0.00 0.00 0.00 0.00 0.00 0.00 0.00 0.00 0.00 0.00 0.00 0.00 0.00 0.00 0.00 0.00 0.00 0.00 0.00 0.00 0.00 0.00 0.00 0.00 0.00 0.00 0.00 0.00 0.00 0.00 0.00
0.13 0.13 0.09 0.06 0.05 0.04 0.03 0.02 0.02 0.03 0.02 0.02 0.01 0.01 0.01 0.00 0.00 0.00 0.00 0.00 0.00 0.00 0.00 0.00 0.00 0.00 0.00 0.00 0.00 0.00 0.00 0.00 0.00 0.00 0.00 0.00 0.00 0.00 0.00 0.00 0.00 0.00 0.00 0.00
0.21 0.18 0.13 0.11 0.08 0.04 0.02 0.02 0.02 0.03 0.02 0.02 0.02 0.01 0.01 0.01 0.00 0.00 0.00 0.00 0.00 0.00 0.00 0.00 0.00 0.00 0.00 0.00 0.00 0.00 0.01 0.01 0.01 0.00 0.00 0.00 0.00 0.00 0.00 0.00 0.01 0.00 0.00 0.00

GEFSNGP_prec_meanprecacc_138.txt.gz
Total_Precipitation_Accumulation
0.34 0.35 0.34 0.33 0.27 0.25 0.26 0.30 0.58 0.91 1.25 1.66 1.83 1.75 1.69 1.63 1.42 1.14 1.01 0.97 0.95 0.94 0.92 0.86 0.79 0.74 0.70 0.66 0.64 0.67 0.69 0.66 0.59 0.50 0.47 0.46 0.47 0.48 0.47 0.43 0.40 0.38 0.34 0.31
0.30 0.25 0.30 0.36 0.36 0.38 0.42 0.46 0.63 0.99 1.49 1.90 1.98 1.82 1.74 1.68 1.54 1.36 1.27 1.20 1.15 1.09 1.05 1.02 0.94 0.84 0.77 0.74 0.73 0.77 0.81 0.83 0.78 0.71 0.65 0.60 0.54 0.48 0.42 0.38 0.32 0.25 0.20 0.18
0.48 0.30 0.43 0.73 0.59 0.50 0.54 0.61 0.80 1.23 1.55 1.63 1.71 1.75 1.79 1.84 1.76 1.59 1.49 1.42 1.36 1.31 1.24 1.19 1.11 1.03 0.97 0.90 0.85 0.84 0.87 0.88 0.83 0.75 0.67 0.57 0.46 0.38 0.34 0.30 0.28 0.25 0.19 0.16
0.51 0.57 1.02 0.99 0.56 0.53 0.64 0.72 0.81 0.99 1.16 1.27 1.28 1.35 1.44 1.55 1.60 1.56 1.44 1.40 1.37 1.33 1.32 1.30 1.20 1.12 1.06 1.00 0.93 0.89 0.91 0.86 0.78 0.66 0.57 0.47 0.39 0.35 0.32 0.29 0.30 0.29 0.24 0.21
0.55 0.80 1.03 0.94 0.53 0.51 0.84 1.23 1.02 0.95 0.88 0.83 0.81 0.91 1.19 1.36 1.39 1.44 1.48 1.47 1.43 1.34 1.25 1.22 1.17 1.12 1.07 1.03 0.95 0.89 0.85 0.74 0.60 0.49 0.44 0.40 0.36 0.34 0.32 0.29 0.28 0.25 0.23 0.22
0.60 0.92 1.22 1.15 0.50 0.35 0.69 1.51 1.22 1.02 0.89 0.81 0.89 1.04 1.10 1.08 1.09 1.17 1.22 1.24 1.17 1.08 1.00 0.98 1.00 0.98 0.94 0.90 0.83 0.75 0.62 0.50 0.42 0.40 0.38 0.37 0.34 0.31 0.29 0.29 0.28 0.23 0.20 0.19
0.70 1.02 1.24 0.62 0.26 0.41 1.08 1.40 1.16 0.99 0.85 0.82 1.00 1.00 0.78 0.74 0.81 0.85 0.90 0.89 0.84 0.83 0.90 0.93 0.87 0.78 0.74 0.71 0.64 0.53 0.44 0.39 0.36 0.33 0.29 0.30 0.32 0.31 0.30 0.29 0.30 0.28 0.26 0.22
0.81 1.11 1.22 0.48 0.31 0.59 0.76 0.67 0.75 0.78 0.74 0.69 0.64 0.53 0.50 0.51 0.55 0.58 0.61 0.63 0.63 0.67 0.75 0.75 0.66 0.61 0.62 0.58 0.48 0.37 0.38 0.39 0.36 0.31 0.24 0.27 0.35 0.35 0.33 0.36 0.39 0.37 0.34 0.31
0.78 0.98 0.80 0.42 0.34 0.37 0.42 0.54 0.54 0.53 0.49 0.38 0.34 0.32 0.35 0.37 0.38 0.42 0.42 0.47 0.52 0.54 0.58 0.60 0.57 0.58 0.61 0.57 0.44 0.41 0.46 0.48 0.38 0.29 0.27 0.29 0.33 0.34 0.33 0.34 0.32 0.30 0.29 0.29
0.50 0.62 0.49 0.38 0.33 0.30 0.30 0.36 0.33 0.34 0.33 0.25 0.24 0.29 0.32 0.35 0.33 0.34 0.37 0.39 0.44 0.45 0.45 0.47 0.46 0.51 0.54 0.47 0.44 0.52 0.59 0.51 0.38 0.34 0.31 0.31 0.29 0.25 0.24 0.26 0.24 0.22 0.21 0.20
0.49 0.55 0.49 0.48 0.31 0.24 0.22 0.21 0.20 0.24 0.25 0.20 0.19 0.27 0.29 0.32 0.33 0.35 0.36 0.37 0.39 0.41 0.40 0.35 0.34 0.38 0.38 0.41 0.48 0.64 0.61 0.48 0.38 0.32 0.29 0.29 0.24 0.16 0.12 0.11 0.09 0.13 0.15 0.14
0.44 0.39 0.45 0.51 0.35 0.22 0.23 0.22 0.21 0.19 0.20 0.23 0.23 0.25 0.25 0.27 0.30 0.32 0.31 0.31 0.36 0.38 0.34 0.33 0.33 0.33 0.33 0.38 0.43 0.55 0.55 0.41 0.32 0.28 0.23 0.19 0.18 0.17 0.09 0.05 0.03 0.03 0.05 0.05
0.22 0.21 0.25 0.24 0.19 0.17 0.19 0.21 0.22 0.21 0.20 0.23 0.25 0.24 0.23 0.23 0.24 0.27 0.30 0.31 0.35 0.36 0.32 0.28 0.29 0.30 0.28 0.29 0.33 0.40 0.41 0.30 0.23 0.21 0.21 0.19 0.17 0.23 0.23 0.11 0.04 0.02 0.03 0.04
0.09 0.12 0.18 0.21 0.22 0.18 0.19 0.21 0.21 0.19 0.21 0.25 0.25 0.22 0.18 0.17 0.20 0.23 0.26 0.23 0.20 0.22 0.24 0.26 0.23 0.21 0.17 0.17 0.24 0.25 0.20 0.12 0.12 0.16 0.15 0.14 0.13 0.14 0.17 0.21 0.21 0.14 0.06 0.04
0.10 0.13 0.19 0.23 0.24 0.20 0.21 0.23 0.22 0.21 0.20 0.22 0.20 0.16 0.13 0.13 0.16 0.16 0.16 0.13 0.15 0.20 0.20 0.18 0.17 0.16 0.11 0.11 0.14 0.14 0.11 0.11 0.10 0.09 0.07 0.07 0.08 0.08 0.07 0.11 0.18 0.21 0.16 0.08
0.14 0.15 0.17 0.22 0.24 0.24 0.24 0.25 0.23 0.20 0.15 0.14 0.13 0.11 0.11 0.11 0.10 0.10 0.10 0.11 0.17 0.20 0.18 0.16 0.16 0.12 0.07 0.07 0.10 0.10 0.08 0.05 0.07 0.07 0.06 0.05 0.05 0.05 0.05 0.07 0.11 0.16 0.16 0.10
0.18 0.18 0.15 0.16 0.18 0.20 0.18 0.14 0.12 0.11 0.09 0.08 0.08 0.07 0.06 0.07 0.08 0.09 0.10 0.11 0.15 0.18 0.16 0.15 0.11 0.06 0.03 0.03 0.06 0.06 0.04 0.02 0.01 0.03 0.05 0.04 0.04 0.04 0.04 0.04 0.08 0.10 0.08 0.06
0.17 0.14 0.12 0.11 0.11 0.10 0.08 0.06 0.06 0.07 0.06 0.03 0.03 0.04 0.05 0.07 0.07 0.07 0.08 0.07 0.10 0.13 0.12 0.07 0.05 0.03 0.02 0.02 0.03 0.03 0.03 0.02 0.02 0.03 0.03 0.02 0.03 0.04 0.04 0.04 0.06 0.07 0.07 0.06
0.09 0.06 0.06 0.06 0.05 0.04 0.03 0.04 0.04 0.04 0.03 0.01 0.02 0.04 0.05 0.05 0.04 0.04 0.05 0.06 0.09 0.11 0.09 0.04 0.02 0.02 0.02 0.02 0.01 0.02 0.01 0.01 0.01 0.01 0.01 0.01 0.01 0.02 0.02 0.03 0.03 0.03 0.05 0.07
0.03 0.02 0.03 0.03 0.02 0.02 0.02 0.03 0.02 0.02 0.02 0.02 0.03 0.03 0.03 0.02 0.02 0.02 0.04 0.07 0.08 0.07 0.04 0.02 0.01 0.02 0.02 0.01 0.01 0.01 0.01 0.01 0.01 0.01 0.01 0.01 0.01 0.01 0.01 0.02 0.01 0.02 0.03 0.04
0.02 0.02 0.02 0.02 0.02 0.02 0.02 0.02 0.02 0.02 0.02 0.02 0.02 0.03 0.02 0.02 0.01 0.02 0.03 0.06 0.06 0.04 0.02 0.01 0.02 0.01 0.01 0.00 0.00 0.00 0.00 0.00 0.00 0.00 0.00 0.00 0.00 0.00 0.01 0.01 0.01 0.01 0.02 0.03
0.03 0.02 0.02 0.02 0.01 0.02 0.02 0.03 0.03 0.02 0.01 0.01 0.01 0.02 0.01 0.01 0.01 0.02 0.03 0.05 0.04 0.02 0.01 0.00 0.01 0.01 0.00 0.00 0.00 0.00 0.00 0.00 0.01 0.00 0.00 0.00 0.01 0.01 0.01 0.01 0.01 0.01 0.02 0.03
0.06 0.03 0.02 0.02 0.01 0.02 0.03 0.03 0.02 0.01 0.01 0.01 0.01 0.01 0.01 0.01 0.01 0.01 0.02 0.02 0.01 0.00 0.01 0.01 0.00 0.00 0.00 0.00 0.00 0.00 0.00 0.00 0.01 0.01 0.01 0.01 0.01 0.01 0.01 0.00 0.00 0.01 0.01 0.01
0.10 0.06 0.03 0.03 0.03 0.03 0.03 0.02 0.01 0.01 0.01 0.01 0.01 0.01 0.01 0.01 0.01 0.00 0.00 0.00 0.00 0.00 0.00 0.00 0.00 0.00 0.00 0.00 0.01 0.01 0.00 0.00 0.00 0.01 0.01 0.01 0.01 0.00 0.00 0.00 0.00 0.00 0.01 0.01
0.08 0.07 0.04 0.04 0.05 0.04 0.04 0.02 0.02 0.01 0.01 0.01 0.01 0.00 0.00 0.00 0.00 0.00 0.00 0.00 0.00 0.00 0.00 0.00 0.00 0.00 0.00 0.00 0.01 0.00 0.00 0.00 0.01 0.01 0.01 0.01 0.01 0.00 0.00 0.01 0.01 0.01 0.01 0.01
0.13 0.13 0.09 0.06 0.05 0.04 0.03 0.02 0.02 0.03 0.02 0.02 0.01 0.01 0.01 0.00 0.00 0.00 0.00 0.00 0.00 0.00 0.00 0.00 0.00 0.00 0.00 0.01 0.01 0.01 0.01 0.01 0.01 0.01 0.01 0.01 0.01 0.01 0.01 0.01 0.01 0.01 0.01 0.01
0.21 0.18 0.13 0.11 0.08 0.04 0.02 0.02 0.02 0.03 0.02 0.02 0.02 0.01 0.01 0.01 0.00 0.00 0.00 0.00 0.00 0.00 0.00 0.00 0.00 0.00 0.00 0.00 0.00 0.01 0.01 0.01 0.01 0.01 0.01 0.01 0.01 0.01 0.01 0.01 0.02 0.02 0.02 0.01

GEFSNGP_prec_meanprecacc_144.txt.gz
Total_Precipitation_Accumulation
0.34 0.36 0.34 0.34 0.28 0.26 0.27 0.31 0.60 0.93 1.26 1.67 1.84 1.76 1.71 1.64 1.43 1.15 1.03 0.99 0.96 0.97 0.95 0.89 0.81 0.76 0.71 0.68 0.67 0.72 0.76 0.76 0.67 0.56 0.52 0.50 0.50 0.51 0.50 0.46 0.43 0.41 0.36 0.33
0.31 0.26 0.30 0.36 0.36 0.38 0.42 0.46 0.63 1.00 1.51 1.91 1.98 1.82 1.74 1.70 1.56 1.39 1.29 1.22 1.18 1.12 1.08 1.05 0.96 0.86 0.78 0.75 0.75 0.80 0.87 0.92 0.90 0.82 0.72 0.66 0.58 0.53 0.48 0.44 0.36 0.27 0.22 0.20
0.49 0.31 0.43 0.74 0.59 0.50 0.55 0.62 0.80 1.25 1.56 1.64 1.71 1.75 1.80 1.85 1.78 1.63 1.52 1.46 1.40 1.35 1.28 1.22 1.14 1.06 1.00 0.93 0.87 0.87 0.91 0.93 0.90 0.83 0.74 0.64 0.53 0.45 0.41 0.36 0.32 0.28 0.22 0.17
0.53 0.58 1.04 0.99 0.57 0.53 0.64 0.73 0.81 1.00 1.16 1.27 1.28 1.35 1.45 1.56 1.62 1.59 1.46 1.42 1.41 1.38 1.36 1.33 1.23 1.15 1.10 1.03 0.96 0.92 0.94 0.90 0.83 0.72 0.63 0.53 0.46 0.42 0.38 0.35 0.34 0.32 0.27 0.23
0.57 0.81 1.04 0.95 0.54 0.52 0.84 1.24 1.02 0.95 0.89 0.83 0.81 0.91 1.20 1.36 1.39 1.45 1.49 1.49 1.45 1.36 1.28 1.25 1.20 1.15 1.09 1.06 0.99 0.92 0.89 0.79 0.65 0.55 0.50 0.47 0.43 0.41 0.38 0.36 0.33 0.29 0.26 0.24
0.62 0.94 1.23 1.16 0.50 0.35 0.70 1.52 1.22 1.02 0.89 0.82 0.89 1.05 1.10 1.09 1.09 1.17 1.23 1.25 1.18 1.09 1.02 1.01 1.03 1.01 0.97 0.93 0.86 0.79 0.66 0.54 0.47 0.43 0.42 0.41 0.40 0.38 0.35 0.34 0.33 0.26 0.22 0.21
0.72 1.04 1.25 0.63 0.26 0.42 1.09 1.41 1.16 0.99 0.85 0.82 1.00 1.00 0.78 0.75 0.82 0.86 0.91 0.90 0.85 0.84 0.91 0.95 0.91 0.82 0.78 0.75 0.69 0.58 0.48 0.43 0.39 0.36 0.32 0.33 0.34 0.34 0.34 0.33 0.34 0.31 0.28 0.24
0.82 1.12 1.24 0.49 0.31 0.59 0.77 0.68 0.75 0.79 0.75 0.69 0.65 0.53 0.50 0.52 0.56 0.59 0.62 0.64 0.64 0.68 0.76 0.77 0.69 0.65 0.67 0.62 0.53 0.43 0.45 0.45 0.41 0.35 0.28 0.30 0.38 0.38 0.35 0.39 0.42 0.40 0.37 0.33
0.79 0.99 0.81 0.43 0.34 0.38 0.42 0.54 0.55 0.54 0.49 0.39 0.35 0.32 0.35 0.38 0.39 0.42 0.43 0.48 0.53 0.55 0.59 0.62 0.60 0.61 0.65 0.60 0.48 0.45 0.53 0.53 0.43 0.34 0.35 0.35 0.37 0.37 0.35 0.36 0.34 0.32 0.31 0.31
0.51 0.62 0.49 0.38 0.34 0.30 0.30 0.36 0.34 0.34 0.33 0.25 0.24 0.29 0.33 0.35 0.34 0.34 0.38 0.40 0.44 0.45 0.46 0.50 0.49 0.53 0.56 0.50 0.47 0.56 0.64 0.55 0.41 0.36 0.35 0.34 0.32 0.28 0.26 0.28 0.27 0.25 0.23 0.21
0.50 0.55 0.50 0.48 0.32 0.24 0.22 0.21 0.20 0.24 0.25 0.20 0.19 0.27 0.29 0.32 0.34 0.35 0.36 0.38 0.40 0.43 0.42 0.37 0.37 0.41 0.39 0.42 0.51 0.67 0.64 0.51 0.41 0.34 0.32 0.31 0.26 0.18 0.14 0.13 0.10 0.14 0.16 0.14
0.45 0.40 0.45 0.51 0.35 0.22 0.23 0.22 0.21 0.19 0.20 0.23 0.23 0.25 0.25 0.27 0.30 0.32 0.31 0.32 0.38 0.39 0.35 0.35 0.36 0.36 0.35 0.39 0.45 0.57 0.57 0.43 0.34 0.30 0.26 0.22 0.20 0.19 0.10 0.06 0.04 0.04 0.05 0.05
0.23 0.21 0.25 0.24 0.19 0.17 0.19 0.21 0.22 0.21 0.20 0.23 0.25 0.24 0.23 0.23 0.24 0.28 0.30 0.32 0.36 0.36 0.33 0.30 0.32 0.33 0.29 0.30 0.34 0.42 0.43 0.32 0.24 0.23 0.23 0.21 0.19 0.24 0.24 0.12 0.04 0.03 0.03 0.04
0.09 0.12 0.18 0.21 0.22 0.18 0.19 0.21 0.21 0.19 0.21 0.25 0.25 0.22 0.18 0.17 0.20 0.24 0.26 0.23 0.21 0.22 0.25 0.27 0.25 0.22 0.18 0.18 0.24 0.25 0.21 0.13 0.13 0.18 0.17 0.15 0.14 0.15 0.17 0.21 0.21 0.14 0.06 0.04
0.10 0.13 0.19 0.23 0.24 0.20 0.21 0.23 0.22 0.21 0.20 0.22 0.20 0.16 0.13 0.14 0.16 0.16 0.16 0.14 0.16 0.21 0.20 0.18 0.18 0.17 0.11 0.11 0.15 0.15 0.12 0.11 0.11 0.10 0.09 0.09 0.09 0.08 0.07 0.11 0.19 0.22 0.17 0.09
0.14 0.15 0.17 0.22 0.24 0.24 0.24 0.25 0.23 0.20 0.15 0.14 0.13 0.11 0.11 0.11 0.11 0.10 0.11 0.11 0.17 0.21 0.18 0.17 0.17 0.12 0.07 0.07 0.10 0.10 0.08 0.05 0.07 0.08 0.07 0.06 0.06 0.05 0.05 0.07 0.12 0.16 0.16 0.11
0.18 0.18 0.15 0.16 0.18 0.20 0.18 0.14 0.12 0.11 0.09 0.09 0.08 0.07 0.06 0.07 0.08 0.10 0.11 0.11 0.16 0.18 0.16 0.15 0.11 0.06 0.03 0.03 0.06 0.06 0.04 0.02 0.02 0.03 0.05 0.04 0.04 0.05 0.04 0.05 0.08 0.11 0.09 0.06
0.17 0.14 0.12 0.11 0.11 0.10 0.08 0.06 0.06 0.07 0.06 0.03 0.03 0.04 0.05 0.07 0.08 0.08 0.08 0.08 0.10 0.13 0.12 0.07 0.05 0.03 0.03 0.02 0.04 0.04 0.03 0.03 0.02 0.03 0.03 0.03 0.03 0.04 0.04 0.05 0.06 0.07 0.07 0.06
0.09 0.06 0.06 0.06 0.05 0.04 0.03 0.05 0.04 0.04 0.03 0.01 0.02 0.04 0.05 0.05 0.04 0.05 0.05 0.06 0.09 0.11 0.09 0.04 0.02 0.02 0.02 0.02 0.02 0.02 0.02 0.01 0.01 0.01 0.01 0.02 0.02 0.02 0.02 0.03 0.03 0.04 0.05 0.07
0.03 0.02 0.03 0.03 0.02 0.02 0.02 0.03 0.03 0.02 0.02 0.02 0.03 0.04 0.04 0.03 0.03 0.03 0.04 0.08 0.09 0.07 0.04 0.02 0.01 0.02 0.02 0.01 0.01 0.01 0.01 0.01 0.01 0.01 0.01 0.01 0.01 0.01 0.01 0.02 0.02 0.02 0.03 0.04
0.02 0.02 0.02 0.02 0.02 0.02 0.02 0.02 0.03 0.03 0.02 0.02 0.03 0.03 0.03 0.02 0.02 0.02 0.04 0.06 0.06 0.04 0.02 0.01 0.02 0.02 0.01 0.00 0.00 0.00 0.00 0.01 0.01 0.01 0.01 0.01 0.01 0.01 0.01 0.01 0.02 0.02 0.03 0.04
0.03 0.02 0.02 0.02 0.01 0.02 0.02 0.03 0.03 0.02 0.02 0.01 0.02 0.02 0.02 0.01 0.01 0.02 0.03 0.05 0.04 0.02 0.01 0.00 0.01 0.01 0.00 0.00 0.00 0.00 0.00 0.01 0.01 0.01 0.00 0.01 0.01 0.02 0.02 0.02 0.02 0.02 0.03 0.03
0.06 0.03 0.02 0.02 0.01 0.02 0.03 0.04 0.02 0.01 0.01 0.01 0.01 0.01 0.01 0.01 0.01 0.01 0.02 0.02 0.01 0.00 0.01 0.01 0.00 0.00 0.00 0.00 0.00 0.01 0.01 0.01 0.01 0.01 0.01 0.01 0.01 0.01 0.01 0.01 0.01 0.02 0.02 0.02
0.10 0.06 0.03 0.03 0.03 0.03 0.03 0.02 0.02 0.01 0.01 0.01 0.01 0.01 0.01 0.01 0.01 0.00 0.00 0.00 0.00 0.00 0.00 0.00 0.00 0.00 0.00 0.00 0.01 0.01 0.01 0.00 0.01 0.01 0.01 0.01 0.01 0.01 0.01 0.01 0.02 0.02 0.02 0.02
0.08 0.07 0.04 0.04 0.05 0.05 0.04 0.02 0.02 0.02 0.01 0.01 0.01 0.00 0.00 0.00 0.00 0.00 0.00 0.00 0.00 0.00 0.00 0.00 0.00 0.00 0.00 0.00 0.01 0.01 0.00 0.00 0.01 0.01 0.01 0.01 0.01 0.01 0.01 0.02 0.02 0.02 0.02 0.02
0.13 0.13 0.09 0.06 0.05 0.04 0.03 0.02 0.02 0.03 0.02 0.02 0.01 0.01 0.01 0.00 0.00 0.00 0.00 0.00 0.00 0.00 0.00 0.00 0.00 0.00 0.00 0.01 0.01 0.01 0.01 0.01 0.01 0.01 0.01 0.01 0.01 0.01 0.01 0.02 0.02 0.03 0.03 0.04
0.21 0.18 0.13 0.11 0.08 0.04 0.02 0.02 0.02 0.03 0.02 0.02 0.02 0.01 0.01 0.01 0.00 0.00 0.00 0.00 0.00 0.00 0.00 0.00 0.00 0.00 0.00 0.00 0.00 0.01 0.01 0.01 0.01 0.01 0.01 0.01 0.01 0.01 0.01 0.02 0.02 0.03 0.04 0.03

GEFSNGP_prec_meanprecacc_150.txt.gz
Total_Precipitation_Accumulation
0.35 0.36 0.35 0.35 0.28 0.26 0.28 0.33 0.63 0.96 1.30 1.70 1.87 1.81 1.74 1.66 1.44 1.16 1.04 1.01 0.98 0.98 0.97 0.91 0.83 0.78 0.73 0.70 0.70 0.75 0.79 0.78 0.70 0.61 0.58 0.57 0.57 0.58 0.57 0.52 0.47 0.44 0.40 0.36
0.32 0.26 0.30 0.36 0.37 0.38 0.43 0.47 0.65 1.02 1.54 1.93 2.00 1.85 1.79 1.72 1.57 1.40 1.30 1.24 1.20 1.14 1.10 1.08 0.99 0.88 0.80 0.78 0.79 0.84 0.90 0.94 0.94 0.87 0.79 0.73 0.65 0.59 0.54 0.49 0.41 0.31 0.26 0.24
0.52 0.31 0.44 0.75 0.59 0.51 0.56 0.63 0.82 1.28 1.61 1.65 1.73 1.81 1.88 1.91 1.81 1.66 1.53 1.47 1.42 1.37 1.31 1.25 1.16 1.09 1.03 0.95 0.90 0.90 0.93 0.95 0.93 0.87 0.79 0.69 0.58 0.50 0.48 0.44 0.39 0.34 0.27 0.21
0.57 0.62 1.09 1.02 0.57 0.53 0.65 0.74 0.83 1.02 1.20 1.30 1.29 1.38 1.47 1.57 1.63 1.60 1.48 1.44 1.43 1.41 1.40 1.37 1.26 1.18 1.12 1.06 1.00 0.95 0.96 0.93 0.85 0.75 0.66 0.57 0.51 0.48 0.46 0.43 0.43 0.41 0.33 0.28
0.61 0.88 1.08 0.96 0.54 0.52 0.86 1.27 1.04 0.97 0.91 0.85 0.82 0.92 1.21 1.37 1.40 1.46 1.50 1.51 1.48 1.40 1.32 1.29 1.23 1.18 1.13 1.09 1.03 0.95 0.91 0.81 0.68 0.58 0.55 0.52 0.49 0.48 0.46 0.43 0.41 0.36 0.32 0.30
0.68 1.01 1.30 1.20 0.51 0.36 0.71 1.56 1.24 1.03 0.91 0.82 0.90 1.08 1.12 1.09 1.10 1.18 1.24 1.26 1.19 1.11 1.05 1.07 1.09 1.06 1.02 0.98 0.91 0.83 0.70 0.56 0.49 0.47 0.46 0.46 0.44 0.43 0.41 0.42 0.41 0.33 0.28 0.28
0.78 1.11 1.32 0.65 0.28 0.44 1.14 1.46 1.18 1.01 0.88 0.84 1.01 1.02 0.79 0.75 0.83 0.87 0.93 0.91 0.86 0.84 0.93 0.99 0.97 0.89 0.86 0.80 0.74 0.62 0.54 0.48 0.44 0.40 0.36 0.37 0.39 0.39 0.40 0.39 0.41 0.39 0.35 0.31
0.88 1.21 1.31 0.51 0.34 0.63 0.81 0.69 0.76 0.80 0.76 0.70 0.65 0.53 0.50 0.52 0.58 0.61 0.64 0.65 0.64 0.69 0.77 0.79 0.72 0.70 0.74 0.68 0.58 0.47 0.50 0.52 0.48 0.41 0.32 0.35 0.45 0.46 0.44 0.47 0.50 0.48 0.44 0.40
0.86 1.06 0.86 0.45 0.36 0.39 0.43 0.55 0.56 0.55 0.50 0.39 0.35 0.32 0.36 0.39 0.40 0.43 0.44 0.49 0.54 0.56 0.60 0.64 0.61 0.64 0.69 0.65 0.53 0.50 0.57 0.57 0.47 0.38 0.39 0.40 0.43 0.43 0.40 0.41 0.39 0.36 0.35 0.35
0.59 0.68 0.52 0.40 0.34 0.30 0.31 0.37 0.34 0.35 0.33 0.25 0.24 0.29 0.34 0.36 0.34 0.34 0.38 0.40 0.45 0.47 0.48 0.51 0.51 0.55 0.60 0.54 0.51 0.62 0.69 0.59 0.43 0.38 0.38 0.37 0.35 0.31 0.29 0.32 0.31 0.29 0.26 0.24
0.57 0.61 0.54 0.52 0.34 0.25 0.23 0.21 0.20 0.25 0.25 0.20 0.19 0.27 0.30 0.32 0.34 0.35 0.36 0.39 0.42 0.44 0.43 0.39 0.40 0.45 0.42 0.45 0.54 0.71 0.69 0.55 0.44 0.37 0.35 0.34 0.28 0.20 0.16 0.15 0.13 0.17 0.18 0.16
0.51 0.46 0.50 0.56 0.39 0.25 0.25 0.24 0.21 0.19 0.20 0.23 0.23 0.25 0.26 0.27 0.31 0.32 0.32 0.34 0.39 0.40 0.37 0.36 0.38 0.38 0.37 0.41 0.47 0.60 0.60 0.46 0.38 0.33 0.29 0.24 0.22 0.20 0.12 0.07 0.05 0.04 0.05 0.05
0.25 0.24 0.28 0.27 0.22 0.20 0.22 0.23 0.23 0.22 0.20 0.23 0.25 0.24 0.23 0.24 0.24 0.28 0.31 0.33 0.37 0.38 0.34 0.31 0.32 0.34 0.31 0.32 0.36 0.44 0.46 0.35 0.27 0.25 0.24 0.23 0.21 0.26 0.26 0.14 0.05 0.03 0.03 0.04
0.11 0.14 0.21 0.23 0.24 0.21 0.22 0.24 0.23 0.20 0.21 0.25 0.26 0.23 0.18 0.17 0.20 0.24 0.26 0.24 0.21 0.22 0.25 0.27 0.25 0.23 0.19 0.19 0.26 0.27 0.22 0.15 0.14 0.19 0.18 0.16 0.15 0.17 0.19 0.23 0.23 0.16 0.07 0.04
0.11 0.14 0.20 0.25 0.27 0.23 0.24 0.26 0.23 0.21 0.20 0.22 0.20 0.16 0.13 0.14 0.16 0.17 0.17 0.15 0.17 0.21 0.21 0.19 0.19 0.18 0.13 0.12 0.15 0.16 0.14 0.12 0.11 0.11 0.10 0.09 0.09 0.08 0.08 0.12 0.20 0.23 0.18 0.09
0.15 0.16 0.18 0.23 0.27 0.27 0.27 0.27 0.24 0.20 0.15 0.14 0.13 0.12 0.11 0.11 0.11 0.11 0.11 0.12 0.18 0.21 0.19 0.17 0.17 0.13 0.08 0.08 0.10 0.10 0.08 0.07 0.08 0.08 0.08 0.06 0.06 0.06 0.06 0.09 0.13 0.17 0.17 0.12
0.18 0.18 0.16 0.17 0.20 0.23 0.20 0.15 0.13 0.11 0.09 0.09 0.08 0.07 0.06 0.07 0.09 0.10 0.11 0.11 0.16 0.18 0.17 0.16 0.12 0.06 0.04 0.04 0.06 0.06 0.04 0.03 0.02 0.03 0.05 0.04 0.04 0.06 0.06 0.06 0.10 0.12 0.10 0.07
0.17 0.15 0.12 0.12 0.13 0.14 0.11 0.07 0.06 0.07 0.06 0.03 0.03 0.04 0.05 0.07 0.08 0.08 0.08 0.08 0.10 0.14 0.13 0.08 0.06 0.04 0.03 0.02 0.04 0.04 0.03 0.03 0.02 0.03 0.03 0.03 0.03 0.05 0.06 0.06 0.08 0.09 0.08 0.07
0.09 0.06 0.06 0.06 0.07 0.07 0.06 0.06 0.05 0.04 0.03 0.01 0.02 0.04 0.05 0.06 0.05 0.05 0.06 0.07 0.10 0.12 0.10 0.05 0.02 0.03 0.03 0.02 0.02 0.02 0.02 0.01 0.01 0.01 0.01 0.02 0.02 0.03 0.04 0.04 0.05 0.06 0.07 0.08
0.03 0.03 0.03 0.04 0.04 0.04 0.05 0.04 0.03 0.02 0.02 0.02 0.03 0.04 0.04 0.03 0.03 0.03 0.05 0.08 0.10 0.08 0.05 0.02 0.02 0.04 0.03 0.01 0.01 0.01 0.01 0.01 0.01 0.01 0.01 0.01 0.01 0.02 0.02 0.03 0.03 0.05 0.06 0.07
0.03 0.02 0.02 0.02 0.03 0.03 0.03 0.03 0.03 0.03 0.02 0.02 0.03 0.03 0.03 0.02 0.02 0.02 0.04 0.07 0.07 0.04 0.02 0.01 0.02 0.02 0.01 0.01 0.00 0.00 0.00 0.01 0.01 0.01 0.01 0.01 0.01 0.01 0.02 0.03 0.04 0.05 0.06 0.07
0.04 0.02 0.03 0.03 0.02 0.03 0.03 0.03 0.03 0.02 0.02 0.01 0.02 0.02 0.02 0.02 0.02 0.02 0.03 0.05 0.04 0.02 0.01 0.00 0.01 0.01 0.00 0.00 0.00 0.00 0.01 0.01 0.01 0.01 0.01 0.01 0.01 0.02 0.03 0.03 0.03 0.04 0.05 0.06
0.07 0.03 0.03 0.03 0.03 0.04 0.04 0.04 0.02 0.01 0.01 0.01 0.01 0.01 0.02 0.02 0.01 0.01 0.02 0.02 0.01 0.00 0.01 0.01 0.00 0.00 0.00 0.00 0.00 0.01 0.01 0.01 0.01 0.01 0.01 0.01 0.01 0.01 0.02 0.02 0.02 0.03 0.04 0.05
0.11 0.06 0.05 0.04 0.05 0.04 0.04 0.03 0.02 0.01 0.01 0.01 0.01 0.01 0.01 0.01 0.01 0.00 0.00 0.00 0.00 0.00 0.00 0.00 0.00 0.00 0.00 0.00 0.01 0.01 0.01 0.00 0.01 0.01 0.01 0.01 0.01 0.01 0.01 0.02 0.02 0.02 0.03 0.03
0.09 0.08 0.07 0.07 0.07 0.06 0.04 0.03 0.02 0.02 0.01 0.01 0.01 0.01 0.00 0.01 0.00 0.00 0.00 0.00 0.00 0.00 0.00 0.00 0.00 0.00 0.00 0.00 0.01 0.01 0.00 0.00 0.01 0.01 0.01 0.01 0.01 0.01 0.01 0.02 0.03 0.03 0.03 0.03
0.14 0.14 0.11 0.08 0.06 0.05 0.03 0.02 0.02 0.03 0.02 0.02 0.01 0.01 0.01 0.00 0.00 0.00 0.00 0.00 0.00 0.00 0.00 0.00 0.00 0.00 0.00 0.01 0.01 0.01 0.01 0.01 0.01 0.01 0.01 0.01 0.01 0.01 0.02 0.02 0.02 0.03 0.04 0.04
0.23 0.20 0.16 0.12 0.08 0.04 0.02 0.02 0.02 0.03 0.03 0.02 0.02 0.01 0.01 0.01 0.00 0.00 0.00 0.00 0.00 0.00 0.00 0.00 0.00 0.00 0.00 0.00 0.00 0.01 0.01 0.01 0.01 0.01 0.01 0.01 0.01 0.01 0.02 0.02 0.03 0.04 0.04 0.03

GEFSNGP_prec_meanprecacc_156.txt.gz
Total_Precipitation_Accumulation
0.37 0.37 0.36 0.36 0.30 0.27 0.29 0.34 0.64 0.97 1.31 1.72 1.89 1.83 1.78 1.70 1.48 1.19 1.07 1.05 1.01 1.01 0.99 0.93 0.85 0.81 0.77 0.76 0.75 0.80 0.82 0.81 0.73 0.64 0.61 0.61 0.61 0.62 0.60 0.55 0.50 0.48 0.43 0.39
0.34 0.27 0.31 0.37 0.37 0.39 0.44 0.48 0.66 1.04 1.56 1.94 2.03 1.89 1.82 1.76 1.60 1.47 1.37 1.29 1.25 1.17 1.14 1.11 1.02 0.90 0.83 0.82 0.83 0.87 0.93 0.98 0.98 0.90 0.81 0.75 0.68 0.62 0.58 0.53 0.44 0.35 0.29 0.26
0.55 0.32 0.46 0.77 0.60 0.51 0.57 0.64 0.82 1.30 1.63 1.67 1.75 1.85 1.92 1.96 1.86 1.72 1.60 1.53 1.48 1.42 1.35 1.28 1.19 1.11 1.05 0.97 0.93 0.92 0.95 0.98 0.95 0.89 0.80 0.71 0.61 0.53 0.51 0.48 0.44 0.39 0.30 0.24
0.61 0.65 1.12 1.04 0.59 0.55 0.66 0.76 0.84 1.04 1.23 1.33 1.33 1.42 1.51 1.61 1.67 1.64 1.50 1.47 1.47 1.46 1.44 1.41 1.29 1.20 1.14 1.07 1.02 0.97 0.98 0.94 0.87 0.76 0.67 0.58 0.52 0.50 0.49 0.46 0.47 0.45 0.38 0.32
0.67 0.93 1.12 0.98 0.56 0.54 0.88 1.30 1.07 1.01 0.95 0.88 0.85 0.95 1.24 1.42 1.45 1.53 1.55 1.53 1.51 1.44 1.36 1.33 1.25 1.20 1.14 1.11 1.05 0.97 0.92 0.82 0.69 0.60 0.56 0.53 0.50 0.49 0.48 0.46 0.44 0.41 0.36 0.34
0.73 1.07 1.35 1.22 0.53 0.37 0.74 1.61 1.28 1.08 0.94 0.86 0.93 1.11 1.15 1.13 1.14 1.23 1.27 1.30 1.23 1.13 1.08 1.10 1.11 1.08 1.04 1.00 0.94 0.85 0.71 0.57 0.50 0.48 0.49 0.49 0.47 0.45 0.44 0.44 0.44 0.37 0.31 0.31
0.82 1.17 1.36 0.68 0.31 0.46 1.18 1.53 1.24 1.05 0.91 0.87 1.05 1.06 0.84 0.79 0.86 0.92 0.95 0.93 0.87 0.86 0.94 1.00 1.00 0.93 0.89 0.83 0.77 0.65 0.56 0.49 0.45 0.42 0.39 0.41 0.42 0.43 0.43 0.42 0.45 0.43 0.40 0.36
0.93 1.26 1.35 0.54 0.36 0.66 0.85 0.74 0.83 0.86 0.81 0.74 0.70 0.57 0.53 0.56 0.61 0.64 0.66 0.67 0.66 0.70 0.78 0.79 0.73 0.74 0.80 0.74 0.62 0.50 0.53 0.54 0.49 0.43 0.36 0.40 0.50 0.49 0.46 0.50 0.54 0.52 0.48 0.43
0.92 1.12 0.89 0.47 0.38 0.42 0.49 0.60 0.61 0.61 0.57 0.46 0.40 0.35 0.37 0.40 0.41 0.44 0.45 0.50 0.55 0.56 0.61 0.65 0.62 0.65 0.71 0.70 0.58 0.54 0.60 0.59 0.48 0.39 0.42 0.45 0.49 0.47 0.42 0.43 0.40 0.37 0.36 0.35
0.64 0.74 0.58 0.47 0.40 0.37 0.37 0.41 0.39 0.39 0.39 0.31 0.28 0.31 0.35 0.38 0.36 0.35 0.39 0.41 0.46 0.48 0.48 0.52 0.52 0.56 0.60 0.55 0.53 0.63 0.71 0.60 0.44 0.39 0.39 0.39 0.38 0.33 0.30 0.32 0.31 0.29 0.27 0.25
0.63 0.67 0.62 0.61 0.42 0.31 0.28 0.26 0.26 0.28 0.29 0.26 0.25 0.31 0.31 0.33 0.35 0.36 0.37 0.39 0.42 0.45 0.44 0.40 0.40 0.45 0.44 0.46 0.55 0.73 0.70 0.56 0.45 0.38 0.35 0.34 0.28 0.21 0.17 0.16 0.13 0.17 0.19 0.17
0.56 0.50 0.57 0.64 0.47 0.31 0.29 0.26 0.24 0.22 0.23 0.27 0.29 0.30 0.28 0.28 0.31 0.33 0.33 0.34 0.40 0.41 0.37 0.36 0.38 0.39 0.38 0.43 0.49 0.62 0.62 0.48 0.39 0.34 0.29 0.24 0.22 0.20 0.12 0.07 0.06 0.05 0.06 0.06
0.29 0.28 0.33 0.33 0.27 0.24 0.24 0.24 0.24 0.23 0.22 0.26 0.29 0.28 0.27 0.25 0.25 0.28 0.31 0.33 0.38 0.38 0.34 0.31 0.32 0.35 0.32 0.33 0.38 0.46 0.48 0.36 0.28 0.25 0.25 0.23 0.21 0.27 0.27 0.14 0.06 0.04 0.04 0.05
0.15 0.20 0.25 0.26 0.27 0.24 0.24 0.26 0.25 0.22 0.23 0.28 0.29 0.27 0.23 0.20 0.21 0.24 0.27 0.25 0.22 0.22 0.25 0.27 0.25 0.24 0.20 0.20 0.27 0.29 0.24 0.16 0.15 0.19 0.18 0.17 0.16 0.18 0.20 0.23 0.24 0.17 0.08 0.05
0.14 0.17 0.22 0.27 0.28 0.26 0.27 0.29 0.27 0.25 0.23 0.25 0.23 0.19 0.16 0.16 0.17 0.17 0.17 0.15 0.17 0.21 0.21 0.19 0.19 0.19 0.13 0.13 0.16 0.17 0.14 0.13 0.12 0.12 0.11 0.10 0.10 0.10 0.10 0.13 0.21 0.24 0.18 0.11
0.16 0.17 0.19 0.24 0.29 0.29 0.29 0.31 0.30 0.25 0.18 0.17 0.16 0.15 0.13 0.12 0.11 0.11 0.11 0.12 0.18 0.21 0.19 0.17 0.18 0.13 0.08 0.08 0.11 0.10 0.09 0.08 0.09 0.09 0.08 0.07 0.07 0.07 0.08 0.10 0.14 0.18 0.19 0.14
0.20 0.20 0.18 0.19 0.21 0.25 0.22 0.18 0.18 0.17 0.14 0.13 0.11 0.09 0.07 0.07 0.09 0.10 0.11 0.12 0.16 0.18 0.17 0.16 0.12 0.06 0.04 0.04 0.06 0.06 0.04 0.03 0.03 0.04 0.06 0.05 0.06 0.07 0.07 0.08 0.12 0.14 0.12 0.09
0.20 0.16 0.14 0.13 0.15 0.16 0.13 0.10 0.10 0.12 0.12 0.09 0.06 0.05 0.06 0.08 0.08 0.08 0.08 0.08 0.10 0.14 0.13 0.08 0.06 0.04 0.03 0.02 0.04 0.04 0.03 0.03 0.03 0.04 0.04 0.04 0.05 0.06 0.07 0.08 0.10 0.11 0.11 0.10
0.11 0.08 0.07 0.07 0.09 0.09 0.08 0.09 0.08 0.09 0.08 0.05 0.04 0.05 0.06 0.06 0.05 0.05 0.06 0.07 0.10 0.13 0.10 0.05 0.03 0.03 0.03 0.02 0.02 0.02 0.02 0.02 0.02 0.03 0.03 0.03 0.04 0.05 0.05 0.06 0.07 0.08 0.10 0.12
0.05 0.04 0.04 0.05 0.05 0.06 0.07 0.08 0.07 0.06 0.05 0.04 0.04 0.05 0.04 0.03 0.03 0.03 0.05 0.09 0.10 0.08 0.05 0.02 0.02 0.04 0.03 0.01 0.01 0.01 0.01 0.01 0.01 0.02 0.02 0.03 0.03 0.04 0.04 0.04 0.05 0.07 0.09 0.11
0.04 0.03 0.03 0.04 0.05 0.05 0.06 0.07 0.06 0.05 0.04 0.03 0.03 0.04 0.03 0.03 0.02 0.02 0.04 0.07 0.07 0.04 0.02 0.01 0.02 0.02 0.01 0.01 0.00 0.00 0.01 0.01 0.02 0.02 0.02 0.03 0.03 0.03 0.03 0.04 0.06 0.07 0.08 0.09
0.06 0.04 0.04 0.04 0.04 0.06 0.06 0.06 0.05 0.04 0.03 0.02 0.02 0.02 0.02 0.02 0.02 0.02 0.03 0.05 0.04 0.02 0.01 0.00 0.01 0.01 0.00 0.00 0.00 0.00 0.01 0.01 0.01 0.01 0.02 0.02 0.02 0.02 0.03 0.04 0.04 0.06 0.07 0.07
0.09 0.06 0.05 0.06 0.06 0.06 0.07 0.06 0.04 0.02 0.02 0.02 0.02 0.01 0.02 0.02 0.01 0.01 0.03 0.02 0.01 0.00 0.01 0.01 0.00 0.00 0.00 0.00 0.01 0.01 0.01 0.01 0.01 0.02 0.01 0.01 0.01 0.02 0.02 0.03 0.03 0.04 0.05 0.06
0.14 0.10 0.08 0.08 0.08 0.07 0.06 0.04 0.02 0.02 0.02 0.01 0.01 0.01 0.02 0.01 0.01 0.00 0.00 0.00 0.00 0.00 0.00 0.00 0.00 0.00 0.00 0.00 0.01 0.01 0.01 0.01 0.01 0.01 0.01 0.01 0.01 0.01 0.02 0.03 0.03 0.03 0.04 0.05
0.11 0.11 0.10 0.10 0.11 0.09 0.06 0.03 0.02 0.02 0.02 0.01 0.01 0.01 0.01 0.01 0.00 0.00 0.00 0.00 0.00 0.00 0.00 0.00 0.00 0.00 0.00 0.01 0.01 0.01 0.01 0.01 0.01 0.01 0.01 0.01 0.01 0.02 0.02 0.03 0.03 0.03 0.04 0.05
0.16 0.17 0.16 0.13 0.10 0.08 0.04 0.03 0.03 0.03 0.03 0.02 0.01 0.01 0.01 0.00 0.00 0.00 0.00 0.00 0.00 0.00 0.00 0.00 0.00 0.00 0.00 0.01 0.01 0.01 0.01 0.01 0.01 0.01 0.01 0.02 0.02 0.02 0.02 0.03 0.03 0.04 0.05 0.05
0.25 0.23 0.21 0.17 0.12 0.06 0.04 0.03 0.03 0.03 0.03 0.02 0.02 0.01 0.01 0.01 0.00 0.00 0.00 0.00 0.00 0.00 0.00 0.00 0.00 0.00 0.01 0.01 0.01 0.01 0.01 0.01 0.02 0.02 0.02 0.02 0.02 0.02 0.02 0.03 0.04 0.05 0.05 0.04

GEFSNGP_prec_meanprecacc_162.txt.gz
Total_Precipitation_Accumulation
0.38 0.38 0.37 0.36 0.30 0.28 0.31 0.35 0.65 0.98 1.31 1.72 1.90 1.84 1.79 1.71 1.49 1.20 1.08 1.06 1.03 1.02 1.02 0.95 0.88 0.83 0.79 0.78 0.77 0.81 0.84 0.83 0.75 0.67 0.64 0.64 0.64 0.64 0.62 0.56 0.53 0.52 0.49 0.44
0.35 0.28 0.32 0.37 0.38 0.40 0.44 0.49 0.67 1.05 1.57 1.95 2.04 1.91 1.84 1.77 1.62 1.48 1.38 1.31 1.26 1.19 1.16 1.14 1.06 0.95 0.87 0.87 0.88 0.89 0.94 1.00 1.01 0.94 0.85 0.79 0.72 0.65 0.61 0.57 0.49 0.40 0.34 0.32
0.56 0.33 0.46 0.77 0.61 0.53 0.58 0.65 0.84 1.31 1.64 1.68 1.77 1.86 1.94 1.98 1.88 1.74 1.63 1.55 1.50 1.45 1.38 1.32 1.24 1.17 1.11 1.03 0.98 0.96 0.97 1.00 1.00 0.94 0.84 0.75 0.65 0.57 0.55 0.53 0.48 0.43 0.35 0.29
0.62 0.65 1.13 1.04 0.59 0.56 0.68 0.77 0.86 1.06 1.24 1.34 1.34 1.44 1.53 1.64 1.69 1.67 1.53 1.49 1.49 1.49 1.47 1.45 1.33 1.24 1.18 1.11 1.07 1.01 1.00 0.96 0.91 0.81 0.70 0.59 0.54 0.52 0.51 0.50 0.50 0.47 0.41 0.36
0.68 0.94 1.13 0.98 0.57 0.55 0.89 1.32 1.09 1.03 0.96 0.91 0.88 0.97 1.27 1.44 1.48 1.57 1.58 1.56 1.54 1.48 1.40 1.36 1.28 1.22 1.16 1.14 1.08 1.00 0.95 0.84 0.72 0.63 0.59 0.55 0.52 0.52 0.51 0.48 0.46 0.44 0.40 0.38
0.74 1.08 1.35 1.23 0.54 0.38 0.75 1.62 1.30 1.10 0.97 0.88 0.98 1.16 1.21 1.19 1.20 1.29 1.33 1.33 1.26 1.17 1.11 1.11 1.13 1.09 1.05 1.03 0.97 0.88 0.73 0.59 0.52 0.50 0.51 0.52 0.50 0.47 0.45 0.46 0.45 0.39 0.34 0.34
0.83 1.18 1.36 0.69 0.33 0.48 1.20 1.55 1.26 1.08 0.95 0.90 1.08 1.11 0.93 0.88 0.97 1.00 1.03 1.00 0.93 0.89 0.96 1.02 1.02 0.95 0.91 0.85 0.79 0.67 0.57 0.51 0.46 0.44 0.41 0.43 0.45 0.44 0.44 0.43 0.46 0.45 0.43 0.39
0.94 1.27 1.36 0.55 0.38 0.68 0.87 0.76 0.85 0.88 0.84 0.78 0.73 0.60 0.60 0.64 0.70 0.70 0.70 0.71 0.69 0.72 0.79 0.81 0.75 0.75 0.81 0.75 0.63 0.52 0.54 0.54 0.51 0.44 0.37 0.42 0.52 0.51 0.47 0.51 0.55 0.54 0.50 0.45
0.94 1.14 0.91 0.49 0.40 0.44 0.51 0.62 0.63 0.63 0.60 0.49 0.44 0.39 0.42 0.45 0.44 0.46 0.46 0.52 0.57 0.58 0.62 0.66 0.63 0.66 0.72 0.71 0.59 0.56 0.61 0.60 0.49 0.40 0.44 0.47 0.52 0.50 0.43 0.43 0.41 0.39 0.37 0.36
0.66 0.75 0.60 0.48 0.42 0.39 0.40 0.43 0.41 0.42 0.43 0.34 0.32 0.34 0.37 0.40 0.38 0.36 0.39 0.42 0.48 0.49 0.49 0.53 0.52 0.56 0.61 0.56 0.55 0.66 0.73 0.62 0.47 0.41 0.41 0.42 0.41 0.36 0.31 0.33 0.32 0.30 0.28 0.26
0.64 0.68 0.64 0.63 0.44 0.34 0.30 0.28 0.28 0.31 0.31 0.27 0.27 0.32 0.32 0.34 0.36 0.38 0.39 0.41 0.44 0.47 0.45 0.40 0.41 0.46 0.44 0.48 0.58 0.77 0.74 0.60 0.49 0.41 0.38 0.36 0.30 0.22 0.18 0.16 0.14 0.18 0.20 0.18
0.58 0.52 0.60 0.67 0.49 0.34 0.33 0.29 0.27 0.24 0.24 0.28 0.30 0.31 0.29 0.28 0.32 0.34 0.35 0.36 0.42 0.42 0.38 0.37 0.38 0.39 0.38 0.43 0.50 0.65 0.65 0.49 0.41 0.37 0.32 0.26 0.23 0.21 0.13 0.08 0.07 0.06 0.07 0.07
0.31 0.30 0.35 0.35 0.29 0.26 0.26 0.26 0.26 0.25 0.24 0.28 0.30 0.29 0.27 0.25 0.25 0.29 0.34 0.35 0.39 0.39 0.34 0.31 0.33 0.35 0.32 0.33 0.38 0.48 0.49 0.37 0.29 0.27 0.27 0.25 0.22 0.28 0.28 0.15 0.07 0.05 0.06 0.06
0.16 0.21 0.26 0.27 0.28 0.25 0.25 0.27 0.25 0.23 0.24 0.29 0.30 0.28 0.23 0.20 0.21 0.25 0.28 0.26 0.23 0.23 0.25 0.27 0.26 0.24 0.20 0.20 0.27 0.29 0.25 0.18 0.17 0.21 0.20 0.18 0.17 0.19 0.22 0.25 0.25 0.19 0.10 0.06
0.15 0.18 0.23 0.28 0.29 0.26 0.28 0.29 0.28 0.26 0.24 0.26 0.24 0.20 0.17 0.17 0.17 0.18 0.18 0.16 0.17 0.21 0.21 0.19 0.20 0.19 0.13 0.13 0.16 0.17 0.15 0.14 0.14 0.13 0.11 0.11 0.11 0.11 0.11 0.16 0.25 0.27 0.20 0.12
0.18 0.18 0.20 0.25 0.29 0.30 0.30 0.32 0.31 0.26 0.20 0.18 0.17 0.16 0.14 0.13 0.12 0.12 0.12 0.12 0.18 0.21 0.19 0.18 0.18 0.14 0.09 0.09 0.11 0.11 0.10 0.09 0.10 0.09 0.09 0.08 0.08 0.09 0.10 0.14 0.17 0.20 0.20 0.14
0.22 0.22 0.19 0.19 0.22 0.25 0.23 0.19 0.19 0.19 0.15 0.14 0.12 0.10 0.09 0.09 0.10 0.11 0.11 0.12 0.16 0.18 0.17 0.16 0.13 0.07 0.04 0.04 0.07 0.07 0.05 0.04 0.04 0.05 0.07 0.07 0.07 0.08 0.09 0.10 0.13 0.15 0.13 0.10
0.22 0.19 0.15 0.14 0.15 0.17 0.14 0.11 0.11 0.14 0.13 0.09 0.06 0.06 0.07 0.08 0.09 0.08 0.09 0.08 0.10 0.14 0.13 0.09 0.06 0.04 0.03 0.03 0.05 0.04 0.03 0.03 0.03 0.05 0.05 0.05 0.06 0.07 0.09 0.10 0.11 0.12 0.11 0.10
0.12 0.09 0.09 0.08 0.09 0.09 0.10 0.10 0.09 0.10 0.09 0.05 0.04 0.06 0.06 0.06 0.05 0.06 0.06 0.07 0.10 0.13 0.11 0.05 0.03 0.03 0.03 0.02 0.02 0.03 0.02 0.02 0.02 0.03 0.03 0.04 0.05 0.06 0.06 0.07 0.08 0.09 0.10 0.13
0.06 0.05 0.06 0.06 0.06 0.06 0.08 0.09 0.07 0.07 0.05 0.04 0.04 0.05 0.05 0.04 0.03 0.03 0.05 0.09 0.10 0.08 0.05 0.02 0.02 0.04 0.03 0.01 0.01 0.01 0.01 0.01 0.02 0.02 0.02 0.03 0.04 0.04 0.05 0.05 0.06 0.08 0.10 0.12
0.06 0.05 0.05 0.05 0.05 0.06 0.07 0.07 0.07 0.06 0.04 0.03 0.04 0.04 0.03 0.03 0.02 0.02 0.04 0.07 0.07 0.04 0.02 0.01 0.02 0.02 0.01 0.01 0.00 0.00 0.01 0.01 0.02 0.02 0.02 0.03 0.03 0.03 0.04 0.04 0.06 0.08 0.09 0.10
0.07 0.05 0.05 0.05 0.05 0.07 0.08 0.08 0.07 0.05 0.03 0.02 0.02 0.02 0.02 0.02 0.02 0.02 0.03 0.05 0.04 0.02 0.01 0.00 0.01 0.01 0.00 0.00 0.00 0.00 0.01 0.01 0.01 0.02 0.02 0.02 0.02 0.02 0.04 0.04 0.05 0.07 0.07 0.08
0.10 0.07 0.06 0.06 0.07 0.09 0.09 0.08 0.06 0.03 0.02 0.02 0.02 0.02 0.02 0.02 0.01 0.01 0.03 0.02 0.01 0.00 0.01 0.01 0.00 0.00 0.00 0.00 0.01 0.01 0.01 0.01 0.01 0.02 0.01 0.01 0.02 0.02 0.03 0.03 0.04 0.04 0.05 0.07
0.15 0.11 0.09 0.09 0.10 0.10 0.09 0.07 0.04 0.02 0.02 0.02 0.01 0.01 0.02 0.02 0.01 0.00 0.00 0.00 0.00 0.00 0.00 0.00 0.00 0.00 0.00 0.00 0.01 0.01 0.01 0.01 0.01 0.01 0.01 0.01 0.01 0.02 0.02 0.03 0.03 0.03 0.04 0.05
0.13 0.13 0.13 0.14 0.16 0.14 0.09 0.06 0.04 0.03 0.02 0.02 0.01 0.01 0.01 0.01 0.00 0.00 0.00 0.00 0.00 0.00 0.00 0.00 0.00 0.00 0.00 0.01 0.01 0.01 0.01 0.01 0.01 0.01 0.01 0.02 0.02 0.02 0.02 0.03 0.03 0.03 0.04 0.05
0.20 0.22 0.20 0.15 0.13 0.12 0.08 0.05 0.04 0.04 0.03 0.02 0.02 0.01 0.01 0.00 0.00 0.00 0.00 0.00 0.00 0.00 0.00 0.00 0.00 0.00 0.00 0.01 0.01 0.01 0.01 0.01 0.01 0.01 0.01 0.02 0.02 0.02 0.02 0.03 0.03 0.04 0.05 0.05
0.29 0.27 0.24 0.19 0.14 0.09 0.07 0.06 0.04 0.04 0.03 0.03 0.02 0.01 0.01 0.01 0.00 0.00 0.00 0.00 0.00 0.00 0.00 0.00 0.00 0.00 0.01 0.01 0.01 0.01 0.01 0.01 0.02 0.02 0.02 0.02 0.02 0.02 0.02 0.03 0.04 0.05 0.05 0.04

GEFSNGP_prec_meanprecacc_168.txt.gz
Total_Precipitation_Accumulation
0.39 0.39 0.38 0.37 0.31 0.29 0.32 0.36 0.66 0.98 1.32 1.72 1.90 1.84 1.79 1.71 1.49 1.21 1.10 1.08 1.05 1.04 1.04 0.98 0.91 0.86 0.81 0.80 0.80 0.84 0.86 0.85 0.77 0.69 0.67 0.67 0.67 0.68 0.64 0.59 0.55 0.54 0.51 0.47
0.35 0.29 0.33 0.38 0.38 0.41 0.45 0.50 0.67 1.05 1.57 1.95 2.04 1.91 1.85 1.78 1.63 1.49 1.40 1.32 1.29 1.22 1.19 1.17 1.08 0.97 0.90 0.89 0.90 0.91 0.96 1.01 1.03 0.98 0.90 0.83 0.76 0.69 0.64 0.61 0.53 0.43 0.37 0.36
0.57 0.34 0.47 0.78 0.63 0.55 0.60 0.66 0.85 1.33 1.65 1.69 1.77 1.87 1.95 1.99 1.89 1.76 1.65 1.58 1.53 1.48 1.41 1.34 1.27 1.20 1.15 1.07 1.01 0.98 1.00 1.02 1.02 0.98 0.90 0.81 0.69 0.61 0.60 0.58 0.53 0.47 0.37 0.32
0.63 0.67 1.15 1.06 0.61 0.57 0.71 0.81 0.88 1.07 1.26 1.36 1.36 1.45 1.54 1.65 1.71 1.69 1.56 1.52 1.53 1.52 1.51 1.48 1.36 1.27 1.22 1.15 1.10 1.04 1.03 0.99 0.94 0.85 0.75 0.63 0.57 0.55 0.55 0.54 0.54 0.50 0.43 0.37
0.69 0.96 1.15 1.00 0.57 0.56 0.91 1.35 1.10 1.05 0.98 0.92 0.89 0.99 1.29 1.47 1.51 1.59 1.61 1.60 1.57 1.51 1.44 1.40 1.31 1.25 1.20 1.17 1.10 1.03 0.99 0.88 0.76 0.67 0.63 0.58 0.55 0.54 0.53 0.50 0.49 0.46 0.41 0.40
0.76 1.11 1.38 1.26 0.56 0.40 0.78 1.65 1.32 1.11 0.98 0.89 1.00 1.19 1.25 1.24 1.25 1.33 1.37 1.39 1.31 1.22 1.15 1.16 1.17 1.13 1.08 1.05 0.99 0.92 0.79 0.65 0.56 0.55 0.55 0.55 0.52 0.49 0.48 0.48 0.47 0.41 0.37 0.38
0.85 1.20 1.40 0.72 0.36 0.52 1.26 1.60 1.29 1.10 0.97 0.92 1.10 1.15 0.98 0.96 1.04 1.05 1.09 1.07 0.99 0.94 1.00 1.05 1.05 0.98 0.94 0.88 0.82 0.71 0.62 0.54 0.50 0.48 0.44 0.46 0.46 0.45 0.45 0.45 0.49 0.47 0.45 0.41
0.97 1.30 1.40 0.58 0.41 0.74 0.93 0.79 0.87 0.89 0.85 0.79 0.75 0.64 0.66 0.72 0.77 0.74 0.75 0.76 0.73 0.76 0.82 0.84 0.77 0.78 0.83 0.78 0.66 0.55 0.57 0.57 0.53 0.47 0.39 0.43 0.53 0.52 0.48 0.53 0.57 0.55 0.52 0.46
0.97 1.16 0.94 0.51 0.43 0.48 0.55 0.64 0.64 0.65 0.62 0.51 0.45 0.42 0.49 0.52 0.50 0.50 0.50 0.56 0.59 0.60 0.64 0.68 0.66 0.68 0.74 0.72 0.60 0.57 0.64 0.62 0.51 0.41 0.45 0.48 0.53 0.51 0.45 0.44 0.42 0.40 0.39 0.38
0.67 0.77 0.61 0.50 0.44 0.42 0.42 0.45 0.42 0.43 0.44 0.35 0.33 0.37 0.42 0.45 0.41 0.39 0.41 0.44 0.49 0.51 0.50 0.54 0.54 0.59 0.64 0.58 0.57 0.69 0.75 0.64 0.48 0.42 0.42 0.42 0.42 0.37 0.33 0.34 0.33 0.31 0.29 0.27
0.66 0.69 0.65 0.64 0.45 0.36 0.31 0.29 0.28 0.31 0.32 0.28 0.28 0.34 0.35 0.37 0.38 0.39 0.39 0.41 0.45 0.48 0.46 0.42 0.43 0.48 0.46 0.49 0.60 0.79 0.75 0.61 0.50 0.42 0.39 0.37 0.30 0.23 0.18 0.17 0.15 0.19 0.21 0.19
0.60 0.54 0.62 0.68 0.50 0.36 0.34 0.29 0.27 0.25 0.25 0.29 0.31 0.33 0.31 0.30 0.33 0.36 0.36 0.37 0.43 0.44 0.39 0.39 0.41 0.42 0.41 0.45 0.52 0.68 0.68 0.52 0.43 0.38 0.33 0.27 0.24 0.22 0.14 0.09 0.07 0.07 0.08 0.08
0.32 0.31 0.36 0.36 0.30 0.26 0.26 0.27 0.27 0.25 0.24 0.28 0.31 0.31 0.29 0.27 0.27 0.31 0.35 0.36 0.41 0.41 0.36 0.34 0.35 0.37 0.34 0.34 0.39 0.49 0.52 0.40 0.31 0.28 0.29 0.26 0.24 0.28 0.29 0.16 0.07 0.06 0.07 0.07
0.17 0.21 0.27 0.27 0.28 0.25 0.25 0.27 0.26 0.23 0.25 0.29 0.31 0.29 0.26 0.23 0.23 0.26 0.30 0.27 0.24 0.25 0.28 0.30 0.28 0.26 0.20 0.20 0.27 0.30 0.27 0.19 0.18 0.22 0.22 0.20 0.18 0.19 0.22 0.25 0.26 0.20 0.12 0.08
0.16 0.18 0.24 0.28 0.29 0.26 0.28 0.30 0.28 0.26 0.25 0.27 0.25 0.21 0.19 0.18 0.18 0.19 0.19 0.17 0.19 0.23 0.23 0.21 0.21 0.20 0.14 0.13 0.17 0.18 0.16 0.15 0.14 0.14 0.13 0.13 0.11 0.11 0.12 0.17 0.26 0.28 0.21 0.13
0.19 0.19 0.21 0.25 0.29 0.30 0.30 0.33 0.31 0.27 0.20 0.19 0.18 0.17 0.16 0.14 0.13 0.12 0.13 0.13 0.19 0.23 0.20 0.19 0.19 0.14 0.09 0.09 0.11 0.11 0.10 0.09 0.10 0.10 0.11 0.10 0.09 0.10 0.12 0.15 0.18 0.21 0.21 0.15
0.24 0.23 0.20 0.20 0.22 0.26 0.23 0.20 0.20 0.19 0.16 0.16 0.14 0.12 0.10 0.10 0.11 0.11 0.12 0.13 0.17 0.19 0.18 0.17 0.13 0.07 0.04 0.04 0.07 0.07 0.05 0.04 0.04 0.06 0.08 0.08 0.08 0.10 0.11 0.12 0.15 0.16 0.13 0.11
0.24 0.20 0.17 0.15 0.16 0.18 0.15 0.11 0.11 0.14 0.14 0.13 0.09 0.07 0.08 0.09 0.10 0.10 0.10 0.09 0.11 0.14 0.14 0.10 0.07 0.04 0.03 0.03 0.05 0.05 0.04 0.04 0.03 0.05 0.06 0.06 0.07 0.08 0.09 0.11 0.11 0.12 0.12 0.11
0.13 0.10 0.10 0.10 0.10 0.10 0.11 0.11 0.10 0.11 0.10 0.08 0.07 0.07 0.07 0.07 0.06 0.07 0.07 0.08 0.11 0.13 0.11 0.06 0.03 0.03 0.03 0.02 0.03 0.03 0.02 0.02 0.02 0.03 0.04 0.04 0.05 0.06 0.07 0.07 0.08 0.09 0.11 0.13
0.07 0.06 0.07 0.07 0.06 0.07 0.09 0.10 0.08 0.07 0.06 0.05 0.05 0.06 0.05 0.05 0.04 0.04 0.06 0.09 0.10 0.09 0.06 0.03 0.02 0.04 0.03 0.01 0.01 0.01 0.01 0.01 0.02 0.02 0.03 0.04 0.04 0.04 0.05 0.05 0.06 0.08 0.10 0.13
0.07 0.06 0.06 0.05 0.06 0.07 0.08 0.08 0.07 0.07 0.05 0.03 0.04 0.04 0.04 0.04 0.03 0.03 0.05 0.08 0.07 0.05 0.03 0.01 0.03 0.02 0.01 0.01 0.00 0.00 0.01 0.01 0.02 0.02 0.02 0.03 0.03 0.03 0.04 0.05 0.07 0.08 0.10 0.12
0.08 0.06 0.07 0.07 0.07 0.08 0.09 0.08 0.07 0.06 0.04 0.03 0.03 0.03 0.03 0.03 0.03 0.03 0.04 0.06 0.05 0.02 0.02 0.01 0.01 0.01 0.00 0.00 0.00 0.01 0.01 0.01 0.01 0.02 0.02 0.02 0.02 0.03 0.04 0.05 0.06 0.07 0.08 0.08
0.12 0.09 0.09 0.09 0.09 0.11 0.11 0.09 0.06 0.04 0.03 0.02 0.02 0.02 0.03 0.03 0.02 0.02 0.03 0.03 0.01 0.00 0.02 0.01 0.00 0.00 0.00 0.00 0.01 0.01 0.01 0.01 0.01 0.02 0.01 0.01 0.02 0.02 0.03 0.03 0.04 0.05 0.06 0.07
0.17 0.14 0.12 0.12 0.14 0.15 0.13 0.08 0.05 0.03 0.03 0.02 0.02 0.02 0.03 0.02 0.01 0.01 0.01 0.01 0.00 0.00 0.01 0.00 0.00 0.00 0.00 0.00 0.01 0.01 0.01 0.01 0.01 0.01 0.01 0.01 0.01 0.02 0.02 0.03 0.03 0.03 0.04 0.05
0.16 0.16 0.16 0.17 0.21 0.18 0.13 0.08 0.05 0.04 0.03 0.03 0.02 0.02 0.02 0.01 0.01 0.01 0.01 0.00 0.00 0.00 0.00 0.00 0.00 0.00 0.00 0.01 0.01 0.01 0.01 0.01 0.01 0.01 0.01 0.02 0.02 0.02 0.02 0.03 0.03 0.03 0.04 0.05
0.23 0.25 0.24 0.19 0.17 0.15 0.11 0.07 0.06 0.06 0.05 0.04 0.03 0.02 0.02 0.01 0.01 0.01 0.01 0.00 0.00 0.00 0.00 0.00 0.00 0.00 0.01 0.01 0.01 0.01 0.01 0.01 0.01 0.01 0.01 0.02 0.02 0.02 0.02 0.03 0.03 0.04 0.05 0.05
0.33 0.31 0.28 0.23 0.16 0.12 0.10 0.07 0.07 0.06 0.05 0.04 0.03 0.02 0.01 0.01 0.01 0.01 0.01 0.01 0.00 0.00 0.00 0.00 0.00 0.00 0.01 0.01 0.01 0.01 0.01 0.01 0.02 0.02 0.02 0.02 0.02 0.02 0.02 0.03 0.04 0.05 0.05 0.04

GEFSNGP_prec_meanprecacc_174.txt.gz
Total_Precipitation_Accumulation
0.41 0.41 0.39 0.39 0.33 0.31 0.35 0.39 0.69 1.01 1.36 1.76 1.92 1.86 1.81 1.73 1.51 1.22 1.11 1.10 1.08 1.06 1.06 1.00 0.94 0.91 0.86 0.86 0.85 0.90 0.93 0.91 0.82 0.74 0.72 0.71 0.72 0.71 0.68 0.63 0.59 0.58 0.55 0.51
0.37 0.29 0.34 0.39 0.39 0.42 0.47 0.51 0.69 1.08 1.61 1.98 2.06 1.93 1.87 1.80 1.64 1.51 1.42 1.35 1.32 1.26 1.22 1.19 1.12 1.02 0.95 0.97 0.99 0.99 1.03 1.10 1.11 1.04 0.96 0.89 0.81 0.74 0.71 0.69 0.60 0.50 0.44 0.41
0.58 0.34 0.48 0.80 0.64 0.58 0.64 0.69 0.87 1.36 1.68 1.70 1.79 1.89 1.98 2.01 1.91 1.79 1.68 1.61 1.57 1.51 1.44 1.37 1.31 1.26 1.21 1.14 1.10 1.08 1.10 1.11 1.09 1.06 0.99 0.89 0.79 0.70 0.70 0.68 0.63 0.55 0.43 0.37
0.65 0.70 1.19 1.10 0.62 0.60 0.75 0.85 0.90 1.09 1.28 1.38 1.40 1.50 1.59 1.68 1.74 1.74 1.62 1.56 1.56 1.56 1.55 1.53 1.41 1.33 1.30 1.24 1.18 1.12 1.13 1.09 1.03 0.92 0.82 0.69 0.65 0.64 0.63 0.60 0.60 0.56 0.49 0.42
0.74 1.02 1.20 1.05 0.61 0.59 0.95 1.40 1.14 1.07 1.00 0.95 0.94 1.04 1.34 1.51 1.58 1.73 1.74 1.65 1.61 1.56 1.50 1.46 1.38 1.32 1.27 1.26 1.20 1.14 1.09 0.98 0.86 0.79 0.73 0.66 0.62 0.60 0.58 0.56 0.54 0.52 0.48 0.45
0.80 1.16 1.45 1.33 0.61 0.43 0.82 1.74 1.36 1.14 1.01 0.93 1.05 1.25 1.32 1.30 1.31 1.40 1.46 1.46 1.38 1.28 1.21 1.23 1.24 1.21 1.15 1.13 1.08 1.02 0.87 0.71 0.62 0.62 0.63 0.61 0.57 0.53 0.52 0.53 0.52 0.45 0.41 0.42
0.89 1.25 1.45 0.76 0.39 0.56 1.35 1.70 1.34 1.13 1.00 0.96 1.15 1.21 1.04 1.02 1.09 1.10 1.14 1.12 1.04 0.99 1.05 1.11 1.11 1.04 1.01 0.95 0.89 0.80 0.71 0.59 0.55 0.54 0.51 0.50 0.51 0.50 0.50 0.49 0.53 0.52 0.49 0.45
1.00 1.36 1.46 0.61 0.47 0.82 1.02 0.86 0.90 0.92 0.87 0.82 0.78 0.68 0.71 0.79 0.84 0.80 0.79 0.81 0.78 0.80 0.86 0.88 0.83 0.83 0.90 0.86 0.74 0.64 0.67 0.62 0.58 0.52 0.44 0.47 0.57 0.55 0.53 0.56 0.60 0.59 0.55 0.50
0.99 1.20 0.97 0.54 0.48 0.55 0.59 0.67 0.67 0.67 0.63 0.53 0.48 0.45 0.52 0.56 0.55 0.54 0.54 0.60 0.63 0.63 0.67 0.72 0.70 0.74 0.79 0.79 0.66 0.64 0.71 0.68 0.57 0.47 0.51 0.53 0.57 0.54 0.48 0.47 0.44 0.41 0.41 0.40
0.69 0.78 0.62 0.51 0.48 0.45 0.43 0.46 0.43 0.45 0.46 0.37 0.35 0.39 0.44 0.48 0.44 0.40 0.43 0.46 0.52 0.54 0.54 0.58 0.58 0.63 0.68 0.62 0.61 0.74 0.81 0.71 0.55 0.48 0.47 0.47 0.45 0.39 0.34 0.35 0.33 0.32 0.30 0.29
0.68 0.71 0.67 0.66 0.46 0.37 0.32 0.29 0.29 0.33 0.33 0.30 0.29 0.36 0.36 0.38 0.40 0.40 0.41 0.43 0.47 0.50 0.49 0.45 0.46 0.52 0.49 0.52 0.64 0.84 0.81 0.66 0.53 0.44 0.41 0.38 0.32 0.24 0.19 0.18 0.15 0.20 0.22 0.20
0.63 0.57 0.66 0.71 0.52 0.36 0.34 0.29 0.28 0.26 0.26 0.30 0.32 0.34 0.32 0.31 0.33 0.36 0.38 0.39 0.45 0.46 0.42 0.42 0.45 0.46 0.45 0.48 0.55 0.72 0.72 0.54 0.44 0.39 0.34 0.28 0.25 0.24 0.16 0.11 0.09 0.09 0.09 0.10
0.33 0.32 0.38 0.37 0.31 0.26 0.26 0.27 0.27 0.26 0.25 0.29 0.32 0.32 0.30 0.27 0.27 0.32 0.36 0.38 0.43 0.43 0.39 0.37 0.38 0.40 0.39 0.38 0.43 0.54 0.56 0.42 0.32 0.29 0.29 0.28 0.25 0.30 0.31 0.18 0.10 0.08 0.09 0.10
0.17 0.22 0.27 0.28 0.28 0.25 0.25 0.27 0.26 0.24 0.25 0.30 0.31 0.29 0.27 0.25 0.25 0.28 0.32 0.29 0.26 0.27 0.31 0.34 0.31 0.30 0.26 0.24 0.31 0.33 0.30 0.21 0.18 0.22 0.22 0.21 0.19 0.21 0.24 0.28 0.29 0.23 0.15 0.11
0.16 0.19 0.25 0.29 0.30 0.27 0.28 0.30 0.29 0.27 0.26 0.28 0.25 0.21 0.20 0.20 0.20 0.20 0.20 0.18 0.20 0.25 0.26 0.24 0.25 0.25 0.19 0.17 0.19 0.20 0.18 0.16 0.14 0.14 0.13 0.13 0.13 0.13 0.14 0.19 0.28 0.30 0.22 0.14
0.19 0.20 0.21 0.26 0.30 0.30 0.30 0.33 0.32 0.27 0.22 0.20 0.19 0.18 0.17 0.15 0.14 0.14 0.14 0.15 0.21 0.25 0.22 0.21 0.22 0.17 0.12 0.12 0.14 0.14 0.11 0.10 0.11 0.11 0.11 0.10 0.10 0.11 0.13 0.16 0.20 0.22 0.21 0.16
0.25 0.24 0.22 0.21 0.23 0.27 0.24 0.20 0.20 0.20 0.17 0.17 0.15 0.13 0.11 0.10 0.12 0.13 0.14 0.14 0.19 0.21 0.19 0.18 0.16 0.09 0.06 0.07 0.10 0.09 0.05 0.04 0.05 0.07 0.09 0.09 0.09 0.10 0.11 0.12 0.16 0.17 0.14 0.12
0.25 0.22 0.18 0.17 0.18 0.18 0.17 0.12 0.12 0.15 0.15 0.13 0.10 0.08 0.08 0.10 0.11 0.11 0.12 0.11 0.13 0.16 0.15 0.11 0.09 0.06 0.04 0.04 0.07 0.06 0.05 0.04 0.04 0.06 0.06 0.07 0.07 0.08 0.10 0.11 0.12 0.13 0.13 0.12
0.13 0.11 0.10 0.10 0.11 0.11 0.12 0.12 0.10 0.11 0.11 0.09 0.07 0.07 0.09 0.08 0.08 0.09 0.09 0.10 0.12 0.15 0.12 0.07 0.04 0.04 0.03 0.03 0.03 0.04 0.04 0.03 0.03 0.04 0.04 0.04 0.05 0.07 0.07 0.07 0.08 0.10 0.12 0.14
0.07 0.07 0.08 0.08 0.08 0.09 0.11 0.11 0.08 0.08 0.07 0.06 0.06 0.06 0.07 0.06 0.06 0.07 0.08 0.11 0.12 0.10 0.07 0.04 0.03 0.04 0.03 0.02 0.02 0.02 0.02 0.02 0.02 0.03 0.03 0.04 0.04 0.05 0.05 0.05 0.06 0.08 0.11 0.13
0.07 0.06 0.07 0.07 0.08 0.08 0.10 0.10 0.08 0.07 0.06 0.04 0.04 0.05 0.05 0.05 0.05 0.06 0.07 0.09 0.08 0.06 0.04 0.02 0.04 0.03 0.02 0.01 0.01 0.01 0.01 0.02 0.02 0.02 0.02 0.03 0.03 0.03 0.04 0.05 0.07 0.09 0.11 0.12
0.08 0.07 0.07 0.08 0.08 0.10 0.11 0.09 0.08 0.06 0.05 0.04 0.03 0.04 0.04 0.05 0.05 0.06 0.06 0.07 0.05 0.02 0.03 0.02 0.02 0.01 0.01 0.01 0.01 0.01 0.01 0.01 0.02 0.02 0.02 0.02 0.02 0.03 0.04 0.05 0.06 0.08 0.08 0.08
0.13 0.10 0.10 0.11 0.12 0.13 0.12 0.09 0.07 0.06 0.05 0.03 0.03 0.03 0.05 0.05 0.05 0.04 0.04 0.03 0.02 0.01 0.03 0.03 0.01 0.01 0.01 0.01 0.01 0.01 0.01 0.01 0.02 0.02 0.01 0.01 0.02 0.02 0.03 0.03 0.04 0.05 0.06 0.07
0.18 0.16 0.15 0.15 0.17 0.17 0.15 0.10 0.06 0.04 0.04 0.03 0.03 0.03 0.05 0.05 0.03 0.02 0.01 0.01 0.01 0.01 0.01 0.01 0.01 0.01 0.01 0.01 0.01 0.01 0.01 0.01 0.01 0.01 0.01 0.01 0.01 0.02 0.02 0.03 0.03 0.03 0.04 0.05
0.17 0.19 0.20 0.22 0.26 0.23 0.17 0.10 0.06 0.05 0.05 0.04 0.04 0.03 0.04 0.02 0.02 0.01 0.01 0.01 0.01 0.01 0.01 0.01 0.01 0.01 0.01 0.01 0.01 0.01 0.01 0.01 0.01 0.01 0.01 0.02 0.02 0.02 0.02 0.03 0.03 0.03 0.05 0.05
0.26 0.30 0.29 0.26 0.25 0.21 0.14 0.09 0.08 0.08 0.07 0.06 0.05 0.03 0.02 0.02 0.02 0.02 0.01 0.01 0.01 0.01 0.01 0.01 0.01 0.01 0.01 0.01 0.01 0.01 0.01 0.01 0.01 0.01 0.01 0.02 0.02 0.03 0.02 0.03 0.03 0.04 0.05 0.06
0.36 0.35 0.33 0.28 0.21 0.15 0.12 0.10 0.09 0.09 0.08 0.07 0.05 0.03 0.02 0.02 0.02 0.02 0.01 0.01 0.01 0.01 0.01 0.01 0.01 0.01 0.01 0.01 0.01 0.01 0.01 0.01 0.02 0.02 0.02 0.02 0.02 0.02 0.02 0.03 0.04 0.05 0.05 0.04

GEFSNGP_prec_meanprecacc_180.txt.gz
Total_Precipitation_Accumulation
0.42 0.41 0.39 0.39 0.34 0.33 0.37 0.40 0.71 1.04 1.42 1.82 1.95 1.89 1.86 1.77 1.54 1.24 1.13 1.12 1.11 1.10 1.09 1.04 1.00 0.98 0.90 0.89 0.92 1.05 1.04 0.98 0.88 0.79 0.78 0.78 0.77 0.77 0.74 0.70 0.65 0.63 0.61 0.57
0.38 0.30 0.34 0.40 0.40 0.43 0.49 0.53 0.73 1.14 1.69 2.04 2.10 1.96 1.90 1.85 1.68 1.53 1.43 1.36 1.33 1.28 1.26 1.23 1.17 1.15 1.05 1.04 1.06 1.08 1.14 1.19 1.18 1.09 1.02 0.98 0.89 0.80 0.77 0.74 0.65 0.55 0.49 0.47
0.61 0.35 0.49 0.83 0.67 0.61 0.67 0.74 0.93 1.45 1.77 1.78 1.85 1.94 2.03 2.08 1.96 1.82 1.69 1.62 1.58 1.53 1.46 1.40 1.34 1.32 1.29 1.22 1.19 1.17 1.18 1.20 1.17 1.12 1.06 1.00 0.90 0.79 0.77 0.76 0.72 0.66 0.54 0.46
0.68 0.72 1.23 1.13 0.64 0.62 0.79 0.90 0.97 1.17 1.34 1.44 1.48 1.58 1.66 1.76 1.82 1.80 1.65 1.58 1.58 1.59 1.57 1.55 1.44 1.37 1.34 1.29 1.24 1.21 1.21 1.16 1.09 1.00 0.91 0.82 0.79 0.75 0.72 0.69 0.69 0.66 0.58 0.51
0.76 1.03 1.23 1.07 0.63 0.60 0.99 1.47 1.18 1.11 1.04 0.99 0.99 1.11 1.42 1.60 1.67 1.81 1.79 1.69 1.65 1.59 1.53 1.49 1.41 1.36 1.32 1.31 1.28 1.21 1.18 1.07 0.93 0.87 0.83 0.75 0.72 0.67 0.63 0.60 0.58 0.55 0.50 0.47
0.83 1.19 1.49 1.36 0.63 0.45 0.86 1.83 1.42 1.20 1.05 0.96 1.09 1.31 1.39 1.38 1.39 1.47 1.54 1.54 1.43 1.32 1.25 1.27 1.28 1.25 1.22 1.19 1.14 1.08 0.93 0.78 0.69 0.70 0.71 0.66 0.62 0.58 0.55 0.54 0.53 0.46 0.42 0.42
0.92 1.29 1.50 0.80 0.41 0.58 1.39 1.80 1.41 1.18 1.03 0.98 1.19 1.26 1.09 1.06 1.14 1.16 1.20 1.17 1.09 1.04 1.09 1.15 1.15 1.09 1.06 1.00 0.94 0.86 0.78 0.67 0.62 0.59 0.56 0.55 0.53 0.53 0.52 0.50 0.54 0.52 0.50 0.45
1.01 1.38 1.51 0.64 0.49 0.87 1.08 0.91 0.95 0.95 0.90 0.83 0.80 0.71 0.75 0.82 0.87 0.85 0.85 0.85 0.83 0.85 0.90 0.92 0.87 0.88 0.95 0.90 0.78 0.70 0.74 0.70 0.65 0.56 0.48 0.49 0.59 0.57 0.54 0.58 0.61 0.60 0.56 0.50
1.00 1.22 0.99 0.56 0.53 0.61 0.65 0.71 0.70 0.69 0.64 0.54 0.50 0.47 0.58 0.58 0.57 0.57 0.58 0.63 0.67 0.67 0.70 0.76 0.75 0.78 0.83 0.82 0.72 0.71 0.78 0.76 0.64 0.52 0.55 0.56 0.60 0.57 0.50 0.49 0.45 0.42 0.42 0.42
0.71 0.80 0.64 0.53 0.51 0.48 0.45 0.47 0.45 0.46 0.47 0.38 0.36 0.41 0.48 0.50 0.47 0.43 0.45 0.48 0.55 0.56 0.56 0.60 0.62 0.66 0.70 0.64 0.64 0.79 0.86 0.78 0.61 0.51 0.50 0.50 0.49 0.42 0.36 0.36 0.35 0.34 0.33 0.31
0.70 0.73 0.69 0.68 0.48 0.38 0.33 0.30 0.30 0.33 0.34 0.31 0.30 0.38 0.39 0.41 0.42 0.42 0.42 0.45 0.49 0.52 0.50 0.47 0.49 0.54 0.51 0.53 0.66 0.88 0.84 0.70 0.57 0.46 0.43 0.41 0.34 0.26 0.22 0.20 0.18 0.23 0.24 0.22
0.64 0.58 0.69 0.74 0.53 0.37 0.34 0.30 0.28 0.26 0.27 0.31 0.33 0.37 0.35 0.33 0.35 0.38 0.39 0.41 0.47 0.48 0.43 0.43 0.46 0.48 0.47 0.49 0.57 0.75 0.75 0.57 0.46 0.40 0.36 0.30 0.27 0.25 0.17 0.12 0.10 0.09 0.10 0.11
0.34 0.33 0.40 0.39 0.32 0.27 0.27 0.27 0.28 0.27 0.26 0.30 0.34 0.34 0.32 0.30 0.29 0.33 0.38 0.39 0.44 0.44 0.40 0.39 0.40 0.42 0.41 0.40 0.44 0.56 0.60 0.44 0.33 0.31 0.31 0.28 0.26 0.31 0.31 0.19 0.11 0.09 0.09 0.10
0.18 0.23 0.28 0.29 0.30 0.26 0.26 0.27 0.27 0.25 0.26 0.31 0.33 0.31 0.30 0.28 0.26 0.29 0.32 0.30 0.27 0.28 0.32 0.35 0.33 0.32 0.27 0.25 0.32 0.35 0.32 0.23 0.19 0.23 0.23 0.21 0.19 0.21 0.25 0.29 0.29 0.23 0.15 0.12
0.17 0.20 0.26 0.30 0.31 0.27 0.28 0.30 0.29 0.28 0.27 0.29 0.27 0.25 0.24 0.22 0.21 0.21 0.21 0.18 0.21 0.26 0.26 0.25 0.26 0.28 0.20 0.18 0.20 0.21 0.19 0.17 0.15 0.15 0.14 0.14 0.13 0.14 0.15 0.19 0.28 0.30 0.22 0.14
0.20 0.21 0.22 0.27 0.31 0.31 0.31 0.34 0.33 0.28 0.23 0.23 0.22 0.22 0.20 0.17 0.15 0.14 0.14 0.15 0.21 0.25 0.23 0.22 0.23 0.18 0.14 0.14 0.16 0.15 0.12 0.10 0.11 0.11 0.12 0.11 0.11 0.12 0.14 0.16 0.20 0.22 0.21 0.16
0.27 0.25 0.22 0.22 0.24 0.27 0.25 0.22 0.22 0.21 0.19 0.19 0.17 0.16 0.13 0.12 0.12 0.13 0.14 0.15 0.20 0.22 0.20 0.19 0.18 0.10 0.08 0.09 0.11 0.10 0.06 0.05 0.05 0.07 0.10 0.10 0.09 0.10 0.11 0.12 0.16 0.17 0.15 0.12
0.26 0.22 0.19 0.18 0.18 0.20 0.19 0.18 0.15 0.17 0.18 0.15 0.12 0.10 0.09 0.11 0.12 0.12 0.12 0.11 0.13 0.16 0.15 0.12 0.10 0.07 0.06 0.06 0.08 0.07 0.05 0.05 0.05 0.06 0.07 0.07 0.07 0.08 0.10 0.11 0.12 0.13 0.14 0.12
0.14 0.11 0.11 0.11 0.11 0.12 0.14 0.16 0.12 0.13 0.14 0.11 0.09 0.08 0.09 0.09 0.08 0.10 0.10 0.11 0.13 0.15 0.13 0.08 0.05 0.05 0.05 0.04 0.04 0.05 0.04 0.04 0.04 0.04 0.04 0.05 0.06 0.07 0.07 0.08 0.08 0.10 0.12 0.14
0.08 0.07 0.08 0.08 0.08 0.09 0.12 0.13 0.10 0.09 0.09 0.08 0.07 0.07 0.07 0.06 0.07 0.08 0.09 0.12 0.13 0.10 0.07 0.04 0.03 0.05 0.04 0.03 0.02 0.03 0.03 0.03 0.03 0.03 0.03 0.04 0.05 0.05 0.05 0.05 0.06 0.08 0.12 0.13
0.07 0.07 0.07 0.07 0.08 0.09 0.11 0.11 0.09 0.09 0.08 0.06 0.06 0.06 0.06 0.06 0.06 0.07 0.08 0.10 0.09 0.06 0.04 0.02 0.04 0.03 0.02 0.02 0.02 0.01 0.01 0.02 0.03 0.02 0.02 0.03 0.03 0.03 0.04 0.05 0.07 0.09 0.11 0.12
0.09 0.07 0.07 0.08 0.09 0.11 0.12 0.11 0.09 0.08 0.08 0.06 0.05 0.05 0.05 0.06 0.06 0.07 0.07 0.07 0.06 0.03 0.03 0.03 0.03 0.02 0.01 0.02 0.02 0.01 0.01 0.02 0.02 0.02 0.02 0.03 0.02 0.03 0.04 0.05 0.06 0.08 0.08 0.09
0.14 0.11 0.11 0.12 0.13 0.14 0.13 0.10 0.08 0.07 0.07 0.05 0.05 0.05 0.07 0.07 0.06 0.05 0.05 0.04 0.03 0.02 0.03 0.03 0.01 0.01 0.01 0.02 0.01 0.01 0.01 0.01 0.02 0.02 0.02 0.02 0.02 0.02 0.03 0.04 0.04 0.05 0.06 0.07
0.20 0.17 0.16 0.17 0.18 0.18 0.16 0.11 0.07 0.05 0.06 0.05 0.06 0.06 0.07 0.06 0.04 0.02 0.02 0.02 0.02 0.02 0.02 0.01 0.01 0.01 0.01 0.01 0.01 0.02 0.01 0.01 0.01 0.02 0.02 0.02 0.02 0.02 0.03 0.03 0.04 0.04 0.04 0.05
0.19 0.21 0.22 0.24 0.28 0.25 0.18 0.12 0.08 0.06 0.06 0.06 0.07 0.06 0.06 0.03 0.03 0.02 0.02 0.02 0.02 0.01 0.01 0.01 0.01 0.01 0.01 0.01 0.01 0.01 0.01 0.01 0.02 0.02 0.02 0.02 0.02 0.02 0.03 0.03 0.04 0.04 0.05 0.05
0.28 0.33 0.31 0.29 0.28 0.22 0.15 0.11 0.10 0.10 0.10 0.09 0.08 0.07 0.05 0.03 0.03 0.03 0.02 0.02 0.02 0.02 0.01 0.01 0.01 0.01 0.01 0.02 0.01 0.01 0.01 0.02 0.02 0.02 0.02 0.02 0.03 0.03 0.03 0.04 0.04 0.04 0.05 0.06
0.39 0.39 0.35 0.31 0.24 0.17 0.14 0.12 0.12 0.12 0.12 0.14 0.10 0.06 0.04 0.03 0.04 0.03 0.02 0.02 0.02 0.01 0.01 0.01 0.01 0.01 0.01 0.01 0.01 0.01 0.02 0.02 0.02 0.02 0.02 0.02 0.02 0.02 0.03 0.04 0.04 0.05 0.05 0.04

GEFSNGP_prec_meanprecacc_186.txt.gz
Total_Precipitation_Accumulation
0.42 0.42 0.40 0.40 0.35 0.34 0.38 0.43 0.73 1.06 1.46 1.87 2.02 1.97 1.91 1.80 1.59 1.30 1.17 1.16 1.15 1.13 1.12 1.06 1.01 1.00 0.92 0.91 0.93 1.07 1.08 1.02 0.93 0.84 0.82 0.84 0.83 0.81 0.77 0.73 0.68 0.65 0.63 0.60
0.38 0.30 0.35 0.40 0.41 0.44 0.50 0.55 0.75 1.18 1.74 2.09 2.16 2.02 1.95 1.88 1.72 1.60 1.49 1.39 1.36 1.31 1.29 1.26 1.19 1.16 1.06 1.05 1.07 1.11 1.17 1.24 1.25 1.18 1.09 1.05 0.96 0.85 0.81 0.77 0.67 0.57 0.52 0.51
0.61 0.35 0.49 0.84 0.69 0.64 0.71 0.77 0.97 1.50 1.82 1.83 1.91 2.00 2.08 2.12 2.01 1.88 1.76 1.66 1.62 1.57 1.50 1.42 1.36 1.34 1.31 1.24 1.20 1.21 1.24 1.27 1.24 1.23 1.20 1.12 1.00 0.86 0.81 0.78 0.74 0.70 0.60 0.54
0.68 0.73 1.23 1.15 0.65 0.64 0.83 0.94 1.00 1.21 1.38 1.47 1.51 1.62 1.70 1.81 1.87 1.84 1.69 1.62 1.63 1.62 1.60 1.58 1.46 1.39 1.37 1.32 1.27 1.26 1.27 1.26 1.22 1.12 1.06 0.97 0.90 0.85 0.77 0.72 0.72 0.71 0.66 0.61
0.77 1.04 1.23 1.08 0.64 0.62 1.01 1.51 1.21 1.14 1.07 1.02 1.01 1.14 1.49 1.67 1.72 1.85 1.83 1.72 1.68 1.63 1.56 1.51 1.43 1.38 1.35 1.35 1.31 1.29 1.26 1.17 1.07 0.99 0.95 0.87 0.83 0.76 0.68 0.61 0.60 0.57 0.54 0.51
0.83 1.20 1.50 1.37 0.64 0.46 0.87 1.85 1.45 1.23 1.09 1.00 1.12 1.35 1.44 1.43 1.44 1.51 1.58 1.57 1.46 1.34 1.28 1.29 1.30 1.28 1.26 1.27 1.24 1.19 1.02 0.85 0.77 0.79 0.79 0.75 0.70 0.62 0.57 0.56 0.55 0.48 0.43 0.43
0.92 1.29 1.51 0.80 0.42 0.58 1.40 1.83 1.45 1.22 1.08 1.03 1.23 1.31 1.13 1.08 1.16 1.19 1.23 1.21 1.12 1.05 1.11 1.17 1.17 1.11 1.09 1.06 1.03 0.95 0.87 0.74 0.69 0.68 0.62 0.60 0.58 0.57 0.54 0.51 0.54 0.53 0.50 0.46
1.02 1.38 1.51 0.65 0.50 0.88 1.10 0.95 0.97 0.96 0.91 0.86 0.83 0.75 0.78 0.84 0.90 0.87 0.87 0.89 0.85 0.86 0.91 0.94 0.89 0.91 0.98 0.96 0.85 0.77 0.81 0.76 0.71 0.62 0.51 0.52 0.61 0.59 0.55 0.58 0.62 0.60 0.56 0.50
1.01 1.22 1.00 0.57 0.53 0.62 0.66 0.72 0.71 0.70 0.65 0.56 0.51 0.49 0.59 0.59 0.59 0.59 0.60 0.66 0.69 0.68 0.71 0.78 0.78 0.82 0.88 0.87 0.76 0.74 0.81 0.79 0.67 0.55 0.56 0.57 0.60 0.57 0.50 0.49 0.46 0.43 0.42 0.42
0.71 0.80 0.64 0.54 0.51 0.48 0.45 0.48 0.46 0.47 0.48 0.40 0.38 0.43 0.49 0.51 0.48 0.45 0.46 0.49 0.56 0.58 0.57 0.62 0.65 0.70 0.75 0.68 0.66 0.80 0.88 0.79 0.63 0.53 0.51 0.50 0.49 0.42 0.37 0.37 0.36 0.35 0.33 0.32
0.70 0.73 0.69 0.68 0.48 0.38 0.33 0.30 0.31 0.34 0.36 0.33 0.32 0.38 0.40 0.41 0.43 0.43 0.44 0.46 0.50 0.53 0.51 0.49 0.52 0.58 0.54 0.55 0.67 0.89 0.86 0.72 0.58 0.47 0.43 0.41 0.34 0.27 0.22 0.21 0.19 0.23 0.25 0.23
0.64 0.58 0.69 0.74 0.53 0.37 0.35 0.30 0.29 0.27 0.28 0.33 0.35 0.38 0.35 0.33 0.36 0.38 0.40 0.42 0.49 0.49 0.44 0.45 0.48 0.50 0.48 0.50 0.58 0.77 0.77 0.58 0.47 0.41 0.36 0.30 0.27 0.26 0.18 0.13 0.11 0.09 0.11 0.12
0.34 0.33 0.40 0.39 0.32 0.28 0.27 0.28 0.28 0.27 0.27 0.32 0.35 0.35 0.32 0.30 0.29 0.34 0.39 0.40 0.45 0.45 0.41 0.39 0.41 0.43 0.41 0.40 0.44 0.57 0.60 0.45 0.34 0.31 0.31 0.29 0.27 0.31 0.32 0.19 0.11 0.09 0.10 0.11
0.18 0.23 0.28 0.29 0.31 0.26 0.26 0.28 0.27 0.25 0.27 0.32 0.34 0.32 0.30 0.28 0.27 0.30 0.33 0.31 0.27 0.28 0.32 0.35 0.34 0.33 0.28 0.25 0.32 0.35 0.33 0.24 0.20 0.24 0.23 0.22 0.20 0.22 0.25 0.30 0.30 0.23 0.16 0.12
0.17 0.20 0.26 0.30 0.31 0.28 0.29 0.30 0.29 0.29 0.28 0.30 0.28 0.26 0.24 0.22 0.21 0.21 0.21 0.19 0.21 0.26 0.27 0.25 0.28 0.29 0.21 0.18 0.20 0.21 0.20 0.18 0.16 0.15 0.14 0.14 0.13 0.14 0.15 0.20 0.29 0.30 0.22 0.15
0.21 0.21 0.23 0.27 0.31 0.31 0.31 0.34 0.34 0.30 0.25 0.24 0.23 0.23 0.21 0.18 0.16 0.15 0.15 0.15 0.22 0.25 0.23 0.22 0.24 0.19 0.14 0.15 0.16 0.15 0.13 0.11 0.12 0.12 0.12 0.11 0.11 0.12 0.14 0.17 0.20 0.23 0.22 0.16
0.27 0.26 0.23 0.23 0.25 0.28 0.25 0.23 0.24 0.24 0.22 0.21 0.18 0.17 0.15 0.13 0.14 0.14 0.14 0.15 0.20 0.22 0.20 0.20 0.18 0.11 0.09 0.10 0.12 0.10 0.07 0.06 0.06 0.07 0.10 0.10 0.09 0.10 0.11 0.13 0.16 0.17 0.15 0.12
0.27 0.23 0.20 0.18 0.19 0.20 0.19 0.18 0.17 0.19 0.20 0.16 0.13 0.12 0.12 0.12 0.13 0.12 0.12 0.12 0.14 0.17 0.16 0.13 0.11 0.08 0.07 0.07 0.09 0.07 0.06 0.05 0.05 0.07 0.07 0.07 0.08 0.09 0.10 0.12 0.13 0.13 0.14 0.12
0.15 0.12 0.11 0.11 0.12 0.12 0.14 0.16 0.13 0.14 0.15 0.12 0.10 0.10 0.11 0.10 0.09 0.10 0.10 0.12 0.13 0.15 0.13 0.10 0.07 0.06 0.06 0.05 0.05 0.06 0.05 0.04 0.04 0.05 0.05 0.05 0.06 0.07 0.08 0.08 0.09 0.10 0.12 0.15
0.08 0.08 0.09 0.09 0.09 0.09 0.12 0.13 0.11 0.11 0.10 0.09 0.08 0.08 0.08 0.07 0.07 0.08 0.09 0.13 0.13 0.11 0.09 0.07 0.05 0.06 0.05 0.03 0.03 0.03 0.04 0.04 0.04 0.03 0.03 0.04 0.05 0.05 0.06 0.06 0.07 0.09 0.12 0.14
0.08 0.07 0.07 0.07 0.08 0.09 0.11 0.12 0.10 0.10 0.09 0.07 0.07 0.07 0.07 0.06 0.07 0.08 0.09 0.11 0.10 0.08 0.07 0.04 0.05 0.04 0.03 0.02 0.02 0.02 0.02 0.03 0.03 0.02 0.03 0.04 0.03 0.03 0.04 0.05 0.07 0.09 0.12 0.12
0.10 0.08 0.08 0.09 0.09 0.12 0.13 0.11 0.10 0.09 0.09 0.07 0.06 0.06 0.06 0.06 0.07 0.07 0.07 0.08 0.07 0.04 0.04 0.03 0.03 0.02 0.02 0.02 0.02 0.01 0.02 0.02 0.02 0.02 0.03 0.03 0.02 0.03 0.04 0.05 0.06 0.08 0.09 0.09
0.15 0.12 0.12 0.13 0.13 0.14 0.14 0.11 0.09 0.09 0.09 0.07 0.06 0.06 0.07 0.07 0.07 0.06 0.06 0.04 0.04 0.03 0.04 0.04 0.02 0.01 0.01 0.02 0.01 0.02 0.01 0.01 0.02 0.02 0.02 0.02 0.02 0.02 0.03 0.04 0.05 0.06 0.07 0.08
0.22 0.18 0.17 0.17 0.18 0.19 0.17 0.12 0.08 0.07 0.08 0.08 0.08 0.08 0.08 0.06 0.05 0.03 0.02 0.02 0.02 0.02 0.02 0.02 0.01 0.01 0.01 0.01 0.01 0.02 0.01 0.01 0.02 0.02 0.02 0.02 0.02 0.02 0.03 0.03 0.04 0.04 0.05 0.06
0.21 0.23 0.23 0.24 0.29 0.26 0.19 0.13 0.09 0.08 0.08 0.09 0.09 0.08 0.07 0.04 0.03 0.03 0.02 0.02 0.02 0.02 0.01 0.01 0.01 0.01 0.01 0.01 0.01 0.01 0.01 0.01 0.02 0.02 0.02 0.02 0.02 0.02 0.03 0.03 0.04 0.04 0.05 0.06
0.29 0.35 0.32 0.29 0.28 0.23 0.16 0.12 0.12 0.12 0.11 0.11 0.10 0.09 0.07 0.04 0.04 0.03 0.03 0.03 0.03 0.02 0.01 0.01 0.01 0.01 0.01 0.02 0.01 0.01 0.01 0.02 0.02 0.02 0.02 0.02 0.03 0.03 0.03 0.04 0.05 0.05 0.06 0.06
0.40 0.40 0.36 0.32 0.25 0.19 0.15 0.13 0.14 0.13 0.13 0.15 0.13 0.08 0.06 0.04 0.04 0.04 0.03 0.03 0.02 0.02 0.02 0.01 0.01 0.01 0.01 0.01 0.01 0.01 0.02 0.02 0.02 0.03 0.02 0.02 0.02 0.02 0.03 0.04 0.05 0.06 0.05 0.04

GEFSNGP_prec_meanprecacc_192.txt.gz
Total_Precipitation_Accumulation
0.42 0.42 0.40 0.40 0.35 0.34 0.39 0.44 0.75 1.09 1.50 1.93 2.08 2.03 1.96 1.86 1.64 1.35 1.24 1.25 1.19 1.14 1.15 1.11 1.05 1.03 0.94 0.94 0.96 1.11 1.12 1.06 0.97 0.88 0.85 0.87 0.86 0.84 0.81 0.77 0.71 0.70 0.68 0.65
0.38 0.30 0.35 0.40 0.41 0.44 0.51 0.56 0.77 1.21 1.78 2.13 2.20 2.08 2.02 1.95 1.77 1.64 1.55 1.47 1.41 1.33 1.31 1.30 1.23 1.19 1.08 1.07 1.09 1.13 1.19 1.27 1.27 1.20 1.12 1.09 0.99 0.87 0.84 0.81 0.73 0.62 0.56 0.55
0.61 0.35 0.50 0.85 0.69 0.64 0.72 0.79 0.99 1.53 1.85 1.84 1.93 2.05 2.17 2.22 2.08 1.92 1.81 1.71 1.66 1.60 1.52 1.46 1.40 1.37 1.33 1.25 1.22 1.22 1.27 1.30 1.26 1.25 1.23 1.17 1.04 0.92 0.88 0.85 0.80 0.76 0.63 0.58
0.68 0.73 1.24 1.16 0.65 0.65 0.84 0.96 1.02 1.23 1.39 1.48 1.53 1.66 1.77 1.87 1.93 1.90 1.74 1.66 1.65 1.65 1.64 1.61 1.48 1.42 1.39 1.32 1.28 1.28 1.30 1.29 1.25 1.15 1.11 1.03 0.97 0.95 0.89 0.81 0.78 0.75 0.69 0.63
0.77 1.04 1.24 1.08 0.64 0.62 1.03 1.52 1.22 1.15 1.08 1.02 1.02 1.16 1.52 1.70 1.76 1.88 1.88 1.76 1.70 1.65 1.58 1.53 1.46 1.40 1.37 1.36 1.33 1.31 1.28 1.19 1.12 1.04 0.99 0.92 0.91 0.84 0.75 0.68 0.65 0.61 0.57 0.53
0.84 1.21 1.51 1.38 0.64 0.46 0.88 1.88 1.46 1.24 1.09 1.01 1.13 1.38 1.46 1.46 1.46 1.53 1.61 1.62 1.50 1.36 1.29 1.32 1.33 1.32 1.30 1.30 1.27 1.22 1.05 0.89 0.82 0.84 0.84 0.80 0.74 0.67 0.62 0.60 0.59 0.51 0.46 0.45
0.93 1.30 1.52 0.80 0.42 0.59 1.42 1.85 1.45 1.22 1.08 1.03 1.25 1.34 1.16 1.11 1.18 1.21 1.24 1.22 1.14 1.07 1.12 1.19 1.20 1.15 1.13 1.10 1.08 1.00 0.91 0.78 0.73 0.72 0.67 0.64 0.62 0.60 0.57 0.53 0.57 0.55 0.52 0.47
1.03 1.40 1.53 0.65 0.50 0.89 1.12 0.96 0.97 0.97 0.91 0.87 0.84 0.76 0.80 0.86 0.91 0.88 0.88 0.90 0.86 0.86 0.92 0.96 0.93 0.95 1.02 1.00 0.90 0.84 0.87 0.81 0.75 0.66 0.55 0.54 0.64 0.61 0.57 0.60 0.63 0.61 0.57 0.51
1.01 1.23 1.01 0.57 0.53 0.62 0.66 0.73 0.72 0.70 0.66 0.56 0.52 0.50 0.61 0.61 0.61 0.60 0.60 0.67 0.70 0.70 0.73 0.81 0.81 0.84 0.90 0.91 0.80 0.79 0.86 0.84 0.72 0.58 0.59 0.59 0.62 0.59 0.52 0.50 0.47 0.44 0.43 0.43
0.72 0.80 0.64 0.54 0.51 0.48 0.45 0.48 0.46 0.48 0.48 0.41 0.39 0.44 0.51 0.52 0.49 0.45 0.47 0.49 0.57 0.59 0.59 0.66 0.68 0.73 0.78 0.73 0.70 0.83 0.92 0.84 0.67 0.55 0.52 0.51 0.50 0.44 0.38 0.38 0.37 0.36 0.34 0.33
0.70 0.73 0.69 0.68 0.48 0.38 0.33 0.31 0.31 0.34 0.36 0.33 0.33 0.40 0.41 0.42 0.43 0.43 0.44 0.46 0.51 0.55 0.54 0.51 0.54 0.60 0.57 0.58 0.69 0.92 0.89 0.74 0.60 0.48 0.44 0.42 0.35 0.28 0.23 0.21 0.19 0.24 0.25 0.24
0.64 0.59 0.69 0.75 0.53 0.37 0.35 0.31 0.29 0.27 0.29 0.33 0.35 0.38 0.35 0.33 0.36 0.39 0.41 0.42 0.50 0.50 0.45 0.46 0.51 0.53 0.50 0.51 0.60 0.79 0.79 0.60 0.48 0.42 0.37 0.31 0.27 0.26 0.18 0.13 0.11 0.10 0.12 0.13
0.34 0.34 0.40 0.39 0.32 0.28 0.27 0.28 0.29 0.27 0.28 0.32 0.35 0.35 0.32 0.30 0.30 0.34 0.39 0.41 0.46 0.46 0.41 0.41 0.44 0.45 0.43 0.41 0.46 0.59 0.62 0.46 0.35 0.31 0.32 0.29 0.27 0.32 0.33 0.20 0.11 0.09 0.10 0.11
0.18 0.23 0.28 0.29 0.31 0.26 0.26 0.28 0.28 0.26 0.27 0.32 0.35 0.32 0.30 0.28 0.27 0.30 0.33 0.32 0.28 0.29 0.33 0.37 0.36 0.34 0.29 0.26 0.33 0.37 0.34 0.24 0.21 0.24 0.24 0.22 0.20 0.23 0.26 0.30 0.30 0.24 0.16 0.12
0.17 0.20 0.26 0.30 0.31 0.28 0.29 0.31 0.30 0.29 0.28 0.30 0.29 0.27 0.25 0.23 0.22 0.22 0.21 0.19 0.21 0.26 0.28 0.26 0.28 0.30 0.22 0.19 0.21 0.22 0.21 0.19 0.16 0.15 0.14 0.14 0.14 0.15 0.15 0.20 0.29 0.31 0.23 0.15
0.21 0.21 0.23 0.28 0.32 0.32 0.32 0.35 0.34 0.31 0.26 0.24 0.23 0.23 0.21 0.18 0.16 0.15 0.15 0.16 0.22 0.26 0.24 0.23 0.25 0.20 0.16 0.17 0.17 0.16 0.14 0.12 0.13 0.12 0.12 0.11 0.11 0.12 0.14 0.17 0.21 0.23 0.22 0.17
0.27 0.26 0.23 0.23 0.25 0.29 0.26 0.23 0.24 0.24 0.23 0.21 0.19 0.18 0.16 0.14 0.14 0.15 0.15 0.15 0.20 0.22 0.21 0.21 0.19 0.12 0.10 0.10 0.12 0.11 0.08 0.07 0.07 0.08 0.10 0.10 0.10 0.11 0.12 0.13 0.17 0.18 0.15 0.13
0.27 0.23 0.20 0.19 0.19 0.20 0.20 0.19 0.17 0.20 0.20 0.17 0.14 0.13 0.12 0.13 0.14 0.13 0.13 0.12 0.14 0.18 0.17 0.14 0.12 0.09 0.07 0.07 0.09 0.08 0.07 0.07 0.07 0.08 0.08 0.08 0.08 0.09 0.10 0.12 0.13 0.14 0.14 0.13
0.15 0.12 0.12 0.12 0.12 0.12 0.15 0.16 0.14 0.15 0.15 0.12 0.11 0.11 0.12 0.11 0.10 0.10 0.10 0.12 0.14 0.18 0.15 0.12 0.08 0.07 0.06 0.05 0.05 0.06 0.06 0.06 0.06 0.06 0.05 0.05 0.06 0.07 0.08 0.08 0.09 0.11 0.13 0.15
0.09 0.09 0.09 0.09 0.09 0.10 0.12 0.14 0.11 0.11 0.11 0.10 0.09 0.09 0.09 0.08 0.08 0.08 0.09 0.13 0.15 0.13 0.11 0.10 0.06 0.06 0.05 0.04 0.03 0.04 0.05 0.04 0.04 0.04 0.04 0.05 0.05 0.05 0.06 0.06 0.08 0.10 0.13 0.15
0.09 0.08 0.08 0.08 0.09 0.09 0.12 0.12 0.11 0.11 0.09 0.08 0.08 0.08 0.07 0.07 0.07 0.08 0.10 0.12 0.11 0.10 0.09 0.06 0.06 0.04 0.03 0.03 0.02 0.02 0.02 0.03 0.03 0.03 0.03 0.04 0.04 0.04 0.05 0.07 0.09 0.11 0.12 0.13
0.10 0.08 0.08 0.09 0.10 0.13 0.14 0.12 0.10 0.09 0.09 0.08 0.07 0.06 0.07 0.07 0.08 0.09 0.09 0.09 0.09 0.07 0.06 0.05 0.04 0.03 0.02 0.02 0.02 0.02 0.02 0.02 0.03 0.02 0.03 0.03 0.03 0.04 0.06 0.07 0.07 0.08 0.09 0.09
0.16 0.13 0.12 0.13 0.13 0.15 0.14 0.12 0.09 0.09 0.09 0.08 0.07 0.07 0.08 0.09 0.09 0.07 0.06 0.06 0.07 0.05 0.05 0.05 0.03 0.02 0.01 0.02 0.02 0.02 0.01 0.01 0.02 0.02 0.02 0.03 0.03 0.04 0.05 0.05 0.05 0.06 0.07 0.08
0.26 0.21 0.18 0.18 0.18 0.19 0.17 0.13 0.08 0.07 0.08 0.08 0.09 0.09 0.10 0.09 0.07 0.04 0.03 0.05 0.06 0.04 0.03 0.03 0.02 0.01 0.01 0.01 0.02 0.02 0.02 0.01 0.02 0.02 0.02 0.02 0.02 0.03 0.04 0.04 0.04 0.04 0.05 0.06
0.25 0.27 0.24 0.24 0.29 0.26 0.19 0.13 0.09 0.08 0.09 0.09 0.10 0.10 0.09 0.06 0.06 0.05 0.04 0.05 0.04 0.02 0.02 0.01 0.01 0.01 0.01 0.02 0.02 0.01 0.01 0.01 0.02 0.03 0.02 0.02 0.02 0.02 0.03 0.04 0.04 0.04 0.05 0.06
0.32 0.37 0.34 0.30 0.28 0.24 0.16 0.13 0.13 0.12 0.12 0.12 0.11 0.10 0.08 0.06 0.05 0.05 0.04 0.04 0.03 0.02 0.02 0.01 0.01 0.01 0.02 0.02 0.02 0.01 0.02 0.02 0.02 0.02 0.02 0.02 0.03 0.03 0.03 0.04 0.05 0.05 0.06 0.06
0.42 0.42 0.38 0.33 0.25 0.19 0.16 0.14 0.15 0.14 0.14 0.16 0.13 0.09 0.08 0.06 0.05 0.05 0.04 0.04 0.03 0.02 0.02 0.02 0.01 0.02 0.02 0.02 0.02 0.02 0.02 0.02 0.03 0.03 0.03 0.03 0.02 0.03 0.03 0.04 0.05 0.06 0.06 0.05

GEFSNGP_prec_meanprecacc_198.txt.gz
Total_Precipitation_Accumulation
0.42 0.42 0.40 0.40 0.35 0.34 0.39 0.46 0.78 1.14 1.57 1.98 2.11 2.06 2.01 1.91 1.70 1.40 1.30 1.33 1.26 1.21 1.21 1.14 1.10 1.09 1.02 1.01 1.01 1.19 1.18 1.12 1.03 0.93 0.91 0.93 0.93 0.91 0.87 0.82 0.76 0.75 0.73 0.71
0.38 0.30 0.35 0.40 0.41 0.45 0.51 0.56 0.77 1.24 1.82 2.16 2.21 2.09 2.05 1.99 1.82 1.71 1.62 1.54 1.47 1.37 1.35 1.33 1.26 1.22 1.12 1.11 1.13 1.21 1.27 1.32 1.32 1.24 1.17 1.13 1.04 0.93 0.90 0.87 0.79 0.68 0.62 0.62
0.62 0.35 0.50 0.86 0.69 0.65 0.73 0.80 1.00 1.55 1.87 1.85 1.94 2.06 2.19 2.26 2.13 1.98 1.86 1.75 1.69 1.63 1.56 1.50 1.43 1.40 1.35 1.28 1.25 1.26 1.33 1.35 1.31 1.30 1.28 1.23 1.08 0.97 0.94 0.91 0.87 0.83 0.72 0.65
0.69 0.74 1.28 1.18 0.66 0.68 0.86 0.96 1.02 1.24 1.40 1.49 1.54 1.67 1.78 1.91 1.99 1.97 1.79 1.69 1.67 1.68 1.66 1.64 1.52 1.45 1.41 1.35 1.32 1.33 1.35 1.34 1.30 1.19 1.16 1.08 1.01 0.99 0.95 0.88 0.85 0.82 0.77 0.69
0.79 1.07 1.27 1.12 0.65 0.64 1.05 1.55 1.23 1.16 1.09 1.03 1.02 1.18 1.54 1.73 1.79 1.93 1.93 1.81 1.74 1.67 1.60 1.57 1.50 1.43 1.40 1.38 1.37 1.37 1.34 1.25 1.18 1.09 1.04 0.97 0.94 0.88 0.81 0.74 0.71 0.68 0.63 0.57
0.87 1.25 1.55 1.43 0.65 0.46 0.89 1.93 1.48 1.25 1.10 1.01 1.14 1.41 1.50 1.48 1.49 1.56 1.65 1.68 1.55 1.39 1.31 1.34 1.37 1.36 1.33 1.34 1.32 1.29 1.11 0.94 0.88 0.90 0.88 0.84 0.78 0.71 0.67 0.66 0.65 0.56 0.49 0.48
0.96 1.33 1.55 0.83 0.43 0.59 1.46 1.90 1.47 1.23 1.09 1.04 1.26 1.36 1.18 1.13 1.20 1.22 1.26 1.25 1.16 1.09 1.15 1.22 1.23 1.19 1.17 1.13 1.11 1.05 0.94 0.81 0.77 0.76 0.70 0.67 0.65 0.65 0.61 0.57 0.60 0.59 0.56 0.51
1.05 1.43 1.57 0.66 0.51 0.91 1.16 0.98 0.99 0.98 0.92 0.88 0.85 0.77 0.82 0.88 0.92 0.89 0.89 0.92 0.87 0.88 0.95 1.00 0.97 0.97 1.04 1.03 0.93 0.87 0.89 0.83 0.77 0.68 0.56 0.56 0.65 0.63 0.60 0.62 0.66 0.65 0.62 0.56
1.03 1.26 1.03 0.58 0.54 0.63 0.67 0.74 0.72 0.71 0.67 0.58 0.53 0.51 0.61 0.62 0.61 0.60 0.62 0.68 0.71 0.72 0.76 0.85 0.85 0.87 0.93 0.94 0.83 0.81 0.88 0.86 0.74 0.60 0.61 0.60 0.64 0.61 0.54 0.53 0.50 0.46 0.46 0.46
0.72 0.81 0.65 0.54 0.51 0.48 0.45 0.48 0.46 0.48 0.50 0.42 0.41 0.46 0.52 0.52 0.50 0.46 0.48 0.51 0.58 0.61 0.61 0.69 0.71 0.76 0.81 0.75 0.72 0.85 0.95 0.88 0.71 0.59 0.56 0.54 0.52 0.47 0.41 0.41 0.40 0.38 0.36 0.34
0.72 0.75 0.71 0.69 0.48 0.39 0.33 0.31 0.31 0.35 0.38 0.36 0.35 0.41 0.42 0.43 0.43 0.44 0.46 0.48 0.52 0.56 0.55 0.53 0.56 0.63 0.61 0.61 0.71 0.93 0.92 0.78 0.65 0.53 0.47 0.44 0.36 0.29 0.25 0.22 0.20 0.25 0.26 0.24
0.67 0.60 0.70 0.75 0.54 0.37 0.36 0.31 0.29 0.28 0.30 0.34 0.36 0.40 0.36 0.34 0.37 0.40 0.42 0.43 0.51 0.51 0.46 0.48 0.54 0.56 0.53 0.53 0.61 0.81 0.81 0.63 0.52 0.46 0.39 0.32 0.28 0.26 0.18 0.14 0.11 0.10 0.12 0.13
0.35 0.34 0.40 0.39 0.33 0.29 0.28 0.29 0.29 0.28 0.28 0.32 0.36 0.36 0.34 0.32 0.32 0.36 0.40 0.43 0.47 0.46 0.42 0.44 0.48 0.49 0.46 0.44 0.48 0.61 0.65 0.50 0.38 0.33 0.33 0.30 0.27 0.32 0.33 0.20 0.12 0.10 0.10 0.11
0.18 0.23 0.29 0.30 0.31 0.26 0.27 0.29 0.28 0.26 0.27 0.32 0.35 0.33 0.32 0.31 0.30 0.33 0.35 0.33 0.29 0.29 0.34 0.40 0.40 0.38 0.31 0.28 0.35 0.39 0.36 0.26 0.22 0.25 0.24 0.22 0.21 0.23 0.26 0.30 0.31 0.25 0.17 0.13
0.17 0.20 0.26 0.30 0.31 0.28 0.29 0.31 0.31 0.30 0.28 0.31 0.29 0.27 0.26 0.25 0.23 0.22 0.22 0.21 0.22 0.27 0.29 0.29 0.32 0.33 0.24 0.21 0.23 0.24 0.23 0.21 0.18 0.16 0.14 0.15 0.14 0.15 0.16 0.21 0.30 0.32 0.24 0.16
0.21 0.21 0.23 0.28 0.32 0.32 0.32 0.35 0.36 0.33 0.27 0.25 0.24 0.24 0.22 0.20 0.17 0.15 0.16 0.16 0.23 0.27 0.26 0.26 0.28 0.22 0.18 0.19 0.19 0.19 0.16 0.13 0.13 0.13 0.13 0.12 0.11 0.12 0.14 0.18 0.22 0.25 0.24 0.17
0.27 0.26 0.24 0.24 0.26 0.30 0.27 0.24 0.26 0.26 0.24 0.22 0.19 0.18 0.16 0.14 0.15 0.16 0.16 0.16 0.22 0.24 0.24 0.25 0.22 0.14 0.10 0.11 0.13 0.13 0.09 0.07 0.07 0.09 0.11 0.10 0.10 0.11 0.12 0.14 0.17 0.19 0.16 0.13
0.27 0.23 0.21 0.21 0.21 0.22 0.20 0.19 0.18 0.20 0.20 0.17 0.14 0.14 0.13 0.14 0.16 0.15 0.14 0.13 0.16 0.21 0.20 0.17 0.14 0.10 0.08 0.07 0.10 0.09 0.08 0.08 0.08 0.09 0.09 0.08 0.09 0.10 0.11 0.13 0.14 0.15 0.15 0.13
0.15 0.12 0.12 0.12 0.13 0.13 0.15 0.17 0.15 0.15 0.16 0.13 0.12 0.12 0.13 0.12 0.11 0.12 0.12 0.14 0.17 0.22 0.19 0.14 0.09 0.08 0.08 0.05 0.05 0.07 0.07 0.06 0.06 0.06 0.05 0.07 0.07 0.08 0.08 0.09 0.11 0.12 0.14 0.17
0.09 0.09 0.10 0.09 0.10 0.10 0.14 0.15 0.12 0.13 0.12 0.11 0.10 0.10 0.10 0.09 0.10 0.11 0.12 0.16 0.19 0.17 0.14 0.12 0.08 0.08 0.07 0.04 0.04 0.05 0.05 0.05 0.04 0.04 0.04 0.05 0.06 0.06 0.07 0.07 0.09 0.12 0.15 0.16
0.10 0.09 0.09 0.08 0.09 0.10 0.13 0.14 0.12 0.12 0.11 0.09 0.10 0.09 0.08 0.08 0.08 0.10 0.13 0.15 0.14 0.12 0.11 0.08 0.08 0.06 0.04 0.03 0.03 0.03 0.03 0.03 0.04 0.03 0.04 0.05 0.04 0.04 0.06 0.07 0.09 0.12 0.13 0.14
0.12 0.10 0.10 0.10 0.11 0.13 0.15 0.12 0.10 0.11 0.13 0.09 0.07 0.07 0.08 0.09 0.10 0.11 0.11 0.11 0.11 0.09 0.08 0.07 0.06 0.04 0.03 0.02 0.02 0.02 0.02 0.03 0.03 0.03 0.04 0.04 0.03 0.04 0.07 0.08 0.08 0.09 0.10 0.11
0.17 0.14 0.13 0.14 0.14 0.16 0.15 0.12 0.10 0.09 0.11 0.09 0.08 0.08 0.11 0.12 0.10 0.09 0.08 0.07 0.08 0.07 0.07 0.06 0.04 0.02 0.02 0.02 0.02 0.02 0.02 0.02 0.02 0.03 0.03 0.03 0.03 0.05 0.06 0.06 0.06 0.07 0.08 0.10
0.27 0.22 0.20 0.19 0.20 0.20 0.18 0.13 0.08 0.08 0.09 0.09 0.09 0.10 0.12 0.11 0.09 0.05 0.04 0.06 0.08 0.05 0.04 0.04 0.03 0.02 0.02 0.02 0.02 0.02 0.02 0.02 0.03 0.03 0.04 0.04 0.03 0.04 0.05 0.05 0.05 0.05 0.06 0.08
0.26 0.28 0.26 0.26 0.30 0.27 0.20 0.14 0.10 0.10 0.10 0.10 0.11 0.11 0.10 0.08 0.08 0.06 0.05 0.06 0.06 0.04 0.02 0.02 0.02 0.02 0.02 0.02 0.02 0.02 0.02 0.03 0.04 0.04 0.04 0.03 0.03 0.03 0.03 0.04 0.05 0.05 0.06 0.07
0.33 0.39 0.36 0.32 0.30 0.25 0.17 0.13 0.14 0.16 0.15 0.14 0.12 0.11 0.09 0.07 0.07 0.07 0.05 0.05 0.04 0.03 0.02 0.02 0.01 0.02 0.02 0.03 0.03 0.04 0.04 0.04 0.03 0.03 0.03 0.03 0.03 0.03 0.03 0.05 0.05 0.07 0.08 0.08
0.43 0.44 0.41 0.35 0.27 0.20 0.17 0.15 0.16 0.16 0.16 0.18 0.15 0.10 0.08 0.07 0.06 0.07 0.06 0.05 0.04 0.03 0.03 0.02 0.02 0.02 0.03 0.04 0.04 0.03 0.03 0.03 0.03 0.03 0.03 0.03 0.03 0.03 0.04 0.05 0.07 0.08 0.07 0.06

GEFSNGP_prec_meanprecacc_204.txt.gz
Total_Precipitation_Accumulation
0.43 0.42 0.40 0.41 0.36 0.34 0.40 0.46 0.79 1.17 1.61 2.01 2.14 2.09 2.04 1.93 1.72 1.42 1.32 1.36 1.30 1.25 1.26 1.20 1.15 1.18 1.13 1.08 1.05 1.24 1.21 1.17 1.07 0.97 0.97 0.98 0.98 0.95 0.91 0.86 0.80 0.79 0.78 0.74
0.39 0.31 0.35 0.41 0.42 0.45 0.52 0.57 0.78 1.25 1.84 2.18 2.23 2.12 2.07 2.01 1.84 1.73 1.64 1.56 1.52 1.42 1.40 1.39 1.29 1.25 1.18 1.17 1.17 1.25 1.30 1.36 1.38 1.29 1.22 1.18 1.07 0.96 0.94 0.92 0.83 0.72 0.67 0.65
0.63 0.36 0.51 0.87 0.70 0.66 0.74 0.81 1.02 1.59 1.90 1.87 1.95 2.07 2.20 2.27 2.15 1.99 1.88 1.79 1.75 1.68 1.60 1.54 1.47 1.43 1.39 1.32 1.29 1.30 1.36 1.41 1.38 1.36 1.35 1.29 1.12 1.00 0.98 0.94 0.91 0.87 0.76 0.68
0.70 0.75 1.30 1.22 0.67 0.68 0.88 1.02 1.10 1.34 1.46 1.51 1.55 1.68 1.79 1.92 2.01 1.99 1.83 1.73 1.71 1.72 1.69 1.67 1.56 1.49 1.44 1.37 1.34 1.36 1.37 1.38 1.34 1.24 1.24 1.17 1.07 1.03 0.99 0.91 0.88 0.85 0.80 0.72
0.80 1.08 1.30 1.14 0.67 0.69 1.08 1.59 1.29 1.21 1.13 1.04 1.04 1.19 1.55 1.74 1.81 1.95 1.96 1.84 1.77 1.71 1.62 1.58 1.52 1.45 1.41 1.40 1.39 1.39 1.37 1.28 1.21 1.12 1.10 1.03 1.00 0.93 0.84 0.77 0.74 0.71 0.65 0.59
0.88 1.29 1.58 1.45 0.68 0.51 0.92 1.95 1.50 1.27 1.12 1.03 1.16 1.44 1.54 1.50 1.50 1.57 1.66 1.70 1.57 1.41 1.32 1.35 1.38 1.36 1.34 1.34 1.34 1.31 1.13 0.96 0.91 0.92 0.92 0.88 0.81 0.74 0.70 0.67 0.66 0.57 0.50 0.49
0.98 1.37 1.60 0.88 0.46 0.61 1.48 1.91 1.48 1.25 1.10 1.05 1.28 1.41 1.23 1.16 1.22 1.24 1.28 1.25 1.17 1.10 1.16 1.23 1.24 1.19 1.18 1.13 1.13 1.07 0.96 0.83 0.80 0.78 0.73 0.70 0.68 0.67 0.62 0.58 0.61 0.59 0.56 0.51
1.07 1.46 1.62 0.71 0.53 0.94 1.18 0.99 0.99 0.98 0.93 0.89 0.86 0.82 0.86 0.90 0.93 0.90 0.90 0.92 0.88 0.90 0.96 1.01 0.98 0.98 1.04 1.03 0.94 0.88 0.90 0.84 0.79 0.69 0.59 0.59 0.68 0.65 0.60 0.63 0.66 0.65 0.63 0.56
1.05 1.29 1.06 0.59 0.56 0.64 0.69 0.75 0.73 0.73 0.68 0.59 0.54 0.52 0.62 0.64 0.63 0.62 0.63 0.68 0.71 0.73 0.77 0.86 0.86 0.88 0.93 0.94 0.84 0.83 0.89 0.87 0.76 0.62 0.63 0.63 0.65 0.62 0.55 0.53 0.50 0.47 0.47 0.47
0.74 0.84 0.69 0.56 0.52 0.49 0.47 0.49 0.47 0.50 0.51 0.44 0.42 0.47 0.53 0.53 0.50 0.47 0.49 0.52 0.59 0.62 0.62 0.69 0.72 0.77 0.82 0.76 0.73 0.86 0.96 0.89 0.74 0.61 0.57 0.54 0.53 0.47 0.42 0.41 0.40 0.39 0.37 0.35
0.73 0.76 0.72 0.69 0.49 0.40 0.34 0.32 0.33 0.36 0.39 0.37 0.36 0.42 0.43 0.43 0.44 0.45 0.47 0.49 0.54 0.58 0.57 0.54 0.57 0.64 0.61 0.62 0.72 0.95 0.94 0.81 0.68 0.54 0.48 0.44 0.37 0.30 0.25 0.22 0.20 0.25 0.26 0.25
0.68 0.61 0.71 0.76 0.54 0.38 0.36 0.32 0.30 0.29 0.30 0.35 0.37 0.40 0.37 0.35 0.38 0.41 0.43 0.44 0.52 0.52 0.47 0.49 0.55 0.57 0.54 0.54 0.63 0.82 0.84 0.65 0.54 0.46 0.39 0.32 0.28 0.26 0.19 0.14 0.12 0.11 0.12 0.13
0.35 0.34 0.40 0.39 0.33 0.29 0.29 0.29 0.30 0.28 0.28 0.33 0.36 0.36 0.34 0.33 0.33 0.37 0.41 0.45 0.49 0.47 0.43 0.44 0.48 0.49 0.47 0.46 0.50 0.63 0.67 0.50 0.38 0.33 0.33 0.30 0.27 0.32 0.33 0.21 0.12 0.10 0.12 0.13
0.18 0.23 0.29 0.30 0.31 0.27 0.27 0.29 0.29 0.27 0.27 0.32 0.35 0.33 0.32 0.31 0.31 0.34 0.37 0.35 0.31 0.30 0.35 0.41 0.41 0.39 0.33 0.30 0.37 0.41 0.37 0.27 0.23 0.26 0.25 0.23 0.21 0.23 0.26 0.31 0.31 0.25 0.18 0.14
0.17 0.20 0.26 0.30 0.32 0.28 0.30 0.32 0.32 0.31 0.29 0.31 0.29 0.27 0.27 0.25 0.24 0.24 0.25 0.22 0.23 0.28 0.30 0.31 0.34 0.34 0.26 0.23 0.25 0.25 0.25 0.22 0.18 0.17 0.15 0.15 0.14 0.15 0.16 0.21 0.31 0.33 0.26 0.17
0.21 0.21 0.23 0.28 0.32 0.32 0.32 0.36 0.36 0.34 0.28 0.25 0.24 0.24 0.22 0.20 0.19 0.17 0.17 0.18 0.24 0.28 0.27 0.28 0.30 0.23 0.19 0.20 0.21 0.20 0.16 0.14 0.14 0.14 0.13 0.12 0.12 0.13 0.15 0.18 0.22 0.26 0.25 0.18
0.28 0.26 0.24 0.24 0.27 0.30 0.27 0.25 0.27 0.28 0.25 0.23 0.20 0.19 0.17 0.16 0.18 0.19 0.18 0.17 0.23 0.26 0.26 0.26 0.23 0.14 0.12 0.13 0.14 0.13 0.09 0.08 0.09 0.10 0.12 0.11 0.11 0.12 0.13 0.14 0.18 0.20 0.17 0.14
0.27 0.24 0.22 0.21 0.23 0.23 0.21 0.20 0.18 0.20 0.21 0.19 0.16 0.15 0.14 0.15 0.18 0.18 0.17 0.15 0.18 0.22 0.22 0.18 0.15 0.11 0.10 0.09 0.10 0.09 0.08 0.08 0.08 0.10 0.09 0.09 0.10 0.11 0.12 0.13 0.15 0.16 0.16 0.15
0.16 0.13 0.13 0.13 0.14 0.14 0.16 0.18 0.15 0.15 0.17 0.15 0.12 0.13 0.14 0.13 0.13 0.14 0.15 0.16 0.19 0.24 0.20 0.15 0.10 0.09 0.11 0.08 0.06 0.08 0.08 0.07 0.07 0.07 0.06 0.07 0.08 0.09 0.09 0.10 0.12 0.14 0.16 0.19
0.10 0.10 0.11 0.11 0.11 0.12 0.15 0.16 0.13 0.13 0.13 0.12 0.11 0.11 0.12 0.10 0.10 0.12 0.14 0.18 0.20 0.19 0.16 0.14 0.10 0.10 0.10 0.07 0.05 0.06 0.06 0.06 0.05 0.04 0.05 0.06 0.07 0.07 0.08 0.08 0.11 0.14 0.18 0.19
0.11 0.11 0.11 0.11 0.12 0.12 0.14 0.14 0.13 0.13 0.13 0.12 0.12 0.11 0.10 0.09 0.09 0.11 0.14 0.17 0.15 0.14 0.14 0.11 0.11 0.08 0.07 0.06 0.05 0.05 0.04 0.05 0.05 0.04 0.05 0.06 0.05 0.05 0.07 0.08 0.11 0.14 0.16 0.16
0.15 0.14 0.13 0.13 0.13 0.14 0.15 0.13 0.11 0.13 0.15 0.13 0.09 0.08 0.09 0.10 0.11 0.13 0.12 0.13 0.13 0.11 0.11 0.10 0.09 0.06 0.06 0.06 0.04 0.04 0.04 0.04 0.04 0.04 0.04 0.05 0.04 0.05 0.08 0.09 0.10 0.11 0.12 0.13
0.19 0.17 0.17 0.17 0.15 0.17 0.16 0.13 0.11 0.11 0.12 0.12 0.10 0.10 0.12 0.13 0.13 0.12 0.12 0.11 0.12 0.10 0.10 0.09 0.06 0.04 0.04 0.04 0.04 0.04 0.03 0.03 0.03 0.03 0.04 0.04 0.05 0.06 0.06 0.06 0.07 0.09 0.10 0.12
0.28 0.24 0.22 0.21 0.21 0.21 0.19 0.15 0.10 0.09 0.10 0.11 0.14 0.17 0.18 0.16 0.12 0.11 0.13 0.14 0.13 0.09 0.07 0.05 0.04 0.04 0.03 0.02 0.03 0.03 0.03 0.03 0.03 0.04 0.05 0.05 0.04 0.05 0.05 0.05 0.06 0.07 0.08 0.10
0.27 0.29 0.27 0.27 0.32 0.28 0.21 0.16 0.13 0.12 0.12 0.13 0.14 0.14 0.13 0.11 0.10 0.09 0.06 0.07 0.08 0.05 0.03 0.03 0.03 0.03 0.02 0.03 0.03 0.03 0.03 0.04 0.05 0.05 0.04 0.04 0.04 0.04 0.04 0.05 0.07 0.08 0.09 0.09
0.34 0.40 0.37 0.33 0.31 0.25 0.18 0.15 0.16 0.18 0.19 0.18 0.15 0.13 0.11 0.09 0.09 0.08 0.06 0.05 0.05 0.04 0.03 0.02 0.02 0.02 0.03 0.03 0.04 0.05 0.04 0.04 0.04 0.03 0.03 0.03 0.04 0.05 0.05 0.06 0.08 0.09 0.10 0.09
0.44 0.45 0.42 0.36 0.28 0.21 0.18 0.17 0.18 0.18 0.20 0.22 0.20 0.15 0.10 0.08 0.07 0.08 0.06 0.06 0.05 0.04 0.04 0.03 0.03 0.03 0.04 0.05 0.05 0.04 0.03 0.03 0.03 0.04 0.03 0.03 0.03 0.04 0.05 0.08 0.10 0.11 0.09 0.07

GEFSNGP_prec_meanprecacc_210.txt.gz
Total_Precipitation_Accumulation
0.43 0.42 0.41 0.41 0.36 0.35 0.40 0.47 0.81 1.18 1.62 2.02 2.14 2.10 2.05 1.94 1.72 1.42 1.34 1.38 1.32 1.27 1.28 1.22 1.18 1.21 1.18 1.13 1.07 1.25 1.22 1.17 1.07 0.97 0.97 0.99 0.99 0.96 0.92 0.88 0.83 0.82 0.82 0.77
0.39 0.31 0.35 0.41 0.42 0.45 0.52 0.57 0.79 1.25 1.85 2.19 2.24 2.13 2.08 2.01 1.84 1.73 1.65 1.59 1.55 1.45 1.43 1.42 1.34 1.32 1.24 1.21 1.19 1.27 1.31 1.37 1.39 1.29 1.23 1.19 1.09 0.97 0.95 0.93 0.85 0.75 0.71 0.69
0.63 0.36 0.51 0.88 0.71 0.66 0.75 0.82 1.03 1.60 1.91 1.88 1.96 2.08 2.21 2.28 2.16 2.01 1.91 1.82 1.79 1.72 1.66 1.64 1.60 1.53 1.44 1.35 1.31 1.31 1.37 1.41 1.38 1.36 1.35 1.30 1.15 1.02 1.00 0.96 0.93 0.90 0.79 0.72
0.70 0.75 1.31 1.22 0.68 0.69 0.89 1.02 1.12 1.37 1.48 1.52 1.57 1.69 1.80 1.92 2.02 2.00 1.85 1.76 1.75 1.78 1.76 1.74 1.63 1.54 1.48 1.40 1.37 1.38 1.39 1.39 1.35 1.24 1.24 1.18 1.09 1.06 1.01 0.93 0.91 0.88 0.82 0.74
0.80 1.08 1.31 1.15 0.68 0.69 1.09 1.60 1.31 1.24 1.14 1.06 1.05 1.20 1.56 1.74 1.81 1.96 1.98 1.87 1.81 1.76 1.66 1.63 1.58 1.50 1.45 1.43 1.41 1.40 1.38 1.30 1.22 1.13 1.11 1.04 1.01 0.95 0.87 0.80 0.77 0.74 0.68 0.62
0.89 1.29 1.58 1.46 0.68 0.51 0.93 1.96 1.51 1.28 1.14 1.04 1.16 1.44 1.54 1.50 1.50 1.57 1.68 1.71 1.60 1.45 1.35 1.38 1.42 1.40 1.37 1.37 1.36 1.33 1.14 0.97 0.92 0.93 0.92 0.88 0.82 0.76 0.72 0.70 0.69 0.61 0.54 0.53
0.98 1.37 1.60 0.88 0.46 0.62 1.49 1.93 1.49 1.25 1.12 1.07 1.29 1.42 1.24 1.16 1.22 1.24 1.28 1.26 1.18 1.12 1.17 1.24 1.26 1.21 1.19 1.15 1.14 1.08 0.97 0.84 0.80 0.78 0.73 0.70 0.68 0.68 0.66 0.61 0.63 0.61 0.59 0.54
1.07 1.46 1.63 0.71 0.53 0.94 1.18 1.00 1.00 0.99 0.94 0.89 0.87 0.83 0.88 0.91 0.94 0.91 0.90 0.92 0.88 0.91 0.97 1.01 0.98 0.98 1.05 1.05 0.97 0.90 0.92 0.85 0.79 0.70 0.59 0.59 0.69 0.68 0.66 0.66 0.69 0.67 0.64 0.57
1.05 1.30 1.07 0.60 0.56 0.65 0.69 0.75 0.73 0.73 0.69 0.59 0.54 0.53 0.63 0.65 0.64 0.63 0.63 0.69 0.72 0.73 0.78 0.86 0.86 0.88 0.94 0.95 0.85 0.84 0.90 0.88 0.76 0.63 0.64 0.64 0.68 0.67 0.59 0.56 0.52 0.48 0.48 0.48
0.74 0.85 0.69 0.56 0.53 0.50 0.47 0.50 0.48 0.51 0.52 0.44 0.42 0.48 0.54 0.54 0.51 0.48 0.50 0.53 0.60 0.62 0.62 0.70 0.72 0.77 0.83 0.76 0.73 0.87 0.97 0.90 0.75 0.63 0.59 0.56 0.55 0.50 0.43 0.42 0.41 0.40 0.37 0.36
0.73 0.77 0.72 0.69 0.49 0.40 0.35 0.33 0.33 0.37 0.40 0.37 0.37 0.43 0.44 0.44 0.45 0.46 0.47 0.50 0.55 0.59 0.58 0.55 0.58 0.65 0.62 0.62 0.73 0.96 0.95 0.82 0.69 0.56 0.49 0.45 0.38 0.31 0.26 0.23 0.20 0.25 0.26 0.25
0.68 0.61 0.71 0.76 0.55 0.39 0.37 0.32 0.31 0.29 0.31 0.35 0.37 0.41 0.38 0.36 0.38 0.41 0.44 0.46 0.53 0.53 0.48 0.50 0.55 0.57 0.54 0.55 0.64 0.84 0.86 0.68 0.55 0.47 0.40 0.32 0.28 0.27 0.20 0.15 0.12 0.11 0.12 0.13
0.35 0.34 0.40 0.39 0.33 0.29 0.29 0.30 0.30 0.28 0.29 0.33 0.36 0.36 0.35 0.34 0.33 0.37 0.42 0.46 0.49 0.48 0.44 0.45 0.49 0.50 0.47 0.46 0.51 0.64 0.69 0.53 0.40 0.34 0.33 0.31 0.28 0.33 0.34 0.21 0.13 0.11 0.12 0.13
0.19 0.23 0.29 0.30 0.31 0.27 0.27 0.29 0.29 0.27 0.28 0.33 0.36 0.34 0.33 0.32 0.32 0.34 0.37 0.35 0.31 0.31 0.36 0.41 0.42 0.40 0.34 0.30 0.38 0.42 0.39 0.29 0.24 0.26 0.25 0.23 0.21 0.24 0.27 0.32 0.32 0.26 0.19 0.15
0.17 0.20 0.26 0.30 0.32 0.28 0.30 0.33 0.33 0.32 0.29 0.31 0.29 0.28 0.27 0.25 0.25 0.24 0.25 0.22 0.24 0.29 0.31 0.31 0.34 0.35 0.27 0.23 0.26 0.27 0.25 0.23 0.20 0.17 0.15 0.15 0.15 0.15 0.17 0.22 0.32 0.34 0.27 0.18
0.21 0.21 0.23 0.28 0.32 0.32 0.33 0.36 0.37 0.34 0.28 0.26 0.24 0.24 0.23 0.21 0.19 0.17 0.17 0.18 0.25 0.29 0.28 0.29 0.31 0.25 0.20 0.21 0.23 0.21 0.18 0.15 0.16 0.14 0.14 0.13 0.12 0.13 0.15 0.19 0.23 0.27 0.26 0.19
0.28 0.27 0.24 0.25 0.27 0.31 0.27 0.25 0.27 0.28 0.25 0.23 0.20 0.19 0.17 0.16 0.18 0.19 0.19 0.18 0.23 0.26 0.26 0.28 0.26 0.17 0.14 0.15 0.16 0.15 0.12 0.10 0.10 0.10 0.13 0.12 0.12 0.13 0.14 0.15 0.19 0.22 0.18 0.15
0.28 0.24 0.22 0.22 0.23 0.24 0.22 0.20 0.18 0.20 0.21 0.19 0.16 0.15 0.14 0.16 0.18 0.20 0.19 0.16 0.19 0.23 0.23 0.19 0.16 0.13 0.12 0.10 0.12 0.11 0.11 0.10 0.10 0.12 0.11 0.11 0.11 0.13 0.14 0.15 0.17 0.18 0.19 0.17
0.17 0.14 0.14 0.14 0.15 0.15 0.17 0.18 0.15 0.16 0.17 0.15 0.13 0.13 0.14 0.14 0.14 0.15 0.15 0.16 0.20 0.25 0.22 0.17 0.12 0.10 0.12 0.09 0.08 0.10 0.11 0.09 0.08 0.08 0.07 0.09 0.11 0.11 0.11 0.12 0.14 0.17 0.19 0.21
0.12 0.11 0.13 0.13 0.12 0.13 0.16 0.17 0.13 0.14 0.14 0.13 0.12 0.12 0.13 0.11 0.11 0.13 0.15 0.19 0.21 0.20 0.17 0.15 0.11 0.11 0.12 0.08 0.07 0.08 0.09 0.08 0.07 0.07 0.08 0.09 0.10 0.10 0.10 0.10 0.12 0.16 0.20 0.20
0.14 0.14 0.15 0.14 0.14 0.13 0.15 0.15 0.13 0.14 0.13 0.13 0.13 0.13 0.11 0.10 0.10 0.12 0.15 0.18 0.16 0.15 0.16 0.13 0.13 0.10 0.09 0.08 0.06 0.07 0.07 0.08 0.09 0.08 0.08 0.08 0.07 0.06 0.07 0.08 0.12 0.15 0.18 0.18
0.17 0.17 0.17 0.16 0.14 0.15 0.16 0.14 0.12 0.13 0.15 0.14 0.10 0.08 0.09 0.11 0.12 0.14 0.14 0.15 0.16 0.15 0.14 0.12 0.10 0.08 0.07 0.07 0.06 0.06 0.07 0.07 0.07 0.06 0.06 0.06 0.05 0.06 0.08 0.10 0.12 0.12 0.13 0.14
0.21 0.20 0.21 0.20 0.19 0.19 0.17 0.14 0.11 0.11 0.12 0.13 0.11 0.10 0.13 0.14 0.15 0.15 0.15 0.14 0.16 0.14 0.12 0.10 0.07 0.05 0.05 0.05 0.04 0.05 0.04 0.04 0.04 0.05 0.05 0.05 0.05 0.06 0.07 0.08 0.09 0.11 0.11 0.13
0.30 0.27 0.25 0.24 0.25 0.23 0.21 0.15 0.11 0.09 0.10 0.11 0.15 0.18 0.19 0.17 0.14 0.13 0.15 0.17 0.16 0.11 0.08 0.07 0.06 0.05 0.04 0.03 0.04 0.04 0.04 0.04 0.04 0.05 0.05 0.05 0.05 0.05 0.06 0.07 0.08 0.09 0.10 0.10
0.29 0.31 0.29 0.30 0.35 0.30 0.22 0.17 0.13 0.12 0.12 0.13 0.14 0.14 0.13 0.11 0.11 0.10 0.08 0.08 0.09 0.06 0.04 0.03 0.04 0.04 0.03 0.03 0.04 0.04 0.04 0.04 0.06 0.06 0.05 0.04 0.04 0.04 0.04 0.06 0.09 0.09 0.09 0.10
0.35 0.41 0.38 0.34 0.33 0.28 0.19 0.15 0.17 0.19 0.20 0.18 0.15 0.14 0.12 0.10 0.09 0.09 0.07 0.06 0.06 0.05 0.03 0.03 0.02 0.03 0.03 0.05 0.06 0.06 0.05 0.05 0.05 0.04 0.03 0.04 0.05 0.05 0.05 0.07 0.09 0.10 0.11 0.10
0.45 0.46 0.43 0.37 0.28 0.22 0.19 0.17 0.18 0.20 0.21 0.23 0.21 0.15 0.11 0.08 0.08 0.08 0.07 0.06 0.05 0.04 0.04 0.03 0.03 0.04 0.05 0.06 0.06 0.05 0.04 0.04 0.04 0.04 0.04 0.04 0.04 0.04 0.06 0.08 0.11 0.11 0.10 0.07

GEFSNGP_prec_meanprecacc_216.txt.gz
Total_Precipitation_Accumulation
0.43 0.42 0.41 0.41 0.36 0.35 0.40 0.47 0.82 1.20 1.64 2.04 2.16 2.11 2.06 1.95 1.73 1.43 1.34 1.40 1.36 1.29 1.30 1.25 1.19 1.22 1.19 1.14 1.08 1.25 1.22 1.18 1.08 0.98 0.98 1.00 1.00 0.97 0.93 0.89 0.84 0.84 0.85 0.79
0.40 0.31 0.35 0.41 0.42 0.45 0.52 0.58 0.80 1.27 1.86 2.20 2.25 2.14 2.09 2.02 1.85 1.74 1.66 1.60 1.57 1.47 1.45 1.44 1.36 1.33 1.26 1.22 1.20 1.27 1.32 1.38 1.40 1.30 1.24 1.21 1.11 0.99 0.96 0.95 0.87 0.77 0.72 0.71
0.63 0.36 0.52 0.88 0.71 0.66 0.76 0.83 1.04 1.61 1.92 1.89 1.97 2.09 2.21 2.28 2.16 2.02 1.92 1.83 1.81 1.75 1.68 1.66 1.62 1.54 1.45 1.36 1.32 1.32 1.38 1.42 1.40 1.38 1.37 1.32 1.16 1.03 1.01 0.97 0.94 0.91 0.80 0.74
0.70 0.75 1.32 1.23 0.68 0.69 0.90 1.03 1.13 1.37 1.48 1.52 1.58 1.69 1.80 1.93 2.02 2.01 1.86 1.78 1.77 1.80 1.78 1.76 1.66 1.57 1.50 1.41 1.38 1.38 1.40 1.41 1.37 1.26 1.26 1.20 1.10 1.07 1.02 0.94 0.92 0.89 0.83 0.76
0.80 1.09 1.31 1.16 0.69 0.70 1.10 1.61 1.32 1.25 1.15 1.07 1.06 1.21 1.57 1.74 1.81 1.96 1.99 1.89 1.84 1.79 1.69 1.66 1.61 1.54 1.48 1.46 1.43 1.42 1.40 1.31 1.24 1.15 1.13 1.06 1.03 0.96 0.88 0.81 0.79 0.76 0.70 0.64
0.89 1.30 1.60 1.48 0.69 0.51 0.94 1.97 1.51 1.29 1.15 1.06 1.18 1.47 1.56 1.51 1.51 1.58 1.68 1.73 1.62 1.48 1.39 1.42 1.45 1.44 1.42 1.41 1.39 1.36 1.17 0.99 0.93 0.94 0.93 0.89 0.83 0.78 0.74 0.72 0.71 0.63 0.57 0.59
0.99 1.39 1.62 0.89 0.47 0.62 1.50 1.94 1.49 1.25 1.12 1.08 1.31 1.43 1.24 1.17 1.23 1.25 1.29 1.27 1.19 1.14 1.19 1.26 1.27 1.22 1.22 1.18 1.17 1.11 1.00 0.86 0.82 0.80 0.75 0.72 0.70 0.70 0.67 0.63 0.66 0.64 0.63 0.59
1.08 1.48 1.64 0.72 0.54 0.95 1.19 1.00 1.00 0.99 0.94 0.90 0.87 0.83 0.88 0.91 0.95 0.91 0.91 0.93 0.89 0.92 0.98 1.02 0.99 0.99 1.07 1.07 0.98 0.90 0.92 0.86 0.81 0.71 0.60 0.60 0.70 0.70 0.67 0.68 0.71 0.69 0.66 0.60
1.06 1.30 1.07 0.60 0.57 0.65 0.69 0.75 0.74 0.73 0.69 0.59 0.54 0.53 0.63 0.65 0.64 0.63 0.64 0.69 0.72 0.74 0.79 0.86 0.87 0.89 0.95 0.96 0.87 0.85 0.91 0.89 0.77 0.64 0.65 0.65 0.69 0.69 0.62 0.59 0.54 0.51 0.50 0.50
0.74 0.85 0.69 0.56 0.53 0.50 0.47 0.50 0.48 0.51 0.52 0.44 0.43 0.48 0.54 0.54 0.52 0.48 0.51 0.54 0.61 0.63 0.63 0.71 0.73 0.77 0.83 0.77 0.74 0.89 0.98 0.92 0.77 0.66 0.61 0.58 0.57 0.52 0.47 0.46 0.44 0.42 0.40 0.38
0.73 0.77 0.72 0.69 0.49 0.40 0.35 0.33 0.33 0.37 0.40 0.37 0.37 0.43 0.44 0.44 0.46 0.47 0.49 0.52 0.56 0.61 0.60 0.57 0.59 0.65 0.63 0.63 0.74 0.97 0.96 0.84 0.72 0.59 0.52 0.48 0.39 0.32 0.28 0.26 0.24 0.28 0.28 0.27
0.68 0.61 0.71 0.76 0.55 0.39 0.37 0.33 0.31 0.29 0.31 0.35 0.38 0.41 0.38 0.37 0.39 0.42 0.44 0.46 0.54 0.54 0.49 0.52 0.57 0.59 0.56 0.56 0.65 0.85 0.87 0.69 0.57 0.48 0.41 0.34 0.30 0.27 0.20 0.15 0.13 0.11 0.13 0.14
0.36 0.34 0.40 0.39 0.33 0.29 0.29 0.30 0.30 0.29 0.29 0.33 0.37 0.37 0.36 0.35 0.34 0.38 0.43 0.46 0.50 0.48 0.45 0.46 0.50 0.51 0.48 0.47 0.52 0.65 0.70 0.54 0.41 0.35 0.34 0.32 0.29 0.34 0.34 0.22 0.14 0.11 0.13 0.13
0.19 0.23 0.29 0.30 0.31 0.27 0.27 0.29 0.29 0.28 0.29 0.34 0.38 0.35 0.35 0.33 0.32 0.35 0.37 0.36 0.31 0.31 0.36 0.42 0.42 0.40 0.34 0.31 0.39 0.43 0.40 0.30 0.26 0.28 0.26 0.24 0.22 0.25 0.28 0.33 0.33 0.26 0.19 0.16
0.17 0.20 0.26 0.31 0.32 0.29 0.30 0.33 0.33 0.32 0.30 0.32 0.30 0.28 0.27 0.26 0.25 0.25 0.25 0.23 0.24 0.29 0.31 0.32 0.35 0.36 0.28 0.24 0.27 0.28 0.27 0.24 0.22 0.20 0.18 0.17 0.16 0.17 0.18 0.23 0.33 0.35 0.28 0.19
0.21 0.21 0.23 0.28 0.32 0.33 0.33 0.37 0.38 0.35 0.29 0.26 0.25 0.25 0.23 0.21 0.19 0.17 0.18 0.19 0.26 0.30 0.28 0.30 0.33 0.26 0.21 0.23 0.24 0.24 0.20 0.17 0.19 0.18 0.17 0.14 0.14 0.15 0.17 0.20 0.25 0.30 0.30 0.24
0.28 0.27 0.25 0.25 0.28 0.31 0.28 0.25 0.28 0.29 0.25 0.24 0.21 0.19 0.18 0.16 0.18 0.20 0.20 0.19 0.24 0.27 0.27 0.29 0.27 0.18 0.15 0.16 0.18 0.17 0.14 0.12 0.13 0.14 0.16 0.14 0.13 0.15 0.17 0.19 0.24 0.27 0.25 0.22
0.28 0.25 0.23 0.23 0.24 0.24 0.22 0.20 0.19 0.21 0.22 0.20 0.17 0.16 0.15 0.16 0.19 0.20 0.20 0.17 0.19 0.24 0.24 0.20 0.17 0.14 0.12 0.11 0.13 0.13 0.13 0.12 0.12 0.14 0.13 0.13 0.14 0.16 0.19 0.20 0.21 0.22 0.23 0.21
0.17 0.14 0.15 0.15 0.16 0.15 0.17 0.19 0.16 0.16 0.17 0.16 0.14 0.14 0.15 0.15 0.14 0.15 0.16 0.17 0.21 0.26 0.23 0.18 0.13 0.12 0.14 0.11 0.10 0.12 0.13 0.11 0.10 0.10 0.09 0.11 0.12 0.13 0.14 0.14 0.16 0.19 0.22 0.23
0.12 0.12 0.14 0.14 0.13 0.13 0.17 0.18 0.14 0.14 0.14 0.14 0.13 0.13 0.14 0.11 0.11 0.13 0.16 0.20 0.22 0.21 0.19 0.17 0.14 0.14 0.14 0.10 0.09 0.09 0.10 0.09 0.08 0.08 0.09 0.10 0.11 0.11 0.11 0.11 0.13 0.17 0.23 0.23
0.15 0.15 0.16 0.15 0.15 0.14 0.16 0.16 0.14 0.15 0.14 0.14 0.14 0.14 0.13 0.11 0.11 0.14 0.17 0.19 0.18 0.17 0.18 0.17 0.16 0.12 0.11 0.09 0.07 0.08 0.08 0.10 0.10 0.09 0.09 0.09 0.08 0.07 0.08 0.09 0.13 0.19 0.24 0.21
0.20 0.20 0.19 0.17 0.16 0.17 0.18 0.15 0.14 0.15 0.17 0.15 0.11 0.09 0.10 0.12 0.13 0.16 0.16 0.18 0.18 0.17 0.16 0.15 0.12 0.10 0.10 0.08 0.06 0.07 0.07 0.08 0.08 0.07 0.08 0.07 0.06 0.06 0.09 0.11 0.13 0.16 0.16 0.15
0.24 0.22 0.23 0.22 0.20 0.21 0.20 0.17 0.15 0.14 0.15 0.15 0.12 0.11 0.14 0.16 0.16 0.16 0.16 0.16 0.17 0.15 0.13 0.12 0.08 0.07 0.07 0.06 0.05 0.05 0.04 0.04 0.05 0.06 0.06 0.06 0.06 0.07 0.08 0.09 0.11 0.13 0.12 0.14
0.32 0.28 0.25 0.25 0.26 0.26 0.25 0.20 0.16 0.14 0.14 0.13 0.17 0.20 0.21 0.19 0.16 0.14 0.17 0.18 0.16 0.12 0.09 0.08 0.07 0.06 0.05 0.04 0.04 0.05 0.04 0.04 0.05 0.06 0.07 0.06 0.05 0.06 0.07 0.08 0.09 0.11 0.10 0.11
0.29 0.31 0.30 0.31 0.37 0.34 0.28 0.23 0.18 0.16 0.15 0.15 0.16 0.16 0.15 0.13 0.13 0.12 0.10 0.10 0.10 0.07 0.05 0.05 0.05 0.05 0.04 0.04 0.05 0.05 0.05 0.05 0.07 0.07 0.05 0.05 0.05 0.04 0.05 0.07 0.11 0.11 0.11 0.10
0.36 0.42 0.40 0.36 0.35 0.32 0.25 0.20 0.20 0.23 0.22 0.20 0.16 0.14 0.12 0.10 0.10 0.10 0.08 0.07 0.06 0.05 0.04 0.04 0.04 0.04 0.05 0.05 0.06 0.06 0.06 0.05 0.06 0.05 0.05 0.05 0.05 0.06 0.06 0.08 0.11 0.12 0.12 0.10
0.46 0.47 0.45 0.39 0.30 0.26 0.24 0.20 0.20 0.21 0.22 0.23 0.22 0.16 0.11 0.09 0.09 0.09 0.07 0.06 0.06 0.05 0.05 0.05 0.04 0.05 0.06 0.07 0.07 0.06 0.05 0.05 0.06 0.06 0.06 0.05 0.05 0.05 0.07 0.10 0.13 0.13 0.11 0.08

GEFSNGP_prec_meanprecacc_222.txt.gz
Total_Precipitation_Accumulation
0.44 0.43 0.41 0.41 0.36 0.36 0.41 0.48 0.83 1.22 1.66 2.06 2.19 2.14 2.09 1.98 1.76 1.44 1.35 1.41 1.37 1.31 1.32 1.26 1.21 1.24 1.21 1.16 1.09 1.27 1.24 1.20 1.10 1.00 1.00 1.02 1.02 0.99 0.95 0.91 0.86 0.87 0.88 0.83
0.41 0.31 0.36 0.42 0.42 0.45 0.53 0.58 0.80 1.28 1.87 2.21 2.27 2.17 2.11 2.04 1.86 1.76 1.67 1.62 1.59 1.49 1.47 1.45 1.37 1.34 1.27 1.24 1.21 1.29 1.35 1.41 1.42 1.32 1.26 1.23 1.14 1.01 0.99 0.98 0.90 0.81 0.76 0.74
0.65 0.36 0.53 0.90 0.71 0.66 0.76 0.83 1.04 1.62 1.92 1.89 1.98 2.11 2.24 2.31 2.18 2.03 1.94 1.87 1.84 1.77 1.71 1.68 1.64 1.56 1.47 1.37 1.33 1.34 1.41 1.45 1.43 1.41 1.39 1.34 1.18 1.05 1.03 1.00 0.98 0.95 0.84 0.77
0.72 0.77 1.35 1.25 0.69 0.69 0.90 1.04 1.14 1.38 1.49 1.53 1.59 1.72 1.82 1.95 2.03 2.02 1.87 1.79 1.80 1.83 1.81 1.79 1.69 1.59 1.51 1.42 1.39 1.40 1.42 1.43 1.40 1.30 1.29 1.22 1.12 1.09 1.05 0.97 0.95 0.93 0.87 0.79
0.82 1.13 1.35 1.18 0.70 0.70 1.12 1.63 1.32 1.26 1.16 1.07 1.06 1.22 1.59 1.76 1.82 1.97 2.00 1.90 1.85 1.80 1.71 1.68 1.64 1.57 1.51 1.47 1.45 1.44 1.41 1.33 1.25 1.17 1.15 1.08 1.05 0.99 0.91 0.85 0.83 0.79 0.72 0.67
0.91 1.34 1.63 1.51 0.71 0.53 0.96 2.01 1.53 1.31 1.17 1.07 1.18 1.50 1.59 1.52 1.51 1.58 1.69 1.74 1.64 1.49 1.40 1.43 1.47 1.46 1.44 1.42 1.41 1.38 1.18 1.00 0.94 0.96 0.96 0.92 0.87 0.81 0.77 0.75 0.74 0.66 0.59 0.62
1.02 1.43 1.65 0.91 0.48 0.64 1.54 1.99 1.52 1.27 1.14 1.10 1.33 1.45 1.25 1.18 1.24 1.26 1.30 1.28 1.21 1.15 1.20 1.28 1.29 1.24 1.24 1.20 1.19 1.13 1.02 0.87 0.84 0.83 0.77 0.75 0.74 0.74 0.71 0.66 0.69 0.67 0.66 0.62
1.11 1.52 1.68 0.73 0.56 0.99 1.23 1.02 1.01 0.99 0.94 0.91 0.89 0.84 0.89 0.93 0.96 0.92 0.92 0.94 0.90 0.92 0.99 1.04 1.00 1.00 1.08 1.09 1.01 0.93 0.95 0.88 0.83 0.74 0.64 0.63 0.75 0.74 0.70 0.71 0.74 0.72 0.69 0.62
1.09 1.34 1.10 0.62 0.58 0.67 0.71 0.77 0.76 0.75 0.70 0.59 0.54 0.53 0.64 0.66 0.66 0.64 0.64 0.70 0.73 0.75 0.80 0.88 0.89 0.91 0.97 0.98 0.88 0.87 0.93 0.91 0.80 0.68 0.69 0.69 0.74 0.73 0.65 0.63 0.58 0.54 0.52 0.52
0.78 0.88 0.72 0.59 0.56 0.52 0.48 0.51 0.50 0.54 0.55 0.45 0.43 0.48 0.55 0.55 0.52 0.50 0.52 0.54 0.61 0.65 0.66 0.73 0.75 0.79 0.86 0.78 0.76 0.90 1.01 0.96 0.81 0.71 0.66 0.61 0.60 0.54 0.50 0.50 0.49 0.46 0.43 0.41
0.76 0.80 0.74 0.72 0.53 0.44 0.36 0.33 0.34 0.38 0.41 0.38 0.37 0.44 0.45 0.46 0.48 0.50 0.51 0.54 0.59 0.63 0.62 0.59 0.60 0.66 0.64 0.64 0.76 1.00 0.99 0.88 0.76 0.63 0.56 0.51 0.43 0.36 0.32 0.31 0.30 0.32 0.31 0.29
0.71 0.64 0.72 0.77 0.56 0.42 0.38 0.34 0.33 0.31 0.32 0.36 0.39 0.42 0.40 0.39 0.41 0.44 0.47 0.48 0.56 0.57 0.52 0.54 0.58 0.59 0.56 0.58 0.67 0.87 0.90 0.72 0.60 0.51 0.44 0.37 0.33 0.32 0.25 0.20 0.17 0.15 0.16 0.16
0.37 0.35 0.41 0.40 0.34 0.30 0.30 0.31 0.31 0.29 0.29 0.35 0.39 0.39 0.38 0.37 0.36 0.40 0.45 0.49 0.52 0.51 0.47 0.48 0.51 0.52 0.50 0.49 0.55 0.68 0.73 0.56 0.44 0.39 0.38 0.34 0.32 0.38 0.39 0.25 0.16 0.13 0.15 0.16
0.20 0.24 0.29 0.30 0.32 0.27 0.28 0.30 0.30 0.28 0.29 0.36 0.41 0.38 0.36 0.35 0.34 0.37 0.40 0.38 0.33 0.33 0.38 0.44 0.44 0.42 0.37 0.34 0.42 0.46 0.43 0.33 0.29 0.32 0.31 0.26 0.24 0.27 0.31 0.36 0.36 0.28 0.21 0.18
0.18 0.20 0.26 0.31 0.32 0.29 0.30 0.33 0.34 0.33 0.32 0.33 0.31 0.30 0.29 0.28 0.27 0.26 0.28 0.26 0.27 0.32 0.33 0.33 0.37 0.38 0.30 0.26 0.29 0.30 0.29 0.27 0.25 0.24 0.21 0.19 0.17 0.19 0.21 0.26 0.35 0.37 0.31 0.22
0.21 0.21 0.23 0.28 0.32 0.33 0.33 0.37 0.39 0.37 0.31 0.28 0.26 0.28 0.25 0.23 0.21 0.19 0.20 0.22 0.29 0.32 0.30 0.31 0.35 0.29 0.23 0.25 0.26 0.26 0.22 0.19 0.21 0.20 0.19 0.16 0.16 0.17 0.19 0.22 0.27 0.32 0.33 0.26
0.29 0.28 0.25 0.26 0.28 0.31 0.28 0.26 0.29 0.30 0.27 0.25 0.22 0.21 0.19 0.18 0.20 0.22 0.22 0.22 0.27 0.29 0.28 0.30 0.29 0.20 0.16 0.17 0.20 0.20 0.16 0.13 0.14 0.15 0.17 0.15 0.15 0.17 0.19 0.20 0.25 0.29 0.28 0.25
0.28 0.25 0.24 0.24 0.25 0.25 0.23 0.21 0.20 0.22 0.22 0.20 0.18 0.17 0.16 0.18 0.21 0.23 0.22 0.19 0.22 0.27 0.26 0.21 0.19 0.15 0.13 0.12 0.15 0.16 0.16 0.14 0.14 0.16 0.15 0.15 0.17 0.19 0.21 0.22 0.22 0.26 0.27 0.24
0.17 0.15 0.16 0.17 0.17 0.16 0.18 0.21 0.18 0.17 0.18 0.16 0.15 0.15 0.17 0.17 0.17 0.18 0.19 0.22 0.26 0.31 0.26 0.20 0.15 0.13 0.16 0.13 0.13 0.15 0.15 0.13 0.12 0.12 0.11 0.12 0.14 0.15 0.16 0.16 0.18 0.23 0.27 0.27
0.13 0.13 0.15 0.16 0.14 0.14 0.19 0.19 0.15 0.15 0.15 0.15 0.15 0.16 0.17 0.14 0.14 0.16 0.20 0.25 0.28 0.26 0.22 0.19 0.15 0.16 0.16 0.12 0.10 0.11 0.12 0.11 0.10 0.09 0.10 0.11 0.12 0.13 0.13 0.14 0.16 0.20 0.27 0.25
0.15 0.16 0.18 0.17 0.16 0.16 0.17 0.16 0.15 0.15 0.15 0.15 0.16 0.16 0.15 0.13 0.13 0.16 0.21 0.24 0.22 0.21 0.21 0.19 0.18 0.14 0.13 0.10 0.08 0.09 0.09 0.10 0.11 0.10 0.10 0.10 0.10 0.09 0.10 0.12 0.15 0.21 0.26 0.23
0.21 0.21 0.21 0.19 0.18 0.20 0.19 0.17 0.15 0.16 0.18 0.17 0.13 0.12 0.12 0.14 0.14 0.18 0.20 0.22 0.21 0.19 0.19 0.17 0.14 0.12 0.12 0.10 0.07 0.07 0.07 0.08 0.09 0.08 0.09 0.09 0.07 0.08 0.11 0.13 0.16 0.18 0.19 0.18
0.25 0.24 0.26 0.25 0.24 0.25 0.22 0.18 0.16 0.15 0.16 0.17 0.16 0.15 0.17 0.18 0.18 0.18 0.19 0.18 0.19 0.16 0.15 0.14 0.11 0.09 0.09 0.07 0.06 0.05 0.05 0.05 0.06 0.07 0.07 0.07 0.08 0.09 0.09 0.12 0.14 0.16 0.16 0.18
0.34 0.30 0.28 0.30 0.32 0.30 0.28 0.23 0.19 0.16 0.16 0.16 0.19 0.21 0.22 0.20 0.18 0.17 0.20 0.21 0.19 0.14 0.11 0.10 0.08 0.07 0.06 0.05 0.05 0.06 0.05 0.05 0.06 0.07 0.08 0.07 0.07 0.07 0.09 0.11 0.12 0.14 0.13 0.14
0.32 0.34 0.32 0.35 0.41 0.37 0.32 0.28 0.23 0.20 0.18 0.18 0.18 0.17 0.16 0.14 0.15 0.14 0.12 0.12 0.12 0.09 0.07 0.06 0.05 0.05 0.05 0.05 0.05 0.06 0.06 0.06 0.08 0.08 0.07 0.06 0.06 0.06 0.07 0.09 0.14 0.15 0.14 0.13
0.38 0.45 0.42 0.38 0.38 0.35 0.30 0.26 0.26 0.28 0.27 0.23 0.18 0.16 0.14 0.12 0.12 0.11 0.10 0.08 0.07 0.06 0.05 0.05 0.04 0.05 0.06 0.06 0.06 0.07 0.07 0.07 0.07 0.07 0.06 0.06 0.07 0.07 0.07 0.09 0.12 0.15 0.15 0.12
0.47 0.49 0.47 0.41 0.32 0.29 0.29 0.25 0.25 0.27 0.28 0.28 0.24 0.17 0.13 0.11 0.10 0.11 0.09 0.08 0.07 0.06 0.05 0.05 0.05 0.06 0.07 0.08 0.08 0.08 0.07 0.07 0.08 0.08 0.08 0.07 0.06 0.06 0.08 0.11 0.14 0.15 0.13 0.10

GEFSNGP_prec_meanprecacc_228.txt.gz
Total_Precipitation_Accumulation
0.44 0.44 0.42 0.42 0.37 0.37 0.42 0.49 0.85 1.23 1.67 2.08 2.21 2.16 2.11 2.00 1.78 1.47 1.38 1.44 1.41 1.35 1.34 1.27 1.22 1.26 1.23 1.17 1.10 1.27 1.24 1.20 1.11 1.01 1.01 1.04 1.04 1.01 0.96 0.92 0.87 0.87 0.89 0.84
0.41 0.32 0.36 0.42 0.43 0.46 0.53 0.59 0.81 1.29 1.88 2.22 2.28 2.20 2.14 2.05 1.87 1.77 1.68 1.63 1.60 1.51 1.49 1.47 1.39 1.35 1.28 1.25 1.22 1.30 1.36 1.42 1.44 1.33 1.27 1.24 1.14 1.01 0.99 0.98 0.91 0.81 0.76 0.74
0.67 0.37 0.54 0.91 0.72 0.67 0.77 0.84 1.05 1.63 1.94 1.90 1.99 2.12 2.25 2.32 2.19 2.04 1.95 1.87 1.85 1.79 1.72 1.71 1.66 1.57 1.48 1.38 1.35 1.35 1.42 1.46 1.44 1.42 1.40 1.36 1.19 1.06 1.04 1.01 0.99 0.96 0.85 0.77
0.74 0.80 1.38 1.27 0.70 0.70 0.91 1.05 1.15 1.40 1.51 1.54 1.59 1.72 1.83 1.96 2.05 2.04 1.89 1.80 1.81 1.84 1.82 1.81 1.70 1.60 1.52 1.44 1.42 1.43 1.44 1.45 1.41 1.31 1.31 1.24 1.14 1.11 1.05 0.98 0.96 0.94 0.87 0.79
0.84 1.15 1.38 1.21 0.73 0.73 1.15 1.66 1.35 1.30 1.20 1.09 1.07 1.23 1.60 1.77 1.84 1.99 2.01 1.91 1.86 1.82 1.72 1.69 1.65 1.58 1.51 1.49 1.47 1.47 1.44 1.36 1.28 1.20 1.18 1.11 1.07 1.01 0.93 0.86 0.84 0.80 0.73 0.68
0.94 1.37 1.66 1.56 0.76 0.57 1.02 2.08 1.61 1.38 1.22 1.09 1.19 1.51 1.60 1.53 1.53 1.60 1.70 1.75 1.65 1.50 1.41 1.44 1.48 1.46 1.45 1.43 1.42 1.39 1.20 1.02 0.96 0.99 0.99 0.95 0.89 0.83 0.79 0.77 0.76 0.67 0.60 0.63
1.06 1.48 1.70 0.95 0.52 0.68 1.58 2.06 1.62 1.35 1.18 1.12 1.34 1.48 1.28 1.20 1.26 1.27 1.31 1.30 1.22 1.16 1.21 1.29 1.30 1.25 1.25 1.20 1.20 1.15 1.03 0.89 0.85 0.85 0.81 0.78 0.77 0.77 0.73 0.68 0.70 0.68 0.67 0.63
1.16 1.59 1.75 0.78 0.59 1.03 1.28 1.07 1.08 1.05 0.98 0.94 0.92 0.87 0.92 0.95 0.98 0.94 0.93 0.96 0.92 0.94 1.01 1.05 1.01 1.02 1.09 1.10 1.02 0.95 0.97 0.90 0.85 0.76 0.66 0.66 0.78 0.77 0.73 0.73 0.75 0.73 0.70 0.63
1.13 1.40 1.16 0.67 0.61 0.69 0.73 0.80 0.78 0.77 0.72 0.61 0.56 0.55 0.65 0.67 0.67 0.66 0.66 0.72 0.75 0.77 0.82 0.91 0.93 0.95 1.00 1.00 0.90 0.89 0.95 0.93 0.81 0.69 0.71 0.70 0.76 0.75 0.69 0.67 0.62 0.57 0.55 0.55
0.82 0.93 0.75 0.63 0.60 0.56 0.51 0.53 0.52 0.56 0.58 0.50 0.47 0.51 0.57 0.58 0.55 0.53 0.54 0.56 0.64 0.68 0.68 0.77 0.80 0.83 0.89 0.82 0.80 0.94 1.04 0.98 0.84 0.73 0.67 0.63 0.62 0.57 0.54 0.54 0.52 0.50 0.47 0.44
0.81 0.85 0.79 0.76 0.56 0.47 0.41 0.38 0.37 0.40 0.43 0.43 0.45 0.49 0.48 0.49 0.53 0.55 0.56 0.57 0.60 0.65 0.64 0.61 0.63 0.69 0.67 0.67 0.79 1.03 1.01 0.90 0.78 0.65 0.57 0.53 0.44 0.38 0.35 0.34 0.33 0.36 0.35 0.32
0.75 0.67 0.76 0.80 0.59 0.46 0.44 0.42 0.38 0.33 0.33 0.38 0.42 0.49 0.46 0.43 0.47 0.50 0.50 0.51 0.58 0.59 0.54 0.55 0.60 0.62 0.59 0.60 0.69 0.90 0.92 0.74 0.61 0.53 0.46 0.39 0.35 0.34 0.27 0.21 0.19 0.18 0.18 0.19
0.44 0.40 0.44 0.42 0.36 0.33 0.33 0.35 0.34 0.31 0.31 0.37 0.41 0.41 0.42 0.42 0.41 0.47 0.51 0.51 0.54 0.53 0.52 0.52 0.53 0.54 0.52 0.53 0.58 0.71 0.76 0.59 0.46 0.40 0.40 0.36 0.34 0.40 0.40 0.26 0.17 0.15 0.16 0.17
0.24 0.28 0.32 0.33 0.34 0.29 0.29 0.32 0.31 0.29 0.30 0.38 0.43 0.39 0.38 0.40 0.42 0.42 0.45 0.41 0.35 0.34 0.41 0.48 0.48 0.47 0.40 0.36 0.45 0.49 0.46 0.36 0.31 0.34 0.32 0.28 0.26 0.28 0.32 0.36 0.36 0.29 0.23 0.20
0.21 0.23 0.29 0.32 0.34 0.30 0.31 0.34 0.34 0.34 0.33 0.35 0.33 0.31 0.30 0.31 0.32 0.32 0.32 0.29 0.28 0.33 0.36 0.38 0.43 0.44 0.33 0.28 0.31 0.31 0.30 0.28 0.26 0.25 0.23 0.20 0.18 0.20 0.22 0.28 0.37 0.39 0.32 0.24
0.24 0.24 0.26 0.30 0.34 0.34 0.34 0.38 0.40 0.38 0.32 0.31 0.29 0.30 0.28 0.27 0.23 0.20 0.21 0.24 0.31 0.34 0.33 0.35 0.40 0.33 0.26 0.28 0.29 0.29 0.24 0.21 0.22 0.21 0.20 0.18 0.17 0.18 0.21 0.24 0.29 0.35 0.35 0.28
0.32 0.32 0.29 0.29 0.30 0.32 0.29 0.27 0.30 0.32 0.28 0.27 0.23 0.22 0.20 0.20 0.21 0.23 0.24 0.24 0.29 0.31 0.30 0.32 0.32 0.23 0.19 0.21 0.23 0.23 0.18 0.16 0.17 0.18 0.19 0.17 0.17 0.18 0.20 0.22 0.27 0.32 0.30 0.27
0.32 0.30 0.28 0.28 0.27 0.26 0.23 0.22 0.21 0.23 0.23 0.21 0.18 0.17 0.17 0.19 0.23 0.24 0.24 0.23 0.25 0.29 0.28 0.24 0.22 0.19 0.16 0.15 0.18 0.20 0.19 0.17 0.16 0.18 0.17 0.17 0.19 0.21 0.23 0.23 0.24 0.28 0.30 0.26
0.22 0.19 0.20 0.20 0.18 0.17 0.19 0.21 0.18 0.17 0.18 0.17 0.15 0.16 0.18 0.18 0.18 0.20 0.21 0.25 0.30 0.33 0.29 0.23 0.18 0.17 0.19 0.16 0.16 0.19 0.19 0.16 0.15 0.15 0.13 0.15 0.16 0.18 0.18 0.19 0.20 0.25 0.29 0.29
0.17 0.16 0.19 0.18 0.15 0.15 0.19 0.19 0.15 0.15 0.16 0.15 0.15 0.17 0.18 0.16 0.16 0.17 0.21 0.28 0.31 0.29 0.26 0.23 0.19 0.19 0.19 0.14 0.12 0.13 0.15 0.14 0.14 0.12 0.12 0.13 0.15 0.15 0.16 0.17 0.18 0.22 0.29 0.27
0.20 0.21 0.22 0.21 0.19 0.17 0.18 0.17 0.15 0.16 0.16 0.16 0.17 0.18 0.18 0.16 0.15 0.17 0.22 0.26 0.24 0.22 0.22 0.21 0.21 0.17 0.15 0.12 0.10 0.10 0.11 0.12 0.12 0.11 0.11 0.12 0.11 0.11 0.13 0.14 0.16 0.22 0.28 0.25
0.25 0.25 0.25 0.23 0.20 0.21 0.20 0.17 0.16 0.17 0.19 0.18 0.15 0.13 0.15 0.16 0.16 0.19 0.21 0.23 0.22 0.20 0.19 0.18 0.16 0.14 0.14 0.12 0.09 0.09 0.09 0.09 0.09 0.08 0.09 0.09 0.08 0.10 0.12 0.15 0.17 0.19 0.21 0.20
0.28 0.27 0.28 0.28 0.27 0.26 0.23 0.19 0.17 0.16 0.18 0.20 0.19 0.19 0.20 0.20 0.19 0.19 0.20 0.19 0.20 0.17 0.16 0.15 0.12 0.10 0.10 0.08 0.07 0.07 0.06 0.06 0.06 0.07 0.08 0.07 0.08 0.09 0.11 0.14 0.16 0.19 0.18 0.19
0.36 0.32 0.30 0.32 0.35 0.32 0.30 0.25 0.21 0.18 0.18 0.17 0.21 0.24 0.25 0.22 0.19 0.18 0.21 0.22 0.21 0.15 0.13 0.11 0.09 0.08 0.07 0.06 0.06 0.07 0.06 0.06 0.07 0.08 0.08 0.08 0.08 0.08 0.10 0.13 0.16 0.17 0.15 0.17
0.33 0.36 0.34 0.36 0.42 0.39 0.36 0.32 0.27 0.23 0.21 0.20 0.20 0.21 0.19 0.16 0.16 0.15 0.13 0.13 0.14 0.10 0.08 0.07 0.07 0.07 0.06 0.05 0.06 0.07 0.08 0.08 0.09 0.09 0.08 0.07 0.07 0.07 0.08 0.12 0.17 0.18 0.17 0.16
0.39 0.46 0.43 0.40 0.39 0.36 0.33 0.30 0.32 0.33 0.32 0.28 0.24 0.20 0.17 0.14 0.13 0.13 0.11 0.09 0.09 0.08 0.06 0.06 0.05 0.06 0.06 0.07 0.07 0.08 0.08 0.08 0.08 0.08 0.07 0.07 0.08 0.09 0.09 0.13 0.16 0.18 0.18 0.15
0.48 0.49 0.48 0.43 0.34 0.31 0.32 0.30 0.31 0.34 0.36 0.35 0.31 0.23 0.17 0.14 0.14 0.13 0.11 0.09 0.08 0.07 0.06 0.06 0.05 0.06 0.08 0.09 0.09 0.08 0.08 0.08 0.09 0.10 0.10 0.09 0.08 0.09 0.11 0.14 0.18 0.21 0.18 0.12

GEFSNGP_prec_meanprecacc_234.txt.gz
Total_Precipitation_Accumulation
0.45 0.45 0.43 0.42 0.38 0.37 0.43 0.50 0.85 1.23 1.67 2.08 2.21 2.16 2.11 2.01 1.79 1.49 1.40 1.46 1.42 1.35 1.35 1.27 1.23 1.27 1.25 1.18 1.11 1.28 1.25 1.21 1.11 1.02 1.04 1.08 1.06 1.02 0.98 0.94 0.88 0.88 0.90 0.85
0.42 0.33 0.37 0.42 0.43 0.47 0.54 0.60 0.82 1.30 1.89 2.23 2.29 2.20 2.15 2.06 1.88 1.78 1.69 1.63 1.61 1.52 1.50 1.48 1.40 1.36 1.31 1.28 1.23 1.31 1.36 1.42 1.44 1.33 1.28 1.26 1.16 1.03 1.01 1.00 0.92 0.82 0.77 0.75
0.68 0.38 0.54 0.92 0.73 0.68 0.77 0.84 1.05 1.63 1.95 1.91 2.00 2.13 2.26 2.33 2.20 2.05 1.96 1.88 1.86 1.79 1.73 1.71 1.67 1.58 1.48 1.40 1.36 1.36 1.42 1.46 1.44 1.42 1.41 1.36 1.20 1.06 1.05 1.03 1.00 0.96 0.85 0.78
0.75 0.80 1.39 1.28 0.71 0.71 0.91 1.05 1.15 1.41 1.52 1.55 1.61 1.74 1.84 1.97 2.06 2.05 1.91 1.82 1.82 1.85 1.83 1.82 1.71 1.61 1.53 1.45 1.43 1.44 1.45 1.45 1.41 1.31 1.31 1.24 1.15 1.12 1.06 0.99 0.97 0.94 0.88 0.80
0.85 1.15 1.38 1.22 0.74 0.73 1.15 1.66 1.36 1.30 1.21 1.11 1.10 1.26 1.62 1.79 1.85 2.00 2.03 1.92 1.88 1.83 1.74 1.70 1.66 1.59 1.52 1.50 1.47 1.47 1.45 1.37 1.29 1.20 1.18 1.11 1.08 1.02 0.94 0.87 0.85 0.81 0.74 0.69
0.95 1.38 1.68 1.57 0.78 0.59 1.04 2.10 1.62 1.39 1.24 1.11 1.21 1.53 1.62 1.54 1.54 1.61 1.71 1.76 1.66 1.52 1.42 1.46 1.50 1.48 1.46 1.44 1.43 1.40 1.21 1.03 0.97 0.99 0.99 0.95 0.90 0.84 0.80 0.78 0.77 0.69 0.61 0.63
1.07 1.49 1.72 0.97 0.54 0.70 1.60 2.07 1.63 1.36 1.20 1.14 1.36 1.49 1.29 1.22 1.27 1.27 1.31 1.30 1.23 1.17 1.23 1.31 1.33 1.27 1.26 1.21 1.21 1.16 1.05 0.91 0.88 0.87 0.81 0.78 0.77 0.78 0.74 0.70 0.72 0.71 0.69 0.64
1.16 1.60 1.77 0.80 0.61 1.06 1.31 1.09 1.10 1.07 0.99 0.95 0.93 0.89 0.93 0.97 0.99 0.95 0.94 0.97 0.93 0.95 1.02 1.07 1.03 1.03 1.10 1.11 1.04 0.97 0.99 0.93 0.88 0.79 0.68 0.67 0.79 0.78 0.74 0.76 0.78 0.75 0.72 0.65
1.14 1.41 1.17 0.68 0.63 0.72 0.75 0.82 0.80 0.79 0.74 0.63 0.58 0.57 0.67 0.69 0.69 0.67 0.67 0.73 0.77 0.78 0.84 0.93 0.95 0.97 1.01 1.01 0.92 0.91 0.97 0.96 0.84 0.72 0.73 0.72 0.78 0.77 0.71 0.69 0.65 0.60 0.58 0.58
0.83 0.94 0.76 0.64 0.61 0.57 0.52 0.55 0.54 0.58 0.60 0.52 0.49 0.53 0.58 0.59 0.57 0.55 0.57 0.59 0.67 0.71 0.72 0.79 0.82 0.85 0.91 0.84 0.82 0.97 1.08 1.01 0.87 0.77 0.71 0.68 0.66 0.60 0.57 0.57 0.55 0.52 0.50 0.48
0.82 0.87 0.81 0.78 0.57 0.48 0.42 0.39 0.39 0.42 0.45 0.45 0.46 0.50 0.49 0.50 0.54 0.57 0.59 0.63 0.66 0.70 0.68 0.65 0.66 0.71 0.69 0.69 0.82 1.06 1.04 0.93 0.81 0.68 0.61 0.58 0.51 0.45 0.41 0.40 0.38 0.39 0.37 0.34
0.76 0.69 0.78 0.83 0.61 0.48 0.46 0.43 0.39 0.34 0.35 0.39 0.43 0.50 0.46 0.44 0.47 0.51 0.52 0.56 0.66 0.64 0.57 0.58 0.62 0.64 0.60 0.61 0.71 0.93 0.95 0.76 0.64 0.55 0.48 0.41 0.37 0.37 0.30 0.25 0.23 0.20 0.19 0.19
0.45 0.42 0.47 0.46 0.39 0.35 0.35 0.37 0.36 0.33 0.33 0.39 0.42 0.43 0.44 0.43 0.42 0.50 0.55 0.55 0.58 0.58 0.54 0.53 0.54 0.55 0.53 0.53 0.60 0.72 0.77 0.60 0.47 0.42 0.42 0.39 0.36 0.42 0.41 0.27 0.18 0.15 0.17 0.18
0.26 0.30 0.36 0.38 0.40 0.34 0.32 0.34 0.33 0.31 0.32 0.39 0.44 0.40 0.40 0.42 0.44 0.44 0.49 0.47 0.39 0.37 0.43 0.49 0.49 0.47 0.40 0.37 0.45 0.50 0.47 0.37 0.32 0.35 0.34 0.30 0.28 0.30 0.34 0.38 0.37 0.30 0.24 0.21
0.26 0.28 0.33 0.37 0.39 0.36 0.36 0.37 0.37 0.36 0.34 0.36 0.35 0.32 0.32 0.34 0.34 0.34 0.34 0.32 0.34 0.37 0.39 0.40 0.44 0.45 0.33 0.29 0.32 0.32 0.31 0.28 0.26 0.25 0.24 0.21 0.19 0.21 0.23 0.29 0.38 0.40 0.33 0.25
0.30 0.29 0.29 0.34 0.38 0.39 0.38 0.40 0.42 0.39 0.33 0.32 0.30 0.31 0.29 0.28 0.25 0.22 0.23 0.26 0.33 0.38 0.36 0.38 0.41 0.34 0.27 0.28 0.30 0.30 0.25 0.21 0.23 0.22 0.21 0.19 0.18 0.19 0.21 0.25 0.30 0.36 0.36 0.30
0.39 0.39 0.35 0.33 0.34 0.35 0.31 0.29 0.32 0.33 0.29 0.28 0.24 0.24 0.22 0.21 0.22 0.24 0.26 0.26 0.30 0.32 0.31 0.33 0.33 0.24 0.20 0.21 0.24 0.24 0.19 0.16 0.18 0.19 0.21 0.19 0.18 0.19 0.21 0.22 0.28 0.32 0.31 0.28
0.38 0.37 0.35 0.34 0.31 0.28 0.25 0.23 0.22 0.24 0.24 0.22 0.20 0.18 0.18 0.20 0.23 0.25 0.26 0.24 0.26 0.30 0.29 0.24 0.23 0.20 0.18 0.16 0.20 0.21 0.20 0.18 0.17 0.19 0.19 0.18 0.19 0.22 0.23 0.24 0.25 0.29 0.31 0.28
0.26 0.24 0.25 0.25 0.22 0.20 0.21 0.23 0.19 0.18 0.19 0.18 0.16 0.17 0.19 0.20 0.19 0.21 0.23 0.27 0.31 0.34 0.30 0.24 0.20 0.18 0.21 0.17 0.18 0.21 0.21 0.18 0.16 0.16 0.15 0.16 0.17 0.19 0.19 0.20 0.22 0.28 0.31 0.31
0.20 0.20 0.22 0.21 0.18 0.17 0.22 0.21 0.16 0.16 0.16 0.16 0.16 0.18 0.19 0.18 0.17 0.19 0.23 0.29 0.32 0.30 0.27 0.24 0.20 0.20 0.20 0.16 0.13 0.14 0.16 0.16 0.15 0.15 0.14 0.15 0.16 0.17 0.18 0.19 0.20 0.25 0.32 0.31
0.24 0.24 0.26 0.24 0.22 0.21 0.21 0.19 0.17 0.18 0.18 0.17 0.18 0.19 0.19 0.17 0.17 0.19 0.24 0.27 0.24 0.22 0.23 0.22 0.22 0.18 0.16 0.13 0.11 0.11 0.12 0.13 0.15 0.14 0.13 0.13 0.13 0.13 0.15 0.16 0.19 0.25 0.31 0.29
0.28 0.28 0.28 0.26 0.24 0.24 0.22 0.19 0.18 0.18 0.20 0.19 0.16 0.15 0.17 0.19 0.19 0.20 0.22 0.23 0.23 0.20 0.20 0.19 0.16 0.14 0.14 0.12 0.10 0.09 0.09 0.10 0.11 0.12 0.12 0.11 0.10 0.11 0.14 0.16 0.19 0.21 0.23 0.23
0.30 0.28 0.29 0.30 0.29 0.29 0.25 0.20 0.18 0.17 0.19 0.21 0.20 0.21 0.23 0.24 0.22 0.21 0.21 0.20 0.20 0.18 0.17 0.16 0.13 0.12 0.11 0.09 0.08 0.08 0.07 0.07 0.07 0.09 0.10 0.10 0.10 0.11 0.12 0.15 0.18 0.20 0.19 0.21
0.37 0.33 0.31 0.34 0.37 0.34 0.31 0.27 0.22 0.19 0.19 0.19 0.23 0.27 0.29 0.26 0.21 0.19 0.21 0.23 0.22 0.16 0.13 0.12 0.11 0.09 0.07 0.06 0.07 0.08 0.07 0.07 0.08 0.09 0.09 0.09 0.08 0.09 0.11 0.14 0.18 0.18 0.17 0.18
0.35 0.38 0.36 0.38 0.44 0.40 0.37 0.33 0.28 0.24 0.22 0.23 0.23 0.24 0.23 0.20 0.19 0.16 0.13 0.13 0.14 0.11 0.09 0.08 0.07 0.07 0.06 0.06 0.07 0.08 0.08 0.08 0.10 0.10 0.09 0.08 0.08 0.08 0.08 0.12 0.18 0.19 0.17 0.17
0.41 0.47 0.45 0.42 0.42 0.38 0.34 0.32 0.33 0.34 0.33 0.31 0.27 0.22 0.20 0.17 0.17 0.15 0.12 0.09 0.09 0.08 0.07 0.07 0.06 0.06 0.07 0.07 0.08 0.09 0.09 0.08 0.09 0.09 0.08 0.08 0.09 0.10 0.10 0.13 0.17 0.20 0.19 0.16
0.50 0.51 0.49 0.45 0.37 0.33 0.34 0.32 0.32 0.35 0.38 0.38 0.34 0.25 0.19 0.17 0.17 0.16 0.12 0.10 0.09 0.08 0.07 0.07 0.06 0.06 0.08 0.09 0.09 0.09 0.08 0.09 0.09 0.10 0.11 0.10 0.09 0.10 0.13 0.16 0.20 0.23 0.19 0.14

GEFSNGP_prec_meanprecacc_240.txt.gz
Total_Precipitation_Accumulation
0.45 0.45 0.43 0.43 0.38 0.38 0.43 0.50 0.86 1.24 1.67 2.08 2.21 2.16 2.12 2.02 1.80 1.50 1.41 1.47 1.44 1.39 1.38 1.31 1.25 1.29 1.27 1.20 1.12 1.30 1.27 1.23 1.13 1.03 1.05 1.10 1.08 1.04 0.99 0.95 0.90 0.91 0.92 0.87
0.43 0.34 0.38 0.43 0.44 0.47 0.55 0.60 0.82 1.30 1.89 2.24 2.30 2.21 2.16 2.07 1.89 1.79 1.70 1.65 1.62 1.54 1.52 1.51 1.41 1.38 1.32 1.30 1.25 1.33 1.39 1.44 1.45 1.34 1.28 1.28 1.19 1.05 1.03 1.02 0.93 0.84 0.79 0.77
0.69 0.39 0.55 0.92 0.73 0.68 0.78 0.85 1.06 1.64 1.95 1.92 2.01 2.14 2.28 2.34 2.21 2.07 1.98 1.90 1.87 1.81 1.74 1.73 1.69 1.60 1.51 1.43 1.39 1.40 1.45 1.48 1.46 1.43 1.41 1.38 1.22 1.08 1.08 1.05 1.02 0.98 0.87 0.81
0.76 0.82 1.40 1.28 0.71 0.71 0.92 1.06 1.16 1.41 1.52 1.56 1.62 1.74 1.85 1.98 2.08 2.09 1.94 1.84 1.84 1.87 1.83 1.82 1.71 1.62 1.55 1.48 1.46 1.49 1.49 1.48 1.43 1.33 1.32 1.25 1.16 1.13 1.09 1.03 1.01 0.96 0.90 0.82
0.86 1.17 1.40 1.23 0.75 0.74 1.16 1.68 1.37 1.31 1.22 1.12 1.10 1.26 1.63 1.81 1.89 2.05 2.08 1.96 1.91 1.86 1.76 1.71 1.67 1.59 1.52 1.51 1.51 1.51 1.48 1.38 1.30 1.21 1.19 1.11 1.09 1.03 0.96 0.91 0.90 0.85 0.76 0.71
0.96 1.39 1.69 1.59 0.79 0.60 1.05 2.11 1.63 1.39 1.25 1.11 1.22 1.54 1.65 1.58 1.60 1.67 1.76 1.81 1.69 1.54 1.44 1.49 1.53 1.50 1.47 1.45 1.44 1.43 1.22 1.04 0.99 1.01 1.00 0.96 0.91 0.86 0.82 0.81 0.80 0.72 0.63 0.66
1.09 1.51 1.73 0.98 0.56 0.72 1.63 2.09 1.64 1.37 1.21 1.14 1.37 1.50 1.30 1.23 1.30 1.32 1.34 1.32 1.24 1.18 1.24 1.32 1.35 1.29 1.29 1.23 1.23 1.19 1.08 0.94 0.91 0.89 0.83 0.79 0.79 0.79 0.76 0.72 0.75 0.74 0.72 0.67
1.18 1.62 1.79 0.81 0.63 1.08 1.32 1.10 1.10 1.07 1.00 0.96 0.94 0.89 0.94 0.97 1.00 0.96 0.97 0.98 0.93 0.96 1.03 1.08 1.04 1.05 1.13 1.13 1.05 0.99 1.02 0.95 0.90 0.81 0.70 0.69 0.81 0.80 0.77 0.78 0.80 0.77 0.74 0.68
1.17 1.44 1.19 0.70 0.65 0.73 0.76 0.83 0.81 0.80 0.75 0.63 0.59 0.57 0.67 0.69 0.69 0.68 0.69 0.75 0.78 0.79 0.84 0.94 0.97 0.99 1.04 1.03 0.93 0.93 1.00 0.98 0.86 0.73 0.75 0.74 0.80 0.79 0.74 0.73 0.68 0.62 0.60 0.60
0.85 0.95 0.78 0.65 0.61 0.57 0.52 0.55 0.55 0.58 0.61 0.53 0.50 0.54 0.59 0.60 0.58 0.56 0.59 0.61 0.68 0.72 0.72 0.80 0.83 0.86 0.92 0.85 0.84 0.99 1.10 1.04 0.89 0.78 0.73 0.70 0.68 0.62 0.58 0.59 0.57 0.54 0.52 0.51
0.83 0.88 0.82 0.78 0.58 0.49 0.42 0.40 0.39 0.43 0.46 0.46 0.47 0.50 0.49 0.51 0.55 0.58 0.60 0.64 0.67 0.71 0.70 0.66 0.67 0.73 0.70 0.71 0.84 1.08 1.06 0.95 0.83 0.69 0.63 0.61 0.54 0.47 0.43 0.41 0.39 0.40 0.39 0.37
0.78 0.70 0.80 0.84 0.62 0.48 0.46 0.43 0.40 0.35 0.35 0.39 0.44 0.51 0.47 0.45 0.48 0.52 0.53 0.57 0.67 0.66 0.59 0.60 0.66 0.68 0.63 0.63 0.73 0.94 0.97 0.79 0.66 0.56 0.49 0.42 0.38 0.38 0.31 0.26 0.24 0.22 0.22 0.23
0.47 0.44 0.48 0.47 0.40 0.36 0.36 0.38 0.37 0.34 0.33 0.40 0.43 0.44 0.44 0.44 0.43 0.51 0.56 0.56 0.59 0.59 0.57 0.56 0.58 0.59 0.55 0.55 0.61 0.74 0.79 0.61 0.48 0.43 0.42 0.39 0.36 0.42 0.42 0.28 0.19 0.17 0.19 0.20
0.28 0.33 0.38 0.40 0.42 0.36 0.34 0.35 0.35 0.32 0.34 0.40 0.45 0.41 0.40 0.43 0.45 0.46 0.50 0.49 0.41 0.39 0.45 0.51 0.51 0.49 0.42 0.38 0.47 0.52 0.49 0.38 0.33 0.36 0.34 0.30 0.28 0.31 0.35 0.39 0.39 0.32 0.26 0.22
0.28 0.30 0.36 0.40 0.42 0.39 0.39 0.39 0.39 0.38 0.36 0.37 0.35 0.33 0.32 0.34 0.36 0.36 0.37 0.34 0.35 0.39 0.40 0.41 0.45 0.47 0.35 0.30 0.33 0.33 0.32 0.30 0.27 0.26 0.24 0.22 0.21 0.22 0.24 0.30 0.39 0.41 0.35 0.26
0.32 0.32 0.32 0.37 0.42 0.43 0.43 0.45 0.47 0.44 0.37 0.35 0.32 0.33 0.31 0.29 0.27 0.26 0.26 0.27 0.35 0.39 0.37 0.38 0.42 0.35 0.29 0.30 0.32 0.31 0.26 0.22 0.24 0.23 0.22 0.20 0.19 0.20 0.22 0.26 0.31 0.37 0.37 0.31
0.41 0.42 0.38 0.37 0.38 0.39 0.37 0.35 0.37 0.39 0.33 0.31 0.27 0.26 0.23 0.22 0.24 0.26 0.28 0.28 0.32 0.33 0.32 0.34 0.33 0.25 0.21 0.23 0.26 0.25 0.21 0.18 0.19 0.19 0.22 0.20 0.19 0.20 0.22 0.24 0.29 0.34 0.32 0.30
0.41 0.40 0.39 0.37 0.35 0.31 0.28 0.27 0.25 0.27 0.28 0.25 0.22 0.20 0.19 0.21 0.24 0.27 0.27 0.25 0.27 0.31 0.30 0.25 0.23 0.21 0.19 0.17 0.21 0.22 0.22 0.20 0.19 0.21 0.21 0.20 0.21 0.23 0.25 0.26 0.27 0.31 0.32 0.30
0.29 0.26 0.28 0.28 0.26 0.23 0.23 0.24 0.21 0.20 0.21 0.19 0.18 0.18 0.20 0.20 0.20 0.24 0.26 0.28 0.32 0.35 0.31 0.25 0.21 0.20 0.22 0.18 0.19 0.22 0.22 0.20 0.19 0.19 0.17 0.17 0.18 0.20 0.21 0.22 0.23 0.30 0.33 0.33
0.22 0.22 0.24 0.24 0.21 0.20 0.23 0.22 0.17 0.17 0.18 0.18 0.18 0.20 0.21 0.19 0.19 0.22 0.26 0.31 0.34 0.31 0.28 0.25 0.21 0.22 0.22 0.17 0.14 0.15 0.17 0.18 0.18 0.19 0.18 0.17 0.18 0.18 0.20 0.22 0.22 0.26 0.33 0.32
0.26 0.26 0.27 0.25 0.23 0.22 0.23 0.21 0.18 0.18 0.19 0.19 0.20 0.21 0.20 0.19 0.19 0.21 0.26 0.28 0.25 0.23 0.24 0.23 0.23 0.19 0.17 0.15 0.12 0.12 0.13 0.15 0.18 0.18 0.18 0.16 0.14 0.14 0.16 0.18 0.21 0.27 0.32 0.30
0.29 0.29 0.29 0.27 0.24 0.25 0.24 0.21 0.19 0.19 0.22 0.22 0.18 0.17 0.19 0.21 0.22 0.22 0.23 0.24 0.23 0.21 0.20 0.19 0.17 0.15 0.15 0.13 0.11 0.10 0.11 0.12 0.14 0.15 0.16 0.15 0.12 0.13 0.16 0.19 0.21 0.22 0.24 0.24
0.31 0.30 0.32 0.32 0.30 0.29 0.26 0.22 0.20 0.20 0.22 0.22 0.21 0.22 0.25 0.27 0.25 0.23 0.22 0.20 0.21 0.18 0.17 0.16 0.13 0.12 0.12 0.10 0.09 0.08 0.08 0.08 0.09 0.10 0.12 0.13 0.14 0.14 0.15 0.19 0.22 0.23 0.22 0.23
0.40 0.36 0.34 0.35 0.37 0.35 0.33 0.29 0.24 0.21 0.21 0.21 0.24 0.28 0.30 0.28 0.22 0.20 0.23 0.24 0.23 0.16 0.14 0.12 0.11 0.10 0.08 0.07 0.07 0.08 0.08 0.08 0.09 0.10 0.11 0.11 0.11 0.12 0.14 0.17 0.21 0.21 0.20 0.21
0.38 0.40 0.38 0.40 0.45 0.42 0.38 0.35 0.29 0.26 0.25 0.25 0.25 0.25 0.24 0.20 0.20 0.18 0.14 0.14 0.15 0.12 0.09 0.08 0.08 0.08 0.07 0.06 0.07 0.09 0.09 0.09 0.11 0.11 0.11 0.10 0.09 0.09 0.10 0.14 0.20 0.21 0.20 0.20
0.43 0.50 0.49 0.45 0.45 0.43 0.37 0.34 0.35 0.36 0.36 0.33 0.29 0.24 0.20 0.17 0.17 0.17 0.12 0.10 0.11 0.09 0.07 0.07 0.06 0.06 0.07 0.07 0.08 0.09 0.10 0.10 0.10 0.10 0.10 0.10 0.10 0.11 0.12 0.15 0.19 0.22 0.22 0.19
0.53 0.55 0.54 0.50 0.42 0.38 0.38 0.35 0.35 0.37 0.39 0.40 0.36 0.26 0.20 0.17 0.18 0.17 0.13 0.11 0.11 0.09 0.08 0.08 0.06 0.07 0.08 0.10 0.10 0.09 0.09 0.09 0.10 0.12 0.12 0.11 0.10 0.12 0.15 0.18 0.23 0.26 0.23 0.18

GEFSNGP_prec_meanprecacc_246.txt.gz
Total_Precipitation_Accumulation
0.46 0.46 0.45 0.44 0.39 0.39 0.47 0.55 0.89 1.27 1.71 2.11 2.25 2.20 2.16 2.04 1.81 1.51 1.43 1.50 1.48 1.44 1.43 1.35 1.29 1.32 1.30 1.23 1.15 1.33 1.31 1.26 1.16 1.06 1.07 1.13 1.11 1.06 1.02 0.99 0.93 0.95 0.96 0.92
0.44 0.34 0.39 0.44 0.45 0.49 0.57 0.64 0.86 1.33 1.92 2.26 2.33 2.24 2.18 2.08 1.90 1.80 1.71 1.67 1.66 1.59 1.60 1.60 1.50 1.43 1.36 1.34 1.30 1.38 1.44 1.48 1.48 1.37 1.31 1.31 1.21 1.08 1.07 1.05 0.96 0.87 0.81 0.80
0.73 0.41 0.58 0.95 0.75 0.69 0.80 0.87 1.10 1.69 2.00 1.95 2.03 2.16 2.31 2.36 2.22 2.08 1.99 1.91 1.89 1.84 1.79 1.80 1.76 1.66 1.55 1.46 1.43 1.45 1.50 1.51 1.49 1.47 1.45 1.41 1.24 1.11 1.11 1.08 1.05 1.01 0.90 0.84
0.81 0.86 1.47 1.33 0.74 0.73 0.95 1.09 1.20 1.46 1.56 1.59 1.64 1.77 1.87 1.99 2.09 2.10 1.95 1.87 1.88 1.91 1.88 1.87 1.77 1.68 1.60 1.52 1.52 1.55 1.53 1.50 1.46 1.35 1.34 1.28 1.19 1.18 1.14 1.08 1.05 1.00 0.93 0.86
0.91 1.22 1.46 1.29 0.79 0.78 1.20 1.73 1.42 1.36 1.26 1.15 1.13 1.29 1.67 1.83 1.90 2.07 2.10 1.99 1.96 1.92 1.82 1.77 1.73 1.67 1.60 1.58 1.59 1.60 1.55 1.41 1.31 1.23 1.22 1.15 1.13 1.08 1.02 0.96 0.94 0.88 0.79 0.76
1.02 1.45 1.76 1.65 0.85 0.65 1.11 2.20 1.68 1.43 1.28 1.14 1.25 1.60 1.71 1.62 1.63 1.69 1.78 1.83 1.73 1.58 1.49 1.56 1.60 1.57 1.54 1.52 1.50 1.50 1.31 1.10 1.01 1.02 1.02 0.99 0.94 0.90 0.87 0.85 0.85 0.78 0.68 0.70
1.15 1.59 1.80 1.03 0.59 0.75 1.70 2.19 1.70 1.41 1.27 1.20 1.44 1.58 1.37 1.26 1.31 1.33 1.36 1.34 1.26 1.20 1.26 1.36 1.40 1.36 1.36 1.30 1.29 1.25 1.15 1.03 0.95 0.91 0.85 0.82 0.82 0.83 0.80 0.76 0.80 0.79 0.78 0.74
1.24 1.70 1.86 0.84 0.66 1.12 1.38 1.15 1.14 1.11 1.05 1.02 1.01 0.96 1.00 1.01 1.01 0.98 0.98 1.00 0.95 0.99 1.05 1.10 1.07 1.08 1.17 1.18 1.09 1.02 1.05 1.00 0.95 0.84 0.72 0.71 0.84 0.83 0.80 0.82 0.84 0.82 0.79 0.73
1.24 1.53 1.25 0.73 0.67 0.76 0.80 0.86 0.82 0.81 0.77 0.67 0.64 0.62 0.71 0.71 0.71 0.70 0.71 0.78 0.80 0.82 0.88 0.97 0.99 1.01 1.07 1.05 0.96 0.95 1.03 1.01 0.90 0.76 0.78 0.77 0.83 0.83 0.77 0.76 0.71 0.65 0.63 0.63
0.92 1.02 0.81 0.67 0.62 0.59 0.54 0.57 0.55 0.59 0.62 0.55 0.53 0.60 0.65 0.62 0.60 0.58 0.61 0.64 0.70 0.74 0.76 0.84 0.86 0.88 0.94 0.87 0.86 1.02 1.13 1.07 0.93 0.81 0.75 0.73 0.72 0.66 0.62 0.62 0.61 0.57 0.55 0.54
0.88 0.91 0.85 0.81 0.58 0.50 0.43 0.40 0.40 0.43 0.47 0.47 0.48 0.52 0.52 0.53 0.57 0.59 0.62 0.68 0.71 0.74 0.74 0.71 0.70 0.74 0.72 0.74 0.87 1.12 1.10 0.98 0.86 0.72 0.65 0.63 0.57 0.50 0.45 0.44 0.41 0.42 0.41 0.40
0.84 0.73 0.82 0.86 0.63 0.49 0.47 0.44 0.41 0.36 0.36 0.41 0.46 0.53 0.49 0.47 0.50 0.53 0.55 0.60 0.71 0.70 0.65 0.65 0.69 0.71 0.66 0.68 0.80 1.00 1.02 0.83 0.69 0.59 0.52 0.44 0.40 0.39 0.32 0.27 0.24 0.23 0.23 0.24
0.50 0.46 0.50 0.48 0.41 0.37 0.37 0.39 0.38 0.35 0.35 0.41 0.45 0.46 0.46 0.46 0.45 0.52 0.59 0.59 0.63 0.64 0.63 0.61 0.62 0.64 0.60 0.58 0.65 0.78 0.83 0.66 0.52 0.46 0.45 0.42 0.38 0.44 0.44 0.30 0.20 0.17 0.20 0.21
0.31 0.36 0.42 0.42 0.43 0.37 0.35 0.36 0.36 0.33 0.35 0.43 0.47 0.43 0.42 0.45 0.47 0.48 0.52 0.51 0.43 0.41 0.49 0.54 0.54 0.53 0.45 0.40 0.51 0.56 0.53 0.43 0.37 0.39 0.37 0.33 0.30 0.33 0.36 0.40 0.40 0.33 0.28 0.25
0.32 0.35 0.40 0.45 0.46 0.41 0.39 0.40 0.40 0.39 0.37 0.39 0.37 0.35 0.35 0.37 0.38 0.38 0.38 0.36 0.37 0.41 0.43 0.42 0.46 0.48 0.37 0.32 0.36 0.37 0.35 0.34 0.31 0.30 0.28 0.25 0.23 0.25 0.26 0.31 0.40 0.43 0.37 0.30
0.36 0.35 0.36 0.41 0.45 0.46 0.45 0.47 0.49 0.46 0.38 0.36 0.34 0.36 0.33 0.31 0.29 0.28 0.29 0.30 0.36 0.41 0.39 0.40 0.43 0.36 0.29 0.31 0.34 0.34 0.29 0.26 0.27 0.25 0.25 0.24 0.23 0.23 0.26 0.28 0.33 0.39 0.39 0.35
0.44 0.45 0.41 0.40 0.40 0.42 0.39 0.37 0.39 0.41 0.35 0.32 0.28 0.28 0.25 0.24 0.25 0.29 0.33 0.31 0.34 0.35 0.34 0.35 0.35 0.26 0.21 0.24 0.27 0.28 0.23 0.21 0.22 0.22 0.24 0.23 0.23 0.24 0.25 0.27 0.32 0.37 0.36 0.34
0.44 0.43 0.42 0.41 0.39 0.33 0.29 0.29 0.28 0.29 0.30 0.27 0.23 0.22 0.22 0.23 0.25 0.28 0.29 0.27 0.29 0.33 0.31 0.26 0.24 0.22 0.20 0.18 0.22 0.24 0.24 0.24 0.22 0.23 0.23 0.22 0.23 0.26 0.28 0.29 0.31 0.36 0.38 0.34
0.31 0.29 0.30 0.31 0.30 0.25 0.24 0.26 0.23 0.23 0.24 0.22 0.20 0.21 0.24 0.23 0.21 0.24 0.27 0.30 0.33 0.37 0.31 0.25 0.21 0.21 0.23 0.20 0.20 0.24 0.25 0.23 0.22 0.22 0.20 0.20 0.21 0.23 0.24 0.27 0.28 0.34 0.36 0.35
0.24 0.24 0.26 0.26 0.24 0.22 0.25 0.24 0.19 0.20 0.21 0.21 0.22 0.23 0.23 0.21 0.20 0.23 0.27 0.32 0.34 0.31 0.28 0.26 0.22 0.22 0.23 0.19 0.16 0.18 0.20 0.21 0.21 0.22 0.21 0.20 0.22 0.22 0.24 0.26 0.27 0.31 0.36 0.34
0.28 0.28 0.29 0.27 0.25 0.24 0.24 0.21 0.19 0.20 0.21 0.22 0.24 0.24 0.22 0.20 0.20 0.23 0.28 0.30 0.26 0.24 0.25 0.24 0.24 0.20 0.19 0.17 0.14 0.15 0.17 0.19 0.22 0.22 0.22 0.20 0.18 0.18 0.20 0.22 0.26 0.31 0.35 0.32
0.30 0.31 0.31 0.28 0.25 0.26 0.24 0.21 0.20 0.21 0.23 0.24 0.22 0.20 0.22 0.24 0.23 0.23 0.24 0.25 0.24 0.22 0.21 0.20 0.18 0.17 0.17 0.15 0.12 0.12 0.14 0.18 0.20 0.20 0.22 0.20 0.17 0.18 0.19 0.22 0.24 0.25 0.27 0.27
0.32 0.31 0.33 0.33 0.31 0.30 0.27 0.23 0.21 0.21 0.23 0.25 0.25 0.26 0.29 0.31 0.27 0.24 0.23 0.21 0.21 0.20 0.18 0.17 0.14 0.13 0.13 0.11 0.11 0.11 0.11 0.12 0.13 0.16 0.17 0.17 0.18 0.19 0.20 0.23 0.25 0.25 0.23 0.25
0.41 0.37 0.35 0.36 0.38 0.36 0.35 0.31 0.26 0.23 0.23 0.23 0.27 0.31 0.33 0.30 0.23 0.21 0.23 0.24 0.23 0.17 0.15 0.14 0.12 0.10 0.09 0.08 0.08 0.10 0.11 0.11 0.13 0.15 0.15 0.14 0.14 0.15 0.17 0.20 0.24 0.24 0.22 0.23
0.39 0.42 0.40 0.41 0.47 0.44 0.40 0.37 0.32 0.29 0.28 0.28 0.27 0.27 0.26 0.21 0.21 0.19 0.15 0.15 0.16 0.13 0.10 0.10 0.09 0.09 0.08 0.07 0.08 0.10 0.11 0.12 0.14 0.14 0.13 0.12 0.11 0.11 0.13 0.17 0.23 0.24 0.23 0.22
0.46 0.53 0.51 0.48 0.48 0.45 0.40 0.37 0.38 0.40 0.40 0.37 0.32 0.26 0.22 0.18 0.18 0.17 0.14 0.11 0.11 0.10 0.09 0.08 0.08 0.08 0.09 0.09 0.09 0.10 0.12 0.12 0.12 0.12 0.12 0.11 0.12 0.14 0.15 0.18 0.22 0.25 0.24 0.21
0.56 0.57 0.56 0.53 0.45 0.41 0.42 0.39 0.38 0.41 0.43 0.43 0.38 0.28 0.22 0.19 0.19 0.18 0.13 0.12 0.11 0.10 0.09 0.09 0.07 0.08 0.10 0.11 0.11 0.11 0.11 0.13 0.14 0.15 0.15 0.13 0.13 0.15 0.18 0.21 0.25 0.29 0.26 0.21

GEFSNGP_prec_meanprecacc_252.txt.gz
Total_Precipitation_Accumulation
0.48 0.48 0.47 0.46 0.41 0.40 0.49 0.57 0.91 1.31 1.77 2.18 2.34 2.29 2.27 2.13 1.89 1.58 1.47 1.53 1.51 1.47 1.46 1.38 1.33 1.40 1.37 1.27 1.19 1.39 1.36 1.30 1.19 1.08 1.10 1.15 1.13 1.08 1.04 1.01 0.97 1.00 1.02 0.97
0.46 0.37 0.42 0.47 0.49 0.53 0.60 0.67 0.90 1.38 2.00 2.33 2.42 2.35 2.32 2.20 2.02 1.91 1.80 1.71 1.69 1.62 1.62 1.63 1.54 1.49 1.43 1.40 1.36 1.44 1.50 1.53 1.52 1.40 1.34 1.33 1.23 1.09 1.08 1.06 0.98 0.91 0.85 0.84
0.76 0.43 0.62 1.02 0.80 0.74 0.84 0.91 1.15 1.76 2.09 2.03 2.10 2.24 2.39 2.45 2.31 2.18 2.09 1.97 1.94 1.88 1.82 1.82 1.80 1.71 1.62 1.55 1.51 1.50 1.54 1.56 1.53 1.50 1.47 1.43 1.26 1.13 1.13 1.10 1.07 1.03 0.92 0.87
0.86 0.90 1.52 1.41 0.79 0.77 0.99 1.13 1.25 1.53 1.64 1.69 1.72 1.84 1.94 2.05 2.15 2.17 2.02 1.93 1.97 2.03 1.97 1.93 1.82 1.72 1.63 1.57 1.58 1.62 1.60 1.55 1.50 1.38 1.36 1.30 1.21 1.19 1.16 1.10 1.07 1.02 0.95 0.88
0.96 1.27 1.51 1.33 0.83 0.82 1.26 1.80 1.50 1.43 1.33 1.24 1.20 1.36 1.74 1.88 1.94 2.11 2.14 2.05 2.02 2.00 1.91 1.86 1.82 1.73 1.65 1.64 1.64 1.65 1.60 1.47 1.36 1.26 1.25 1.18 1.15 1.09 1.03 0.98 0.96 0.90 0.81 0.77
1.06 1.50 1.82 1.69 0.88 0.70 1.17 2.28 1.78 1.51 1.35 1.20 1.32 1.67 1.77 1.66 1.66 1.72 1.81 1.86 1.77 1.63 1.55 1.67 1.75 1.71 1.63 1.58 1.58 1.56 1.36 1.16 1.06 1.06 1.06 1.01 0.96 0.92 0.89 0.87 0.86 0.79 0.69 0.72
1.20 1.66 1.87 1.06 0.62 0.79 1.77 2.29 1.78 1.47 1.31 1.24 1.48 1.63 1.41 1.30 1.35 1.36 1.39 1.37 1.30 1.25 1.30 1.41 1.47 1.44 1.43 1.36 1.35 1.31 1.20 1.07 0.99 0.95 0.89 0.86 0.85 0.86 0.82 0.78 0.81 0.81 0.80 0.75
1.30 1.78 1.94 0.88 0.70 1.17 1.44 1.21 1.20 1.16 1.10 1.06 1.04 0.99 1.04 1.07 1.08 1.03 1.03 1.04 1.00 1.05 1.12 1.16 1.11 1.11 1.21 1.21 1.12 1.05 1.09 1.05 1.03 0.91 0.76 0.76 0.89 0.87 0.83 0.84 0.86 0.83 0.80 0.74
1.31 1.62 1.34 0.78 0.71 0.79 0.82 0.89 0.84 0.84 0.80 0.71 0.67 0.64 0.74 0.78 0.80 0.80 0.80 0.85 0.86 0.86 0.92 1.02 1.04 1.05 1.10 1.08 0.97 0.97 1.05 1.04 0.94 0.81 0.82 0.81 0.86 0.86 0.80 0.79 0.74 0.67 0.65 0.65
0.98 1.08 0.89 0.75 0.68 0.63 0.58 0.59 0.58 0.62 0.65 0.58 0.56 0.62 0.69 0.67 0.66 0.64 0.67 0.72 0.79 0.81 0.80 0.87 0.89 0.91 0.98 0.90 0.89 1.04 1.14 1.08 0.94 0.83 0.77 0.75 0.75 0.69 0.64 0.64 0.64 0.61 0.58 0.56
0.93 0.95 0.89 0.87 0.67 0.57 0.47 0.43 0.43 0.46 0.49 0.50 0.51 0.54 0.55 0.56 0.60 0.64 0.67 0.73 0.77 0.82 0.82 0.77 0.74 0.78 0.76 0.77 0.91 1.14 1.11 0.99 0.87 0.73 0.66 0.64 0.59 0.54 0.50 0.47 0.44 0.45 0.44 0.43
0.89 0.77 0.86 0.91 0.68 0.55 0.52 0.47 0.43 0.39 0.39 0.45 0.51 0.57 0.53 0.53 0.56 0.60 0.63 0.65 0.75 0.74 0.70 0.72 0.77 0.78 0.72 0.72 0.83 1.03 1.04 0.85 0.70 0.61 0.54 0.46 0.43 0.43 0.38 0.34 0.31 0.28 0.29 0.29
0.57 0.52 0.55 0.53 0.45 0.42 0.42 0.43 0.41 0.37 0.38 0.45 0.50 0.51 0.51 0.52 0.53 0.59 0.64 0.63 0.66 0.67 0.66 0.65 0.69 0.72 0.71 0.67 0.70 0.80 0.85 0.68 0.53 0.48 0.48 0.45 0.42 0.49 0.50 0.36 0.28 0.24 0.25 0.26
0.37 0.42 0.48 0.48 0.47 0.41 0.39 0.41 0.40 0.36 0.37 0.45 0.51 0.48 0.47 0.50 0.52 0.52 0.56 0.53 0.44 0.43 0.50 0.55 0.55 0.55 0.48 0.46 0.57 0.60 0.55 0.45 0.39 0.42 0.41 0.37 0.36 0.41 0.45 0.49 0.48 0.39 0.33 0.30
0.38 0.38 0.45 0.50 0.51 0.44 0.42 0.44 0.44 0.43 0.41 0.43 0.42 0.41 0.42 0.42 0.43 0.42 0.41 0.37 0.38 0.41 0.43 0.43 0.47 0.49 0.38 0.33 0.39 0.40 0.38 0.36 0.33 0.32 0.30 0.27 0.26 0.29 0.31 0.38 0.48 0.49 0.42 0.35
0.39 0.39 0.41 0.45 0.50 0.50 0.48 0.50 0.53 0.50 0.43 0.42 0.38 0.41 0.40 0.37 0.33 0.31 0.31 0.32 0.38 0.42 0.40 0.41 0.44 0.36 0.30 0.32 0.35 0.35 0.30 0.27 0.28 0.27 0.27 0.26 0.25 0.26 0.29 0.33 0.39 0.44 0.43 0.37
0.47 0.49 0.44 0.44 0.43 0.45 0.43 0.40 0.43 0.45 0.40 0.38 0.34 0.33 0.31 0.29 0.29 0.32 0.35 0.34 0.36 0.36 0.35 0.36 0.35 0.26 0.22 0.24 0.28 0.28 0.24 0.22 0.23 0.23 0.25 0.24 0.24 0.26 0.28 0.30 0.37 0.41 0.39 0.37
0.48 0.46 0.44 0.42 0.41 0.36 0.32 0.32 0.31 0.32 0.34 0.32 0.28 0.27 0.27 0.29 0.30 0.31 0.31 0.29 0.30 0.33 0.32 0.27 0.25 0.22 0.20 0.18 0.23 0.25 0.25 0.24 0.23 0.24 0.24 0.23 0.24 0.27 0.30 0.32 0.34 0.39 0.42 0.39
0.34 0.31 0.32 0.32 0.32 0.28 0.27 0.28 0.26 0.26 0.28 0.27 0.24 0.26 0.28 0.27 0.26 0.28 0.29 0.31 0.34 0.37 0.32 0.25 0.21 0.21 0.23 0.20 0.21 0.25 0.25 0.24 0.22 0.23 0.21 0.21 0.22 0.24 0.26 0.29 0.31 0.37 0.39 0.38
0.26 0.25 0.28 0.27 0.25 0.24 0.28 0.27 0.22 0.24 0.26 0.26 0.26 0.28 0.27 0.24 0.24 0.26 0.30 0.35 0.35 0.32 0.29 0.26 0.22 0.22 0.23 0.19 0.17 0.19 0.21 0.22 0.22 0.24 0.23 0.22 0.24 0.24 0.26 0.28 0.28 0.32 0.37 0.35
0.29 0.29 0.30 0.28 0.26 0.25 0.26 0.23 0.21 0.23 0.25 0.26 0.28 0.28 0.26 0.24 0.24 0.27 0.32 0.33 0.28 0.25 0.26 0.24 0.24 0.20 0.19 0.17 0.14 0.16 0.19 0.21 0.24 0.25 0.24 0.23 0.22 0.21 0.22 0.25 0.28 0.32 0.36 0.33
0.32 0.33 0.32 0.30 0.26 0.27 0.26 0.23 0.22 0.23 0.26 0.27 0.25 0.24 0.26 0.28 0.27 0.27 0.27 0.29 0.27 0.24 0.22 0.21 0.18 0.17 0.17 0.15 0.12 0.13 0.15 0.19 0.23 0.24 0.26 0.23 0.20 0.21 0.23 0.26 0.27 0.28 0.29 0.29
0.36 0.34 0.35 0.34 0.32 0.31 0.28 0.24 0.23 0.23 0.25 0.27 0.27 0.29 0.33 0.35 0.31 0.28 0.27 0.23 0.23 0.22 0.20 0.18 0.15 0.14 0.13 0.11 0.11 0.11 0.12 0.12 0.15 0.18 0.21 0.22 0.23 0.24 0.25 0.28 0.30 0.30 0.27 0.28
0.44 0.40 0.37 0.39 0.40 0.37 0.36 0.32 0.27 0.24 0.25 0.24 0.29 0.35 0.37 0.34 0.27 0.25 0.27 0.26 0.25 0.19 0.16 0.15 0.13 0.11 0.10 0.09 0.09 0.11 0.11 0.12 0.14 0.16 0.18 0.18 0.19 0.22 0.25 0.29 0.34 0.33 0.30 0.29
0.43 0.46 0.42 0.44 0.50 0.47 0.42 0.39 0.34 0.31 0.30 0.30 0.30 0.30 0.29 0.25 0.24 0.22 0.18 0.19 0.19 0.15 0.12 0.11 0.11 0.10 0.09 0.08 0.09 0.11 0.12 0.13 0.15 0.16 0.15 0.15 0.15 0.16 0.20 0.26 0.33 0.34 0.32 0.30
0.49 0.56 0.54 0.51 0.50 0.47 0.42 0.39 0.40 0.42 0.43 0.41 0.36 0.30 0.25 0.21 0.20 0.20 0.17 0.15 0.16 0.14 0.11 0.10 0.10 0.10 0.11 0.11 0.11 0.12 0.14 0.15 0.15 0.15 0.15 0.15 0.17 0.19 0.21 0.26 0.29 0.32 0.31 0.27
0.58 0.59 0.59 0.55 0.47 0.42 0.44 0.41 0.41 0.44 0.47 0.48 0.42 0.31 0.24 0.21 0.21 0.20 0.16 0.15 0.15 0.14 0.12 0.11 0.10 0.11 0.13 0.14 0.14 0.14 0.14 0.16 0.19 0.21 0.20 0.19 0.19 0.22 0.26 0.28 0.30 0.32 0.30 0.24